<?xml version="1.0" encoding="UTF-8" standalone="no" ?>
<gpx xmlns="http://www.topografix.com/GPX/1/1" xmlns:xsi="http://www.w3.org/2001/XMLSchema-instance" xsi:schemaLocation="http://www.topografix.com/GPX/1/1 http://www.topografix.com/GPX/1/1/gpx.xsd" version="1.1" creator="VisuGPX - https://www.visugpx.com">
  <metadata>
    <name>Tour des lacs de Chalain et de Chambly</name>
    <desc><![CDATA[Rando intéressante avec ses bèlvédères sur le lac de Chalain un peu moins sur le lac de Chambly mais néanmoins c'est une belle boucle.]]></desc>
  </metadata>
  <trk>
    <name><![CDATA[Tracé actuel: 15 JUIN 2019 08:48]]></name>
    <trkseg>
      <trkpt lat="46.65479" lon="5.77865">
        <ele>510.6</ele>
        <time>2019-06-15T06:48:19Z</time>
      </trkpt>
      <trkpt lat="46.65479" lon="5.77865">
        <ele>507.23</ele>
        <time>2019-06-15T06:48:21Z</time>
      </trkpt>
      <trkpt lat="46.6548" lon="5.77865">
        <ele>510.12</ele>
        <time>2019-06-15T06:48:26Z</time>
      </trkpt>
      <trkpt lat="46.65479" lon="5.77865">
        <ele>506.75</ele>
        <time>2019-06-15T06:48:28Z</time>
      </trkpt>
      <trkpt lat="46.65479" lon="5.77865">
        <ele>512.04</ele>
        <time>2019-06-15T06:48:29Z</time>
      </trkpt>
      <trkpt lat="46.65479" lon="5.77865">
        <ele>512.04</ele>
        <time>2019-06-15T06:48:30Z</time>
      </trkpt>
      <trkpt lat="46.65479" lon="5.77865">
        <ele>507.71</ele>
        <time>2019-06-15T06:48:31Z</time>
      </trkpt>
      <trkpt lat="46.65479" lon="5.77865">
        <ele>512.04</ele>
        <time>2019-06-15T06:48:32Z</time>
      </trkpt>
      <trkpt lat="46.65477" lon="5.77867">
        <ele>515.4</ele>
        <time>2019-06-15T06:48:54Z</time>
      </trkpt>
      <trkpt lat="46.65478" lon="5.77869">
        <ele>515.88</ele>
        <time>2019-06-15T06:49:07Z</time>
      </trkpt>
      <trkpt lat="46.65479" lon="5.77869">
        <ele>515.88</ele>
        <time>2019-06-15T06:49:27Z</time>
      </trkpt>
      <trkpt lat="46.6548" lon="5.77869">
        <ele>515.88</ele>
        <time>2019-06-15T06:49:49Z</time>
      </trkpt>
      <trkpt lat="46.6548" lon="5.77869">
        <ele>515.88</ele>
        <time>2019-06-15T06:50:13Z</time>
      </trkpt>
      <trkpt lat="46.6548" lon="5.77869">
        <ele>515.88</ele>
        <time>2019-06-15T06:50:29Z</time>
      </trkpt>
      <trkpt lat="46.6548" lon="5.77868">
        <ele>515.88</ele>
        <time>2019-06-15T06:50:45Z</time>
      </trkpt>
      <trkpt lat="46.6548" lon="5.77869">
        <ele>515.88</ele>
        <time>2019-06-15T06:50:47Z</time>
      </trkpt>
      <trkpt lat="46.65484" lon="5.77871">
        <ele>515.88</ele>
        <time>2019-06-15T06:50:51Z</time>
      </trkpt>
      <trkpt lat="46.65494" lon="5.77881">
        <ele>516.37</ele>
        <time>2019-06-15T06:51:04Z</time>
      </trkpt>
      <trkpt lat="46.655" lon="5.77885">
        <ele>516.85</ele>
        <time>2019-06-15T06:51:15Z</time>
      </trkpt>
      <trkpt lat="46.65501" lon="5.77893">
        <ele>517.33</ele>
        <time>2019-06-15T06:51:26Z</time>
      </trkpt>
      <trkpt lat="46.65499" lon="5.77899">
        <ele>517.33</ele>
        <time>2019-06-15T06:51:41Z</time>
      </trkpt>
      <trkpt lat="46.65496" lon="5.77907">
        <ele>518.29</ele>
        <time>2019-06-15T06:51:51Z</time>
      </trkpt>
      <trkpt lat="46.65495" lon="5.77914">
        <ele>520.21</ele>
        <time>2019-06-15T06:52:01Z</time>
      </trkpt>
      <trkpt lat="46.65496" lon="5.77915">
        <ele>520.21</ele>
        <time>2019-06-15T06:52:02Z</time>
      </trkpt>
      <trkpt lat="46.65495" lon="5.77925">
        <ele>522.13</ele>
        <time>2019-06-15T06:52:14Z</time>
      </trkpt>
      <trkpt lat="46.65494" lon="5.77932">
        <ele>524.06</ele>
        <time>2019-06-15T06:52:27Z</time>
      </trkpt>
      <trkpt lat="46.65494" lon="5.77945">
        <ele>525.98</ele>
        <time>2019-06-15T06:52:40Z</time>
      </trkpt>
      <trkpt lat="46.65497" lon="5.77957">
        <ele>528.86</ele>
        <time>2019-06-15T06:52:54Z</time>
      </trkpt>
      <trkpt lat="46.65499" lon="5.7796">
        <ele>529.82</ele>
        <time>2019-06-15T06:53:11Z</time>
      </trkpt>
      <trkpt lat="46.65501" lon="5.77968">
        <ele>531.27</ele>
        <time>2019-06-15T06:53:24Z</time>
      </trkpt>
      <trkpt lat="46.6551" lon="5.77973">
        <ele>532.23</ele>
        <time>2019-06-15T06:53:33Z</time>
      </trkpt>
      <trkpt lat="46.65509" lon="5.77979">
        <ele>532.23</ele>
        <time>2019-06-15T06:53:40Z</time>
      </trkpt>
      <trkpt lat="46.65522" lon="5.77983">
        <ele>531.75</ele>
        <time>2019-06-15T06:53:50Z</time>
      </trkpt>
      <trkpt lat="46.65533" lon="5.7799">
        <ele>531.27</ele>
        <time>2019-06-15T06:54:01Z</time>
      </trkpt>
      <trkpt lat="46.6554" lon="5.77993">
        <ele>530.3</ele>
        <time>2019-06-15T06:54:10Z</time>
      </trkpt>
      <trkpt lat="46.65551" lon="5.78003">
        <ele>528.86</ele>
        <time>2019-06-15T06:54:23Z</time>
      </trkpt>
      <trkpt lat="46.65568" lon="5.7801">
        <ele>528.38</ele>
        <time>2019-06-15T06:54:33Z</time>
      </trkpt>
      <trkpt lat="46.65586" lon="5.78024">
        <ele>528.86</ele>
        <time>2019-06-15T06:54:44Z</time>
      </trkpt>
      <trkpt lat="46.6559" lon="5.78025">
        <ele>528.38</ele>
        <time>2019-06-15T06:54:48Z</time>
      </trkpt>
      <trkpt lat="46.65601" lon="5.78035">
        <ele>528.38</ele>
        <time>2019-06-15T06:54:56Z</time>
      </trkpt>
      <trkpt lat="46.65615" lon="5.78048">
        <ele>528.86</ele>
        <time>2019-06-15T06:55:08Z</time>
      </trkpt>
      <trkpt lat="46.65617" lon="5.78051">
        <ele>528.86</ele>
        <time>2019-06-15T06:55:10Z</time>
      </trkpt>
      <trkpt lat="46.65644" lon="5.78067">
        <ele>529.82</ele>
        <time>2019-06-15T06:55:21Z</time>
      </trkpt>
      <trkpt lat="46.65658" lon="5.78071">
        <ele>530.3</ele>
        <time>2019-06-15T06:55:32Z</time>
      </trkpt>
      <trkpt lat="46.65668" lon="5.78078">
        <ele>531.27</ele>
        <time>2019-06-15T06:55:44Z</time>
      </trkpt>
      <trkpt lat="46.6568" lon="5.78087">
        <ele>531.27</ele>
        <time>2019-06-15T06:55:55Z</time>
      </trkpt>
      <trkpt lat="46.65688" lon="5.781">
        <ele>531.27</ele>
        <time>2019-06-15T06:56:07Z</time>
      </trkpt>
      <trkpt lat="46.65695" lon="5.7811">
        <ele>531.75</ele>
        <time>2019-06-15T06:56:19Z</time>
      </trkpt>
      <trkpt lat="46.65698" lon="5.78113">
        <ele>531.75</ele>
        <time>2019-06-15T06:56:23Z</time>
      </trkpt>
      <trkpt lat="46.657" lon="5.78116">
        <ele>532.23</ele>
        <time>2019-06-15T06:56:29Z</time>
      </trkpt>
      <trkpt lat="46.65702" lon="5.78115">
        <ele>532.23</ele>
        <time>2019-06-15T06:56:30Z</time>
      </trkpt>
      <trkpt lat="46.65711" lon="5.78124">
        <ele>533.19</ele>
        <time>2019-06-15T06:56:41Z</time>
      </trkpt>
      <trkpt lat="46.65717" lon="5.7813">
        <ele>533.19</ele>
        <time>2019-06-15T06:56:48Z</time>
      </trkpt>
      <trkpt lat="46.65723" lon="5.78139">
        <ele>533.67</ele>
        <time>2019-06-15T06:56:55Z</time>
      </trkpt>
      <trkpt lat="46.65736" lon="5.78153">
        <ele>534.15</ele>
        <time>2019-06-15T06:57:05Z</time>
      </trkpt>
      <trkpt lat="46.65749" lon="5.78157">
        <ele>534.15</ele>
        <time>2019-06-15T06:57:14Z</time>
      </trkpt>
      <trkpt lat="46.65758" lon="5.78168">
        <ele>534.63</ele>
        <time>2019-06-15T06:57:24Z</time>
      </trkpt>
      <trkpt lat="46.65766" lon="5.78179">
        <ele>534.63</ele>
        <time>2019-06-15T06:57:33Z</time>
      </trkpt>
      <trkpt lat="46.65768" lon="5.7818">
        <ele>534.63</ele>
        <time>2019-06-15T06:57:34Z</time>
      </trkpt>
      <trkpt lat="46.65769" lon="5.78181">
        <ele>535.11</ele>
        <time>2019-06-15T06:57:35Z</time>
      </trkpt>
      <trkpt lat="46.6577" lon="5.78182">
        <ele>534.63</ele>
        <time>2019-06-15T06:57:36Z</time>
      </trkpt>
      <trkpt lat="46.65777" lon="5.78184">
        <ele>534.63</ele>
        <time>2019-06-15T06:57:39Z</time>
      </trkpt>
      <trkpt lat="46.65788" lon="5.78181">
        <ele>535.11</ele>
        <time>2019-06-15T06:57:46Z</time>
      </trkpt>
      <trkpt lat="46.65789" lon="5.78191">
        <ele>535.11</ele>
        <time>2019-06-15T06:57:49Z</time>
      </trkpt>
      <trkpt lat="46.65791" lon="5.78194">
        <ele>535.11</ele>
        <time>2019-06-15T06:57:50Z</time>
      </trkpt>
      <trkpt lat="46.65791" lon="5.78198">
        <ele>535.11</ele>
        <time>2019-06-15T06:57:51Z</time>
      </trkpt>
      <trkpt lat="46.65793" lon="5.78199">
        <ele>534.63</ele>
        <time>2019-06-15T06:57:53Z</time>
      </trkpt>
      <trkpt lat="46.65793" lon="5.78202">
        <ele>534.63</ele>
        <time>2019-06-15T06:57:54Z</time>
      </trkpt>
      <trkpt lat="46.65796" lon="5.78207">
        <ele>534.63</ele>
        <time>2019-06-15T06:57:57Z</time>
      </trkpt>
      <trkpt lat="46.65796" lon="5.7821">
        <ele>535.11</ele>
        <time>2019-06-15T06:57:58Z</time>
      </trkpt>
      <trkpt lat="46.658" lon="5.78213">
        <ele>534.63</ele>
        <time>2019-06-15T06:58:00Z</time>
      </trkpt>
      <trkpt lat="46.65804" lon="5.78217">
        <ele>534.63</ele>
        <time>2019-06-15T06:58:04Z</time>
      </trkpt>
      <trkpt lat="46.65809" lon="5.78224">
        <ele>534.63</ele>
        <time>2019-06-15T06:58:07Z</time>
      </trkpt>
      <trkpt lat="46.65828" lon="5.78235">
        <ele>533.67</ele>
        <time>2019-06-15T06:58:20Z</time>
      </trkpt>
      <trkpt lat="46.65834" lon="5.7824">
        <ele>533.67</ele>
        <time>2019-06-15T06:58:25Z</time>
      </trkpt>
      <trkpt lat="46.65842" lon="5.78244">
        <ele>532.71</ele>
        <time>2019-06-15T06:58:33Z</time>
      </trkpt>
      <trkpt lat="46.65843" lon="5.7825">
        <ele>532.23</ele>
        <time>2019-06-15T06:58:36Z</time>
      </trkpt>
      <trkpt lat="46.65851" lon="5.78253">
        <ele>532.23</ele>
        <time>2019-06-15T06:58:51Z</time>
      </trkpt>
      <trkpt lat="46.65854" lon="5.78253">
        <ele>531.75</ele>
        <time>2019-06-15T06:59:07Z</time>
      </trkpt>
      <trkpt lat="46.65854" lon="5.78254">
        <ele>531.75</ele>
        <time>2019-06-15T06:59:28Z</time>
      </trkpt>
      <trkpt lat="46.65854" lon="5.78253">
        <ele>531.75</ele>
        <time>2019-06-15T06:59:42Z</time>
      </trkpt>
      <trkpt lat="46.65858" lon="5.78248">
        <ele>530.3</ele>
        <time>2019-06-15T06:59:51Z</time>
      </trkpt>
      <trkpt lat="46.65858" lon="5.78238">
        <ele>528.38</ele>
        <time>2019-06-15T07:00:03Z</time>
      </trkpt>
      <trkpt lat="46.6586" lon="5.78232">
        <ele>528.38</ele>
        <time>2019-06-15T07:00:09Z</time>
      </trkpt>
      <trkpt lat="46.6587" lon="5.78243">
        <ele>528.38</ele>
        <time>2019-06-15T07:00:23Z</time>
      </trkpt>
      <trkpt lat="46.65873" lon="5.78257">
        <ele>527.9</ele>
        <time>2019-06-15T07:00:30Z</time>
      </trkpt>
      <trkpt lat="46.65876" lon="5.78261">
        <ele>527.42</ele>
        <time>2019-06-15T07:00:33Z</time>
      </trkpt>
      <trkpt lat="46.65877" lon="5.78261">
        <ele>527.42</ele>
        <time>2019-06-15T07:00:34Z</time>
      </trkpt>
      <trkpt lat="46.65878" lon="5.78269">
        <ele>527.9</ele>
        <time>2019-06-15T07:00:37Z</time>
      </trkpt>
      <trkpt lat="46.65881" lon="5.78277">
        <ele>526.94</ele>
        <time>2019-06-15T07:00:42Z</time>
      </trkpt>
      <trkpt lat="46.65883" lon="5.78285">
        <ele>526.94</ele>
        <time>2019-06-15T07:00:46Z</time>
      </trkpt>
      <trkpt lat="46.65884" lon="5.78289">
        <ele>526.46</ele>
        <time>2019-06-15T07:00:48Z</time>
      </trkpt>
      <trkpt lat="46.65891" lon="5.78308">
        <ele>525.5</ele>
        <time>2019-06-15T07:00:59Z</time>
      </trkpt>
      <trkpt lat="46.65894" lon="5.7831">
        <ele>525.5</ele>
        <time>2019-06-15T07:01:01Z</time>
      </trkpt>
      <trkpt lat="46.65901" lon="5.78325">
        <ele>524.54</ele>
        <time>2019-06-15T07:01:09Z</time>
      </trkpt>
      <trkpt lat="46.65905" lon="5.78331">
        <ele>524.54</ele>
        <time>2019-06-15T07:01:14Z</time>
      </trkpt>
      <trkpt lat="46.6591" lon="5.78344">
        <ele>524.06</ele>
        <time>2019-06-15T07:01:19Z</time>
      </trkpt>
      <trkpt lat="46.65913" lon="5.78354">
        <ele>523.58</ele>
        <time>2019-06-15T07:01:24Z</time>
      </trkpt>
      <trkpt lat="46.65923" lon="5.78364">
        <ele>523.09</ele>
        <time>2019-06-15T07:01:32Z</time>
      </trkpt>
      <trkpt lat="46.65927" lon="5.78366">
        <ele>523.09</ele>
        <time>2019-06-15T07:01:35Z</time>
      </trkpt>
      <trkpt lat="46.65939" lon="5.78377">
        <ele>523.09</ele>
        <time>2019-06-15T07:01:47Z</time>
      </trkpt>
      <trkpt lat="46.65946" lon="5.7837">
        <ele>522.61</ele>
        <time>2019-06-15T07:01:54Z</time>
      </trkpt>
      <trkpt lat="46.65951" lon="5.78361">
        <ele>522.13</ele>
        <time>2019-06-15T07:01:59Z</time>
      </trkpt>
      <trkpt lat="46.6596" lon="5.78348">
        <ele>521.65</ele>
        <time>2019-06-15T07:02:08Z</time>
      </trkpt>
      <trkpt lat="46.65964" lon="5.78342">
        <ele>521.17</ele>
        <time>2019-06-15T07:02:12Z</time>
      </trkpt>
      <trkpt lat="46.65976" lon="5.78324">
        <ele>520.69</ele>
        <time>2019-06-15T07:02:25Z</time>
      </trkpt>
      <trkpt lat="46.65984" lon="5.78309">
        <ele>521.17</ele>
        <time>2019-06-15T07:02:36Z</time>
      </trkpt>
      <trkpt lat="46.65996" lon="5.7829">
        <ele>520.69</ele>
        <time>2019-06-15T07:02:49Z</time>
      </trkpt>
      <trkpt lat="46.66006" lon="5.78275">
        <ele>520.21</ele>
        <time>2019-06-15T07:03:00Z</time>
      </trkpt>
      <trkpt lat="46.66015" lon="5.78267">
        <ele>520.21</ele>
        <time>2019-06-15T07:03:08Z</time>
      </trkpt>
      <trkpt lat="46.66031" lon="5.78254">
        <ele>519.73</ele>
        <time>2019-06-15T07:03:21Z</time>
      </trkpt>
      <trkpt lat="46.66047" lon="5.78243">
        <ele>519.73</ele>
        <time>2019-06-15T07:03:34Z</time>
      </trkpt>
      <trkpt lat="46.66062" lon="5.78231">
        <ele>519.73</ele>
        <time>2019-06-15T07:03:46Z</time>
      </trkpt>
      <trkpt lat="46.6608" lon="5.78217">
        <ele>519.73</ele>
        <time>2019-06-15T07:04:01Z</time>
      </trkpt>
      <trkpt lat="46.66083" lon="5.78214">
        <ele>519.73</ele>
        <time>2019-06-15T07:04:04Z</time>
      </trkpt>
      <trkpt lat="46.66098" lon="5.78203">
        <ele>519.73</ele>
        <time>2019-06-15T07:04:17Z</time>
      </trkpt>
      <trkpt lat="46.6611" lon="5.78193">
        <ele>519.73</ele>
        <time>2019-06-15T07:04:28Z</time>
      </trkpt>
      <trkpt lat="46.66114" lon="5.7819">
        <ele>519.73</ele>
        <time>2019-06-15T07:04:31Z</time>
      </trkpt>
      <trkpt lat="46.6613" lon="5.7818">
        <ele>519.73</ele>
        <time>2019-06-15T07:04:44Z</time>
      </trkpt>
      <trkpt lat="46.66131" lon="5.78179">
        <ele>519.73</ele>
        <time>2019-06-15T07:04:45Z</time>
      </trkpt>
      <trkpt lat="46.66136" lon="5.78177">
        <ele>520.21</ele>
        <time>2019-06-15T07:04:50Z</time>
      </trkpt>
      <trkpt lat="46.66144" lon="5.78164">
        <ele>520.21</ele>
        <time>2019-06-15T07:04:59Z</time>
      </trkpt>
      <trkpt lat="46.66146" lon="5.78158">
        <ele>520.21</ele>
        <time>2019-06-15T07:05:02Z</time>
      </trkpt>
      <trkpt lat="46.66148" lon="5.78152">
        <ele>520.21</ele>
        <time>2019-06-15T07:05:05Z</time>
      </trkpt>
      <trkpt lat="46.66148" lon="5.78144">
        <ele>520.69</ele>
        <time>2019-06-15T07:05:09Z</time>
      </trkpt>
      <trkpt lat="46.66149" lon="5.78135">
        <ele>521.17</ele>
        <time>2019-06-15T07:05:14Z</time>
      </trkpt>
      <trkpt lat="46.66149" lon="5.78118">
        <ele>521.65</ele>
        <time>2019-06-15T07:05:24Z</time>
      </trkpt>
      <trkpt lat="46.66149" lon="5.78114">
        <ele>522.13</ele>
        <time>2019-06-15T07:05:27Z</time>
      </trkpt>
      <trkpt lat="46.6615" lon="5.7811">
        <ele>522.61</ele>
        <time>2019-06-15T07:05:29Z</time>
      </trkpt>
      <trkpt lat="46.6615" lon="5.78095">
        <ele>523.09</ele>
        <time>2019-06-15T07:05:39Z</time>
      </trkpt>
      <trkpt lat="46.6615" lon="5.7809">
        <ele>523.09</ele>
        <time>2019-06-15T07:05:42Z</time>
      </trkpt>
      <trkpt lat="46.66149" lon="5.78084">
        <ele>524.06</ele>
        <time>2019-06-15T07:05:46Z</time>
      </trkpt>
      <trkpt lat="46.66149" lon="5.7808">
        <ele>524.06</ele>
        <time>2019-06-15T07:05:48Z</time>
      </trkpt>
      <trkpt lat="46.66149" lon="5.78072">
        <ele>524.06</ele>
        <time>2019-06-15T07:05:53Z</time>
      </trkpt>
      <trkpt lat="46.66147" lon="5.78048">
        <ele>524.54</ele>
        <time>2019-06-15T07:06:06Z</time>
      </trkpt>
      <trkpt lat="46.66147" lon="5.78045">
        <ele>524.06</ele>
        <time>2019-06-15T07:06:08Z</time>
      </trkpt>
      <trkpt lat="46.66147" lon="5.78029">
        <ele>524.06</ele>
        <time>2019-06-15T07:06:17Z</time>
      </trkpt>
      <trkpt lat="46.66149" lon="5.78015">
        <ele>523.58</ele>
        <time>2019-06-15T07:06:25Z</time>
      </trkpt>
      <trkpt lat="46.66149" lon="5.78009">
        <ele>524.06</ele>
        <time>2019-06-15T07:06:28Z</time>
      </trkpt>
      <trkpt lat="46.66147" lon="5.77981">
        <ele>523.58</ele>
        <time>2019-06-15T07:06:42Z</time>
      </trkpt>
      <trkpt lat="46.66149" lon="5.77967">
        <ele>523.58</ele>
        <time>2019-06-15T07:06:49Z</time>
      </trkpt>
      <trkpt lat="46.66148" lon="5.77954">
        <ele>523.58</ele>
        <time>2019-06-15T07:06:56Z</time>
      </trkpt>
      <trkpt lat="46.66149" lon="5.77947">
        <ele>523.09</ele>
        <time>2019-06-15T07:07:00Z</time>
      </trkpt>
      <trkpt lat="46.66147" lon="5.77937">
        <ele>523.09</ele>
        <time>2019-06-15T07:07:04Z</time>
      </trkpt>
      <trkpt lat="46.66148" lon="5.77925">
        <ele>523.58</ele>
        <time>2019-06-15T07:07:10Z</time>
      </trkpt>
      <trkpt lat="46.66147" lon="5.77906">
        <ele>523.58</ele>
        <time>2019-06-15T07:07:21Z</time>
      </trkpt>
      <trkpt lat="46.66147" lon="5.77896">
        <ele>523.58</ele>
        <time>2019-06-15T07:07:26Z</time>
      </trkpt>
      <trkpt lat="46.66149" lon="5.77878">
        <ele>523.58</ele>
        <time>2019-06-15T07:07:36Z</time>
      </trkpt>
      <trkpt lat="46.66151" lon="5.7786">
        <ele>524.06</ele>
        <time>2019-06-15T07:07:46Z</time>
      </trkpt>
      <trkpt lat="46.66152" lon="5.77851">
        <ele>524.06</ele>
        <time>2019-06-15T07:07:51Z</time>
      </trkpt>
      <trkpt lat="46.66152" lon="5.77835">
        <ele>524.06</ele>
        <time>2019-06-15T07:07:59Z</time>
      </trkpt>
      <trkpt lat="46.66153" lon="5.77826">
        <ele>523.58</ele>
        <time>2019-06-15T07:08:05Z</time>
      </trkpt>
      <trkpt lat="46.66153" lon="5.77805">
        <ele>523.58</ele>
        <time>2019-06-15T07:08:15Z</time>
      </trkpt>
      <trkpt lat="46.66155" lon="5.77784">
        <ele>523.58</ele>
        <time>2019-06-15T07:08:26Z</time>
      </trkpt>
      <trkpt lat="46.66156" lon="5.77775">
        <ele>523.09</ele>
        <time>2019-06-15T07:08:31Z</time>
      </trkpt>
      <trkpt lat="46.66159" lon="5.7776">
        <ele>523.09</ele>
        <time>2019-06-15T07:08:39Z</time>
      </trkpt>
      <trkpt lat="46.66163" lon="5.77738">
        <ele>522.61</ele>
        <time>2019-06-15T07:08:51Z</time>
      </trkpt>
      <trkpt lat="46.66165" lon="5.77728">
        <ele>522.61</ele>
        <time>2019-06-15T07:08:56Z</time>
      </trkpt>
      <trkpt lat="46.66169" lon="5.77714">
        <ele>522.61</ele>
        <time>2019-06-15T07:09:04Z</time>
      </trkpt>
      <trkpt lat="46.66173" lon="5.7769">
        <ele>522.13</ele>
        <time>2019-06-15T07:09:16Z</time>
      </trkpt>
      <trkpt lat="46.66174" lon="5.77681">
        <ele>522.13</ele>
        <time>2019-06-15T07:09:21Z</time>
      </trkpt>
      <trkpt lat="46.66168" lon="5.77663">
        <ele>521.65</ele>
        <time>2019-06-15T07:09:32Z</time>
      </trkpt>
      <trkpt lat="46.66162" lon="5.77651">
        <ele>521.65</ele>
        <time>2019-06-15T07:09:40Z</time>
      </trkpt>
      <trkpt lat="46.6615" lon="5.77631">
        <ele>522.13</ele>
        <time>2019-06-15T07:09:53Z</time>
      </trkpt>
      <trkpt lat="46.66139" lon="5.77614">
        <ele>522.61</ele>
        <time>2019-06-15T07:10:05Z</time>
      </trkpt>
      <trkpt lat="46.66129" lon="5.77598">
        <ele>523.58</ele>
        <time>2019-06-15T07:10:17Z</time>
      </trkpt>
      <trkpt lat="46.66121" lon="5.77584">
        <ele>524.54</ele>
        <time>2019-06-15T07:10:28Z</time>
      </trkpt>
      <trkpt lat="46.66118" lon="5.77579">
        <ele>524.06</ele>
        <time>2019-06-15T07:10:32Z</time>
      </trkpt>
      <trkpt lat="46.66109" lon="5.77561">
        <ele>524.54</ele>
        <time>2019-06-15T07:10:45Z</time>
      </trkpt>
      <trkpt lat="46.66113" lon="5.77554">
        <ele>523.58</ele>
        <time>2019-06-15T07:10:54Z</time>
      </trkpt>
      <trkpt lat="46.66121" lon="5.77548">
        <ele>524.06</ele>
        <time>2019-06-15T07:11:01Z</time>
      </trkpt>
      <trkpt lat="46.6613" lon="5.77539">
        <ele>524.54</ele>
        <time>2019-06-15T07:11:13Z</time>
      </trkpt>
      <trkpt lat="46.66136" lon="5.77537">
        <ele>523.58</ele>
        <time>2019-06-15T07:11:28Z</time>
      </trkpt>
      <trkpt lat="46.66137" lon="5.77536">
        <ele>524.06</ele>
        <time>2019-06-15T07:11:43Z</time>
      </trkpt>
      <trkpt lat="46.66137" lon="5.77536">
        <ele>524.06</ele>
        <time>2019-06-15T07:12:01Z</time>
      </trkpt>
      <trkpt lat="46.66137" lon="5.77536">
        <ele>524.06</ele>
        <time>2019-06-15T07:12:24Z</time>
      </trkpt>
      <trkpt lat="46.66137" lon="5.77536">
        <ele>524.54</ele>
        <time>2019-06-15T07:12:48Z</time>
      </trkpt>
      <trkpt lat="46.66139" lon="5.77533">
        <ele>525.02</ele>
        <time>2019-06-15T07:13:09Z</time>
      </trkpt>
      <trkpt lat="46.66139" lon="5.77532">
        <ele>525.02</ele>
        <time>2019-06-15T07:13:10Z</time>
      </trkpt>
      <trkpt lat="46.66149" lon="5.77525">
        <ele>525.02</ele>
        <time>2019-06-15T07:13:22Z</time>
      </trkpt>
      <trkpt lat="46.66153" lon="5.77519">
        <ele>525.02</ele>
        <time>2019-06-15T07:13:27Z</time>
      </trkpt>
      <trkpt lat="46.6616" lon="5.77513">
        <ele>525.02</ele>
        <time>2019-06-15T07:13:35Z</time>
      </trkpt>
      <trkpt lat="46.66175" lon="5.77499">
        <ele>525.02</ele>
        <time>2019-06-15T07:13:49Z</time>
      </trkpt>
      <trkpt lat="46.66182" lon="5.77492">
        <ele>525.02</ele>
        <time>2019-06-15T07:13:56Z</time>
      </trkpt>
      <trkpt lat="46.66199" lon="5.77476">
        <ele>525.02</ele>
        <time>2019-06-15T07:14:12Z</time>
      </trkpt>
      <trkpt lat="46.66208" lon="5.77466">
        <ele>524.54</ele>
        <time>2019-06-15T07:14:25Z</time>
      </trkpt>
      <trkpt lat="46.66223" lon="5.77451">
        <ele>524.54</ele>
        <time>2019-06-15T07:14:39Z</time>
      </trkpt>
      <trkpt lat="46.66236" lon="5.77438">
        <ele>524.54</ele>
        <time>2019-06-15T07:14:52Z</time>
      </trkpt>
      <trkpt lat="46.66248" lon="5.7743">
        <ele>524.54</ele>
        <time>2019-06-15T07:15:04Z</time>
      </trkpt>
      <trkpt lat="46.66263" lon="5.77415">
        <ele>524.06</ele>
        <time>2019-06-15T07:15:18Z</time>
      </trkpt>
      <trkpt lat="46.66276" lon="5.77402">
        <ele>524.54</ele>
        <time>2019-06-15T07:15:30Z</time>
      </trkpt>
      <trkpt lat="46.66292" lon="5.77389">
        <ele>524.06</ele>
        <time>2019-06-15T07:15:43Z</time>
      </trkpt>
      <trkpt lat="46.66307" lon="5.77374">
        <ele>524.54</ele>
        <time>2019-06-15T07:15:57Z</time>
      </trkpt>
      <trkpt lat="46.66308" lon="5.77372">
        <ele>524.06</ele>
        <time>2019-06-15T07:15:58Z</time>
      </trkpt>
      <trkpt lat="46.66323" lon="5.7736">
        <ele>524.06</ele>
        <time>2019-06-15T07:16:11Z</time>
      </trkpt>
      <trkpt lat="46.66338" lon="5.77345">
        <ele>524.06</ele>
        <time>2019-06-15T07:16:25Z</time>
      </trkpt>
      <trkpt lat="46.66355" lon="5.77331">
        <ele>524.54</ele>
        <time>2019-06-15T07:16:39Z</time>
      </trkpt>
      <trkpt lat="46.66371" lon="5.77317">
        <ele>524.54</ele>
        <time>2019-06-15T07:16:53Z</time>
      </trkpt>
      <trkpt lat="46.66384" lon="5.77305">
        <ele>525.02</ele>
        <time>2019-06-15T07:17:05Z</time>
      </trkpt>
      <trkpt lat="46.66396" lon="5.77295">
        <ele>524.54</ele>
        <time>2019-06-15T07:17:16Z</time>
      </trkpt>
      <trkpt lat="46.6641" lon="5.77282">
        <ele>524.54</ele>
        <time>2019-06-15T07:17:29Z</time>
      </trkpt>
      <trkpt lat="46.66422" lon="5.77273">
        <ele>524.54</ele>
        <time>2019-06-15T07:17:39Z</time>
      </trkpt>
      <trkpt lat="46.66438" lon="5.77259">
        <ele>524.54</ele>
        <time>2019-06-15T07:17:52Z</time>
      </trkpt>
      <trkpt lat="46.66452" lon="5.77246">
        <ele>524.06</ele>
        <time>2019-06-15T07:18:04Z</time>
      </trkpt>
      <trkpt lat="46.66461" lon="5.77238">
        <ele>524.06</ele>
        <time>2019-06-15T07:18:15Z</time>
      </trkpt>
      <trkpt lat="46.66471" lon="5.77228">
        <ele>523.58</ele>
        <time>2019-06-15T07:18:26Z</time>
      </trkpt>
      <trkpt lat="46.66476" lon="5.77224">
        <ele>523.58</ele>
        <time>2019-06-15T07:18:30Z</time>
      </trkpt>
      <trkpt lat="46.6649" lon="5.77207">
        <ele>522.61</ele>
        <time>2019-06-15T07:18:44Z</time>
      </trkpt>
      <trkpt lat="46.66505" lon="5.77186">
        <ele>521.65</ele>
        <time>2019-06-15T07:18:58Z</time>
      </trkpt>
      <trkpt lat="46.6651" lon="5.77172">
        <ele>521.17</ele>
        <time>2019-06-15T07:19:07Z</time>
      </trkpt>
      <trkpt lat="46.66515" lon="5.77163">
        <ele>520.69</ele>
        <time>2019-06-15T07:19:13Z</time>
      </trkpt>
      <trkpt lat="46.66516" lon="5.77155">
        <ele>520.69</ele>
        <time>2019-06-15T07:19:17Z</time>
      </trkpt>
      <trkpt lat="46.66519" lon="5.7714">
        <ele>519.73</ele>
        <time>2019-06-15T07:19:25Z</time>
      </trkpt>
      <trkpt lat="46.66525" lon="5.77116">
        <ele>519.25</ele>
        <time>2019-06-15T07:19:40Z</time>
      </trkpt>
      <trkpt lat="46.6653" lon="5.77092">
        <ele>518.29</ele>
        <time>2019-06-15T07:19:52Z</time>
      </trkpt>
      <trkpt lat="46.66533" lon="5.77077">
        <ele>518.29</ele>
        <time>2019-06-15T07:19:59Z</time>
      </trkpt>
      <trkpt lat="46.66538" lon="5.77058">
        <ele>517.33</ele>
        <time>2019-06-15T07:20:12Z</time>
      </trkpt>
      <trkpt lat="46.66539" lon="5.77056">
        <ele>517.33</ele>
        <time>2019-06-15T07:20:13Z</time>
      </trkpt>
      <trkpt lat="46.66541" lon="5.77047">
        <ele>517.33</ele>
        <time>2019-06-15T07:20:18Z</time>
      </trkpt>
      <trkpt lat="46.66547" lon="5.77028">
        <ele>515.88</ele>
        <time>2019-06-15T07:20:28Z</time>
      </trkpt>
      <trkpt lat="46.66556" lon="5.77003">
        <ele>515.4</ele>
        <time>2019-06-15T07:20:42Z</time>
      </trkpt>
      <trkpt lat="46.66562" lon="5.76991">
        <ele>514.92</ele>
        <time>2019-06-15T07:20:49Z</time>
      </trkpt>
      <trkpt lat="46.66564" lon="5.76989">
        <ele>515.4</ele>
        <time>2019-06-15T07:20:51Z</time>
      </trkpt>
      <trkpt lat="46.66574" lon="5.76962">
        <ele>514.44</ele>
        <time>2019-06-15T07:21:06Z</time>
      </trkpt>
      <trkpt lat="46.66578" lon="5.7695">
        <ele>513.48</ele>
        <time>2019-06-15T07:21:13Z</time>
      </trkpt>
      <trkpt lat="46.6659" lon="5.76926">
        <ele>513.48</ele>
        <time>2019-06-15T07:21:26Z</time>
      </trkpt>
      <trkpt lat="46.66591" lon="5.76921">
        <ele>513</ele>
        <time>2019-06-15T07:21:28Z</time>
      </trkpt>
      <trkpt lat="46.66597" lon="5.76905">
        <ele>512.52</ele>
        <time>2019-06-15T07:21:37Z</time>
      </trkpt>
      <trkpt lat="46.66598" lon="5.769">
        <ele>512.52</ele>
        <time>2019-06-15T07:21:39Z</time>
      </trkpt>
      <trkpt lat="46.66608" lon="5.76878">
        <ele>512.04</ele>
        <time>2019-06-15T07:21:50Z</time>
      </trkpt>
      <trkpt lat="46.66609" lon="5.76876">
        <ele>511.56</ele>
        <time>2019-06-15T07:21:51Z</time>
      </trkpt>
      <trkpt lat="46.66612" lon="5.76868">
        <ele>511.56</ele>
        <time>2019-06-15T07:21:55Z</time>
      </trkpt>
      <trkpt lat="46.66613" lon="5.76865">
        <ele>511.56</ele>
        <time>2019-06-15T07:21:57Z</time>
      </trkpt>
      <trkpt lat="46.66617" lon="5.76855">
        <ele>511.08</ele>
        <time>2019-06-15T07:22:02Z</time>
      </trkpt>
      <trkpt lat="46.66625" lon="5.7684">
        <ele>510.6</ele>
        <time>2019-06-15T07:22:11Z</time>
      </trkpt>
      <trkpt lat="46.66627" lon="5.76832">
        <ele>510.6</ele>
        <time>2019-06-15T07:22:16Z</time>
      </trkpt>
      <trkpt lat="46.6663" lon="5.76826">
        <ele>510.12</ele>
        <time>2019-06-15T07:22:19Z</time>
      </trkpt>
      <trkpt lat="46.66636" lon="5.76811">
        <ele>510.12</ele>
        <time>2019-06-15T07:22:27Z</time>
      </trkpt>
      <trkpt lat="46.66647" lon="5.76788">
        <ele>508.67</ele>
        <time>2019-06-15T07:22:41Z</time>
      </trkpt>
      <trkpt lat="46.6665" lon="5.76781">
        <ele>508.19</ele>
        <time>2019-06-15T07:22:45Z</time>
      </trkpt>
      <trkpt lat="46.66655" lon="5.76773">
        <ele>508.19</ele>
        <time>2019-06-15T07:22:51Z</time>
      </trkpt>
      <trkpt lat="46.66674" lon="5.76754">
        <ele>507.23</ele>
        <time>2019-06-15T07:23:06Z</time>
      </trkpt>
      <trkpt lat="46.66692" lon="5.76742">
        <ele>506.27</ele>
        <time>2019-06-15T07:23:20Z</time>
      </trkpt>
      <trkpt lat="46.66711" lon="5.76736">
        <ele>505.31</ele>
        <time>2019-06-15T07:23:34Z</time>
      </trkpt>
      <trkpt lat="46.66731" lon="5.76735">
        <ele>504.35</ele>
        <time>2019-06-15T07:23:49Z</time>
      </trkpt>
      <trkpt lat="46.66749" lon="5.7674">
        <ele>503.87</ele>
        <time>2019-06-15T07:24:02Z</time>
      </trkpt>
      <trkpt lat="46.66769" lon="5.7675">
        <ele>502.43</ele>
        <time>2019-06-15T07:24:17Z</time>
      </trkpt>
      <trkpt lat="46.66787" lon="5.76758">
        <ele>501.95</ele>
        <time>2019-06-15T07:24:30Z</time>
      </trkpt>
      <trkpt lat="46.66808" lon="5.76767">
        <ele>500.98</ele>
        <time>2019-06-15T07:24:46Z</time>
      </trkpt>
      <trkpt lat="46.66826" lon="5.76778">
        <ele>500.5</ele>
        <time>2019-06-15T07:24:59Z</time>
      </trkpt>
      <trkpt lat="46.66845" lon="5.76794">
        <ele>499.54</ele>
        <time>2019-06-15T07:25:15Z</time>
      </trkpt>
      <trkpt lat="46.66846" lon="5.76798">
        <ele>499.54</ele>
        <time>2019-06-15T07:25:27Z</time>
      </trkpt>
      <trkpt lat="46.66845" lon="5.76799">
        <ele>499.54</ele>
        <time>2019-06-15T07:25:43Z</time>
      </trkpt>
      <trkpt lat="46.66845" lon="5.76798">
        <ele>499.54</ele>
        <time>2019-06-15T07:25:55Z</time>
      </trkpt>
      <trkpt lat="46.66845" lon="5.76799">
        <ele>499.06</ele>
        <time>2019-06-15T07:26:06Z</time>
      </trkpt>
      <trkpt lat="46.66845" lon="5.76798">
        <ele>499.54</ele>
        <time>2019-06-15T07:26:35Z</time>
      </trkpt>
      <trkpt lat="46.66846" lon="5.76797">
        <ele>500.02</ele>
        <time>2019-06-15T07:27:01Z</time>
      </trkpt>
      <trkpt lat="46.66846" lon="5.76796">
        <ele>507.71</ele>
        <time>2019-06-15T07:27:03Z</time>
      </trkpt>
      <trkpt lat="46.66846" lon="5.76796">
        <ele>500.02</ele>
        <time>2019-06-15T07:27:04Z</time>
      </trkpt>
      <trkpt lat="46.66846" lon="5.76796">
        <ele>493.77</ele>
        <time>2019-06-15T07:27:08Z</time>
      </trkpt>
      <trkpt lat="46.66846" lon="5.76796">
        <ele>495.7</ele>
        <time>2019-06-15T07:27:09Z</time>
      </trkpt>
      <trkpt lat="46.66846" lon="5.76796">
        <ele>501.95</ele>
        <time>2019-06-15T07:27:10Z</time>
      </trkpt>
      <trkpt lat="46.66847" lon="5.76796">
        <ele>500.5</ele>
        <time>2019-06-15T07:27:14Z</time>
      </trkpt>
      <trkpt lat="46.66847" lon="5.76794">
        <ele>503.87</ele>
        <time>2019-06-15T07:27:25Z</time>
      </trkpt>
      <trkpt lat="46.66847" lon="5.76794">
        <ele>497.62</ele>
        <time>2019-06-15T07:27:26Z</time>
      </trkpt>
      <trkpt lat="46.66847" lon="5.76794">
        <ele>500.98</ele>
        <time>2019-06-15T07:27:27Z</time>
      </trkpt>
      <trkpt lat="46.66847" lon="5.76794">
        <ele>492.33</ele>
        <time>2019-06-15T07:27:34Z</time>
      </trkpt>
      <trkpt lat="46.66847" lon="5.76794">
        <ele>496.66</ele>
        <time>2019-06-15T07:27:35Z</time>
      </trkpt>
      <trkpt lat="46.66847" lon="5.76794">
        <ele>503.87</ele>
        <time>2019-06-15T07:27:36Z</time>
      </trkpt>
      <trkpt lat="46.66847" lon="5.76794">
        <ele>500.02</ele>
        <time>2019-06-15T07:27:37Z</time>
      </trkpt>
      <trkpt lat="46.66847" lon="5.76794">
        <ele>498.58</ele>
        <time>2019-06-15T07:27:42Z</time>
      </trkpt>
      <trkpt lat="46.66847" lon="5.76794">
        <ele>502.91</ele>
        <time>2019-06-15T07:27:43Z</time>
      </trkpt>
      <trkpt lat="46.66847" lon="5.76794">
        <ele>501.95</ele>
        <time>2019-06-15T07:27:44Z</time>
      </trkpt>
      <trkpt lat="46.66847" lon="5.76794">
        <ele>511.08</ele>
        <time>2019-06-15T07:27:45Z</time>
      </trkpt>
      <trkpt lat="46.66847" lon="5.76794">
        <ele>502.43</ele>
        <time>2019-06-15T07:27:46Z</time>
      </trkpt>
      <trkpt lat="46.66847" lon="5.76794">
        <ele>498.1</ele>
        <time>2019-06-15T07:27:49Z</time>
      </trkpt>
      <trkpt lat="46.66847" lon="5.76794">
        <ele>502.43</ele>
        <time>2019-06-15T07:27:51Z</time>
      </trkpt>
      <trkpt lat="46.66847" lon="5.76794">
        <ele>500.5</ele>
        <time>2019-06-15T07:27:54Z</time>
      </trkpt>
      <trkpt lat="46.66847" lon="5.76795">
        <ele>499.54</ele>
        <time>2019-06-15T07:28:12Z</time>
      </trkpt>
      <trkpt lat="46.66849" lon="5.76795">
        <ele>500.02</ele>
        <time>2019-06-15T07:28:14Z</time>
      </trkpt>
      <trkpt lat="46.66858" lon="5.768">
        <ele>500.02</ele>
        <time>2019-06-15T07:28:21Z</time>
      </trkpt>
      <trkpt lat="46.66878" lon="5.76809">
        <ele>500.02</ele>
        <time>2019-06-15T07:28:36Z</time>
      </trkpt>
      <trkpt lat="46.669" lon="5.76817">
        <ele>499.54</ele>
        <time>2019-06-15T07:28:54Z</time>
      </trkpt>
      <trkpt lat="46.66927" lon="5.76826">
        <ele>499.54</ele>
        <time>2019-06-15T07:29:14Z</time>
      </trkpt>
      <trkpt lat="46.66954" lon="5.76835">
        <ele>498.58</ele>
        <time>2019-06-15T07:29:34Z</time>
      </trkpt>
      <trkpt lat="46.66979" lon="5.76844">
        <ele>498.58</ele>
        <time>2019-06-15T07:29:54Z</time>
      </trkpt>
      <trkpt lat="46.67007" lon="5.7685">
        <ele>497.62</ele>
        <time>2019-06-15T07:30:15Z</time>
      </trkpt>
      <trkpt lat="46.67032" lon="5.76857">
        <ele>498.1</ele>
        <time>2019-06-15T07:30:33Z</time>
      </trkpt>
      <trkpt lat="46.67063" lon="5.7687">
        <ele>497.62</ele>
        <time>2019-06-15T07:30:56Z</time>
      </trkpt>
      <trkpt lat="46.67087" lon="5.76879">
        <ele>497.62</ele>
        <time>2019-06-15T07:31:14Z</time>
      </trkpt>
      <trkpt lat="46.67111" lon="5.76889">
        <ele>497.62</ele>
        <time>2019-06-15T07:31:32Z</time>
      </trkpt>
      <trkpt lat="46.67137" lon="5.76898">
        <ele>497.14</ele>
        <time>2019-06-15T07:31:51Z</time>
      </trkpt>
      <trkpt lat="46.67165" lon="5.76909">
        <ele>497.14</ele>
        <time>2019-06-15T07:32:12Z</time>
      </trkpt>
      <trkpt lat="46.67191" lon="5.7692">
        <ele>497.14</ele>
        <time>2019-06-15T07:32:32Z</time>
      </trkpt>
      <trkpt lat="46.67218" lon="5.7693">
        <ele>496.18</ele>
        <time>2019-06-15T07:32:52Z</time>
      </trkpt>
      <trkpt lat="46.67242" lon="5.76941">
        <ele>496.66</ele>
        <time>2019-06-15T07:33:12Z</time>
      </trkpt>
      <trkpt lat="46.67267" lon="5.76956">
        <ele>496.18</ele>
        <time>2019-06-15T07:33:30Z</time>
      </trkpt>
      <trkpt lat="46.67277" lon="5.76963">
        <ele>496.18</ele>
        <time>2019-06-15T07:33:38Z</time>
      </trkpt>
      <trkpt lat="46.67293" lon="5.76981">
        <ele>496.66</ele>
        <time>2019-06-15T07:33:53Z</time>
      </trkpt>
      <trkpt lat="46.67308" lon="5.76999">
        <ele>496.18</ele>
        <time>2019-06-15T07:34:06Z</time>
      </trkpt>
      <trkpt lat="46.67322" lon="5.77017">
        <ele>496.18</ele>
        <time>2019-06-15T07:34:20Z</time>
      </trkpt>
      <trkpt lat="46.67338" lon="5.77038">
        <ele>495.7</ele>
        <time>2019-06-15T07:34:35Z</time>
      </trkpt>
      <trkpt lat="46.67353" lon="5.77056">
        <ele>496.18</ele>
        <time>2019-06-15T07:34:50Z</time>
      </trkpt>
      <trkpt lat="46.67369" lon="5.77077">
        <ele>495.7</ele>
        <time>2019-06-15T07:35:05Z</time>
      </trkpt>
      <trkpt lat="46.67384" lon="5.77098">
        <ele>495.7</ele>
        <time>2019-06-15T07:35:19Z</time>
      </trkpt>
      <trkpt lat="46.67398" lon="5.77117">
        <ele>495.7</ele>
        <time>2019-06-15T07:35:33Z</time>
      </trkpt>
      <trkpt lat="46.67413" lon="5.77137">
        <ele>495.22</ele>
        <time>2019-06-15T07:35:47Z</time>
      </trkpt>
      <trkpt lat="46.67429" lon="5.77157">
        <ele>495.22</ele>
        <time>2019-06-15T07:36:03Z</time>
      </trkpt>
      <trkpt lat="46.67443" lon="5.77176">
        <ele>495.22</ele>
        <time>2019-06-15T07:36:17Z</time>
      </trkpt>
      <trkpt lat="46.67456" lon="5.77194">
        <ele>494.74</ele>
        <time>2019-06-15T07:36:30Z</time>
      </trkpt>
      <trkpt lat="46.67471" lon="5.77213">
        <ele>495.22</ele>
        <time>2019-06-15T07:36:45Z</time>
      </trkpt>
      <trkpt lat="46.67489" lon="5.77236">
        <ele>494.26</ele>
        <time>2019-06-15T07:37:02Z</time>
      </trkpt>
      <trkpt lat="46.67504" lon="5.77255">
        <ele>494.74</ele>
        <time>2019-06-15T07:37:16Z</time>
      </trkpt>
      <trkpt lat="46.67509" lon="5.77263">
        <ele>494.74</ele>
        <time>2019-06-15T07:37:22Z</time>
      </trkpt>
      <trkpt lat="46.67514" lon="5.77268">
        <ele>495.22</ele>
        <time>2019-06-15T07:37:26Z</time>
      </trkpt>
      <trkpt lat="46.67529" lon="5.77288">
        <ele>494.74</ele>
        <time>2019-06-15T07:37:41Z</time>
      </trkpt>
      <trkpt lat="46.6754" lon="5.77303">
        <ele>494.74</ele>
        <time>2019-06-15T07:37:53Z</time>
      </trkpt>
      <trkpt lat="46.67553" lon="5.7732">
        <ele>494.74</ele>
        <time>2019-06-15T07:38:06Z</time>
      </trkpt>
      <trkpt lat="46.67566" lon="5.77336">
        <ele>494.74</ele>
        <time>2019-06-15T07:38:19Z</time>
      </trkpt>
      <trkpt lat="46.67578" lon="5.77353">
        <ele>495.22</ele>
        <time>2019-06-15T07:38:31Z</time>
      </trkpt>
      <trkpt lat="46.67591" lon="5.77369">
        <ele>495.7</ele>
        <time>2019-06-15T07:38:44Z</time>
      </trkpt>
      <trkpt lat="46.67604" lon="5.77386">
        <ele>495.22</ele>
        <time>2019-06-15T07:38:57Z</time>
      </trkpt>
      <trkpt lat="46.67618" lon="5.77408">
        <ele>495.7</ele>
        <time>2019-06-15T07:39:12Z</time>
      </trkpt>
      <trkpt lat="46.67628" lon="5.77426">
        <ele>495.7</ele>
        <time>2019-06-15T07:39:24Z</time>
      </trkpt>
      <trkpt lat="46.67633" lon="5.7744">
        <ele>495.7</ele>
        <time>2019-06-15T07:39:32Z</time>
      </trkpt>
      <trkpt lat="46.67635" lon="5.77442">
        <ele>496.18</ele>
        <time>2019-06-15T07:39:34Z</time>
      </trkpt>
      <trkpt lat="46.67643" lon="5.77464">
        <ele>496.18</ele>
        <time>2019-06-15T07:39:47Z</time>
      </trkpt>
      <trkpt lat="46.67643" lon="5.77468">
        <ele>496.18</ele>
        <time>2019-06-15T07:39:50Z</time>
      </trkpt>
      <trkpt lat="46.67646" lon="5.77476">
        <ele>496.18</ele>
        <time>2019-06-15T07:39:56Z</time>
      </trkpt>
      <trkpt lat="46.67647" lon="5.77484">
        <ele>496.18</ele>
        <time>2019-06-15T07:40:00Z</time>
      </trkpt>
      <trkpt lat="46.67649" lon="5.77509">
        <ele>495.7</ele>
        <time>2019-06-15T07:40:14Z</time>
      </trkpt>
      <trkpt lat="46.67649" lon="5.77511">
        <ele>495.7</ele>
        <time>2019-06-15T07:40:15Z</time>
      </trkpt>
      <trkpt lat="46.67653" lon="5.77528">
        <ele>495.22</ele>
        <time>2019-06-15T07:40:25Z</time>
      </trkpt>
      <trkpt lat="46.67655" lon="5.77534">
        <ele>495.7</ele>
        <time>2019-06-15T07:40:29Z</time>
      </trkpt>
      <trkpt lat="46.67659" lon="5.77549">
        <ele>495.7</ele>
        <time>2019-06-15T07:40:36Z</time>
      </trkpt>
      <trkpt lat="46.67662" lon="5.77561">
        <ele>494.74</ele>
        <time>2019-06-15T07:40:48Z</time>
      </trkpt>
      <trkpt lat="46.67662" lon="5.77571">
        <ele>493.77</ele>
        <time>2019-06-15T07:40:58Z</time>
      </trkpt>
      <trkpt lat="46.6766" lon="5.77579">
        <ele>494.26</ele>
        <time>2019-06-15T07:41:02Z</time>
      </trkpt>
      <trkpt lat="46.67654" lon="5.77604">
        <ele>492.81</ele>
        <time>2019-06-15T07:41:16Z</time>
      </trkpt>
      <trkpt lat="46.67652" lon="5.7761">
        <ele>492.81</ele>
        <time>2019-06-15T07:41:19Z</time>
      </trkpt>
      <trkpt lat="46.67649" lon="5.77619">
        <ele>492.81</ele>
        <time>2019-06-15T07:41:24Z</time>
      </trkpt>
      <trkpt lat="46.67642" lon="5.77646">
        <ele>491.85</ele>
        <time>2019-06-15T07:41:38Z</time>
      </trkpt>
      <trkpt lat="46.67636" lon="5.77671">
        <ele>491.37</ele>
        <time>2019-06-15T07:41:51Z</time>
      </trkpt>
      <trkpt lat="46.67634" lon="5.77678">
        <ele>490.89</ele>
        <time>2019-06-15T07:41:55Z</time>
      </trkpt>
      <trkpt lat="46.67633" lon="5.77682">
        <ele>491.37</ele>
        <time>2019-06-15T07:41:57Z</time>
      </trkpt>
      <trkpt lat="46.67635" lon="5.77695">
        <ele>491.37</ele>
        <time>2019-06-15T07:42:04Z</time>
      </trkpt>
      <trkpt lat="46.67642" lon="5.77716">
        <ele>490.89</ele>
        <time>2019-06-15T07:42:16Z</time>
      </trkpt>
      <trkpt lat="46.67648" lon="5.77738">
        <ele>490.89</ele>
        <time>2019-06-15T07:42:29Z</time>
      </trkpt>
      <trkpt lat="46.67654" lon="5.77757">
        <ele>490.89</ele>
        <time>2019-06-15T07:42:42Z</time>
      </trkpt>
      <trkpt lat="46.67656" lon="5.77762">
        <ele>491.37</ele>
        <time>2019-06-15T07:42:45Z</time>
      </trkpt>
      <trkpt lat="46.6767" lon="5.77785">
        <ele>491.37</ele>
        <time>2019-06-15T07:42:59Z</time>
      </trkpt>
      <trkpt lat="46.67677" lon="5.77804">
        <ele>491.85</ele>
        <time>2019-06-15T07:43:10Z</time>
      </trkpt>
      <trkpt lat="46.67683" lon="5.77825">
        <ele>491.85</ele>
        <time>2019-06-15T07:43:21Z</time>
      </trkpt>
      <trkpt lat="46.67686" lon="5.77834">
        <ele>491.85</ele>
        <time>2019-06-15T07:43:27Z</time>
      </trkpt>
      <trkpt lat="46.67689" lon="5.77845">
        <ele>491.85</ele>
        <time>2019-06-15T07:43:33Z</time>
      </trkpt>
      <trkpt lat="46.67697" lon="5.77869">
        <ele>491.85</ele>
        <time>2019-06-15T07:43:46Z</time>
      </trkpt>
      <trkpt lat="46.67705" lon="5.77891">
        <ele>492.33</ele>
        <time>2019-06-15T07:43:59Z</time>
      </trkpt>
      <trkpt lat="46.67705" lon="5.77895">
        <ele>492.33</ele>
        <time>2019-06-15T07:44:01Z</time>
      </trkpt>
      <trkpt lat="46.67713" lon="5.77922">
        <ele>492.33</ele>
        <time>2019-06-15T07:44:16Z</time>
      </trkpt>
      <trkpt lat="46.67712" lon="5.77924">
        <ele>492.81</ele>
        <time>2019-06-15T07:44:30Z</time>
      </trkpt>
      <trkpt lat="46.67712" lon="5.77924">
        <ele>492.81</ele>
        <time>2019-06-15T07:44:45Z</time>
      </trkpt>
      <trkpt lat="46.67712" lon="5.77924">
        <ele>493.29</ele>
        <time>2019-06-15T07:45:06Z</time>
      </trkpt>
      <trkpt lat="46.67712" lon="5.77923">
        <ele>493.29</ele>
        <time>2019-06-15T07:45:30Z</time>
      </trkpt>
      <trkpt lat="46.67712" lon="5.77922">
        <ele>492.81</ele>
        <time>2019-06-15T07:45:54Z</time>
      </trkpt>
      <trkpt lat="46.67711" lon="5.77922">
        <ele>493.29</ele>
        <time>2019-06-15T07:46:20Z</time>
      </trkpt>
      <trkpt lat="46.67711" lon="5.77923">
        <ele>493.29</ele>
        <time>2019-06-15T07:46:51Z</time>
      </trkpt>
      <trkpt lat="46.67711" lon="5.77923">
        <ele>493.29</ele>
        <time>2019-06-15T07:47:19Z</time>
      </trkpt>
      <trkpt lat="46.67711" lon="5.77923">
        <ele>493.29</ele>
        <time>2019-06-15T07:47:50Z</time>
      </trkpt>
      <trkpt lat="46.67712" lon="5.77923">
        <ele>493.29</ele>
        <time>2019-06-15T07:48:24Z</time>
      </trkpt>
      <trkpt lat="46.67712" lon="5.77923">
        <ele>493.29</ele>
        <time>2019-06-15T07:48:53Z</time>
      </trkpt>
      <trkpt lat="46.67713" lon="5.77926">
        <ele>493.29</ele>
        <time>2019-06-15T07:49:08Z</time>
      </trkpt>
      <trkpt lat="46.6772" lon="5.77945">
        <ele>493.77</ele>
        <time>2019-06-15T07:49:21Z</time>
      </trkpt>
      <trkpt lat="46.67726" lon="5.77967">
        <ele>495.7</ele>
        <time>2019-06-15T07:49:37Z</time>
      </trkpt>
      <trkpt lat="46.67732" lon="5.7798">
        <ele>495.22</ele>
        <time>2019-06-15T07:49:44Z</time>
      </trkpt>
      <trkpt lat="46.67737" lon="5.78002">
        <ele>494.74</ele>
        <time>2019-06-15T07:49:57Z</time>
      </trkpt>
      <trkpt lat="46.67737" lon="5.78007">
        <ele>494.74</ele>
        <time>2019-06-15T07:50:00Z</time>
      </trkpt>
      <trkpt lat="46.67738" lon="5.78019">
        <ele>494.26</ele>
        <time>2019-06-15T07:50:07Z</time>
      </trkpt>
      <trkpt lat="46.67751" lon="5.78028">
        <ele>494.74</ele>
        <time>2019-06-15T07:50:20Z</time>
      </trkpt>
      <trkpt lat="46.67766" lon="5.78031">
        <ele>494.26</ele>
        <time>2019-06-15T07:50:33Z</time>
      </trkpt>
      <trkpt lat="46.67781" lon="5.78029">
        <ele>494.26</ele>
        <time>2019-06-15T07:50:45Z</time>
      </trkpt>
      <trkpt lat="46.67791" lon="5.78025">
        <ele>494.74</ele>
        <time>2019-06-15T07:50:59Z</time>
      </trkpt>
      <trkpt lat="46.67793" lon="5.78024">
        <ele>494.26</ele>
        <time>2019-06-15T07:51:04Z</time>
      </trkpt>
      <trkpt lat="46.67798" lon="5.78022">
        <ele>494.26</ele>
        <time>2019-06-15T07:51:08Z</time>
      </trkpt>
      <trkpt lat="46.6781" lon="5.78013">
        <ele>494.74</ele>
        <time>2019-06-15T07:51:20Z</time>
      </trkpt>
      <trkpt lat="46.67817" lon="5.78009">
        <ele>495.22</ele>
        <time>2019-06-15T07:51:26Z</time>
      </trkpt>
      <trkpt lat="46.67837" lon="5.78006">
        <ele>495.22</ele>
        <time>2019-06-15T07:51:41Z</time>
      </trkpt>
      <trkpt lat="46.67856" lon="5.78003">
        <ele>494.74</ele>
        <time>2019-06-15T07:51:55Z</time>
      </trkpt>
      <trkpt lat="46.67878" lon="5.77998">
        <ele>494.74</ele>
        <time>2019-06-15T07:52:10Z</time>
      </trkpt>
      <trkpt lat="46.67893" lon="5.77995">
        <ele>494.74</ele>
        <time>2019-06-15T07:52:22Z</time>
      </trkpt>
      <trkpt lat="46.67908" lon="5.77991">
        <ele>494.74</ele>
        <time>2019-06-15T07:52:34Z</time>
      </trkpt>
      <trkpt lat="46.67918" lon="5.77988">
        <ele>494.74</ele>
        <time>2019-06-15T07:52:42Z</time>
      </trkpt>
      <trkpt lat="46.67933" lon="5.77985">
        <ele>494.74</ele>
        <time>2019-06-15T07:52:53Z</time>
      </trkpt>
      <trkpt lat="46.67944" lon="5.7799">
        <ele>494.74</ele>
        <time>2019-06-15T07:53:01Z</time>
      </trkpt>
      <trkpt lat="46.67951" lon="5.77991">
        <ele>494.74</ele>
        <time>2019-06-15T07:53:06Z</time>
      </trkpt>
      <trkpt lat="46.67961" lon="5.77988">
        <ele>493.77</ele>
        <time>2019-06-15T07:53:14Z</time>
      </trkpt>
      <trkpt lat="46.67981" lon="5.77975">
        <ele>493.29</ele>
        <time>2019-06-15T07:53:30Z</time>
      </trkpt>
      <trkpt lat="46.67992" lon="5.77967">
        <ele>492.81</ele>
        <time>2019-06-15T07:53:39Z</time>
      </trkpt>
      <trkpt lat="46.68" lon="5.77964">
        <ele>492.33</ele>
        <time>2019-06-15T07:53:45Z</time>
      </trkpt>
      <trkpt lat="46.68004" lon="5.7796">
        <ele>492.33</ele>
        <time>2019-06-15T07:53:48Z</time>
      </trkpt>
      <trkpt lat="46.68007" lon="5.77956">
        <ele>492.33</ele>
        <time>2019-06-15T07:53:51Z</time>
      </trkpt>
      <trkpt lat="46.68016" lon="5.77948">
        <ele>491.85</ele>
        <time>2019-06-15T07:53:59Z</time>
      </trkpt>
      <trkpt lat="46.68021" lon="5.77945">
        <ele>492.33</ele>
        <time>2019-06-15T07:54:03Z</time>
      </trkpt>
      <trkpt lat="46.68029" lon="5.77935">
        <ele>492.33</ele>
        <time>2019-06-15T07:54:11Z</time>
      </trkpt>
      <trkpt lat="46.68047" lon="5.77924">
        <ele>493.29</ele>
        <time>2019-06-15T07:54:25Z</time>
      </trkpt>
      <trkpt lat="46.68051" lon="5.77923">
        <ele>493.29</ele>
        <time>2019-06-15T07:54:28Z</time>
      </trkpt>
      <trkpt lat="46.68066" lon="5.77928">
        <ele>494.74</ele>
        <time>2019-06-15T07:54:40Z</time>
      </trkpt>
      <trkpt lat="46.68078" lon="5.77942">
        <ele>495.7</ele>
        <time>2019-06-15T07:54:53Z</time>
      </trkpt>
      <trkpt lat="46.68085" lon="5.77958">
        <ele>497.62</ele>
        <time>2019-06-15T07:55:06Z</time>
      </trkpt>
      <trkpt lat="46.68089" lon="5.77975">
        <ele>499.54</ele>
        <time>2019-06-15T07:55:20Z</time>
      </trkpt>
      <trkpt lat="46.68095" lon="5.77996">
        <ele>500.98</ele>
        <time>2019-06-15T07:55:34Z</time>
      </trkpt>
      <trkpt lat="46.68103" lon="5.78015">
        <ele>502.43</ele>
        <time>2019-06-15T07:55:48Z</time>
      </trkpt>
      <trkpt lat="46.68108" lon="5.78028">
        <ele>503.39</ele>
        <time>2019-06-15T07:55:58Z</time>
      </trkpt>
      <trkpt lat="46.68111" lon="5.78039">
        <ele>504.83</ele>
        <time>2019-06-15T07:56:08Z</time>
      </trkpt>
      <trkpt lat="46.68118" lon="5.78062">
        <ele>506.27</ele>
        <time>2019-06-15T07:56:22Z</time>
      </trkpt>
      <trkpt lat="46.6812" lon="5.78066">
        <ele>506.27</ele>
        <time>2019-06-15T07:56:24Z</time>
      </trkpt>
      <trkpt lat="46.68123" lon="5.7809">
        <ele>507.71</ele>
        <time>2019-06-15T07:56:37Z</time>
      </trkpt>
      <trkpt lat="46.68128" lon="5.78101">
        <ele>508.19</ele>
        <time>2019-06-15T07:56:46Z</time>
      </trkpt>
      <trkpt lat="46.68129" lon="5.78107">
        <ele>508.67</ele>
        <time>2019-06-15T07:56:49Z</time>
      </trkpt>
      <trkpt lat="46.68129" lon="5.78117">
        <ele>509.16</ele>
        <time>2019-06-15T07:56:54Z</time>
      </trkpt>
      <trkpt lat="46.6813" lon="5.78122">
        <ele>509.64</ele>
        <time>2019-06-15T07:56:57Z</time>
      </trkpt>
      <trkpt lat="46.68132" lon="5.78135">
        <ele>510.12</ele>
        <time>2019-06-15T07:57:05Z</time>
      </trkpt>
      <trkpt lat="46.68136" lon="5.78158">
        <ele>512.04</ele>
        <time>2019-06-15T07:57:19Z</time>
      </trkpt>
      <trkpt lat="46.68138" lon="5.7817">
        <ele>512.52</ele>
        <time>2019-06-15T07:57:27Z</time>
      </trkpt>
      <trkpt lat="46.68142" lon="5.78178">
        <ele>513</ele>
        <time>2019-06-15T07:57:33Z</time>
      </trkpt>
      <trkpt lat="46.68145" lon="5.78182">
        <ele>513.96</ele>
        <time>2019-06-15T07:57:37Z</time>
      </trkpt>
      <trkpt lat="46.68156" lon="5.78195">
        <ele>514.92</ele>
        <time>2019-06-15T07:57:50Z</time>
      </trkpt>
      <trkpt lat="46.68168" lon="5.78209">
        <ele>516.37</ele>
        <time>2019-06-15T07:58:03Z</time>
      </trkpt>
      <trkpt lat="46.68169" lon="5.78212">
        <ele>516.37</ele>
        <time>2019-06-15T07:58:05Z</time>
      </trkpt>
      <trkpt lat="46.6817" lon="5.78216">
        <ele>517.33</ele>
        <time>2019-06-15T07:58:08Z</time>
      </trkpt>
      <trkpt lat="46.68173" lon="5.78227">
        <ele>517.81</ele>
        <time>2019-06-15T07:58:16Z</time>
      </trkpt>
      <trkpt lat="46.68173" lon="5.78237">
        <ele>517.81</ele>
        <time>2019-06-15T07:58:21Z</time>
      </trkpt>
      <trkpt lat="46.6817" lon="5.78253">
        <ele>519.25</ele>
        <time>2019-06-15T07:58:30Z</time>
      </trkpt>
      <trkpt lat="46.68161" lon="5.78277">
        <ele>519.73</ele>
        <time>2019-06-15T07:58:44Z</time>
      </trkpt>
      <trkpt lat="46.68158" lon="5.78287">
        <ele>519.73</ele>
        <time>2019-06-15T07:58:49Z</time>
      </trkpt>
      <trkpt lat="46.68152" lon="5.78315">
        <ele>520.69</ele>
        <time>2019-06-15T07:59:04Z</time>
      </trkpt>
      <trkpt lat="46.68147" lon="5.78324">
        <ele>520.21</ele>
        <time>2019-06-15T07:59:16Z</time>
      </trkpt>
      <trkpt lat="46.68142" lon="5.78332">
        <ele>520.21</ele>
        <time>2019-06-15T07:59:32Z</time>
      </trkpt>
      <trkpt lat="46.68134" lon="5.78343">
        <ele>520.21</ele>
        <time>2019-06-15T07:59:42Z</time>
      </trkpt>
      <trkpt lat="46.68129" lon="5.78352">
        <ele>520.69</ele>
        <time>2019-06-15T07:59:50Z</time>
      </trkpt>
      <trkpt lat="46.68128" lon="5.78361">
        <ele>520.69</ele>
        <time>2019-06-15T07:59:56Z</time>
      </trkpt>
      <trkpt lat="46.68126" lon="5.78372">
        <ele>521.17</ele>
        <time>2019-06-15T08:00:02Z</time>
      </trkpt>
      <trkpt lat="46.6812" lon="5.78394">
        <ele>521.17</ele>
        <time>2019-06-15T08:00:14Z</time>
      </trkpt>
      <trkpt lat="46.68115" lon="5.78419">
        <ele>521.17</ele>
        <time>2019-06-15T08:00:25Z</time>
      </trkpt>
      <trkpt lat="46.68115" lon="5.78425">
        <ele>521.17</ele>
        <time>2019-06-15T08:00:28Z</time>
      </trkpt>
      <trkpt lat="46.68111" lon="5.78433">
        <ele>521.17</ele>
        <time>2019-06-15T08:00:34Z</time>
      </trkpt>
      <trkpt lat="46.68108" lon="5.78459">
        <ele>521.65</ele>
        <time>2019-06-15T08:00:48Z</time>
      </trkpt>
      <trkpt lat="46.68107" lon="5.78464">
        <ele>521.17</ele>
        <time>2019-06-15T08:00:51Z</time>
      </trkpt>
      <trkpt lat="46.68104" lon="5.78487">
        <ele>521.17</ele>
        <time>2019-06-15T08:01:03Z</time>
      </trkpt>
      <trkpt lat="46.68104" lon="5.78492">
        <ele>521.65</ele>
        <time>2019-06-15T08:01:06Z</time>
      </trkpt>
      <trkpt lat="46.68102" lon="5.78516">
        <ele>521.17</ele>
        <time>2019-06-15T08:01:20Z</time>
      </trkpt>
      <trkpt lat="46.68101" lon="5.78536">
        <ele>522.13</ele>
        <time>2019-06-15T08:01:32Z</time>
      </trkpt>
      <trkpt lat="46.68104" lon="5.78557">
        <ele>521.65</ele>
        <time>2019-06-15T08:01:44Z</time>
      </trkpt>
      <trkpt lat="46.68105" lon="5.78565">
        <ele>521.65</ele>
        <time>2019-06-15T08:01:48Z</time>
      </trkpt>
      <trkpt lat="46.68104" lon="5.78574">
        <ele>521.17</ele>
        <time>2019-06-15T08:02:03Z</time>
      </trkpt>
      <trkpt lat="46.68104" lon="5.78574">
        <ele>521.17</ele>
        <time>2019-06-15T08:02:09Z</time>
      </trkpt>
      <trkpt lat="46.681" lon="5.78597">
        <ele>519.25</ele>
        <time>2019-06-15T08:02:23Z</time>
      </trkpt>
      <trkpt lat="46.68099" lon="5.786">
        <ele>519.25</ele>
        <time>2019-06-15T08:02:25Z</time>
      </trkpt>
      <trkpt lat="46.68095" lon="5.78616">
        <ele>517.81</ele>
        <time>2019-06-15T08:02:34Z</time>
      </trkpt>
      <trkpt lat="46.68093" lon="5.78622">
        <ele>517.81</ele>
        <time>2019-06-15T08:02:37Z</time>
      </trkpt>
      <trkpt lat="46.68085" lon="5.78645">
        <ele>516.37</ele>
        <time>2019-06-15T08:02:50Z</time>
      </trkpt>
      <trkpt lat="46.68082" lon="5.78659">
        <ele>516.85</ele>
        <time>2019-06-15T08:02:59Z</time>
      </trkpt>
      <trkpt lat="46.68076" lon="5.78677">
        <ele>516.37</ele>
        <time>2019-06-15T08:03:10Z</time>
      </trkpt>
      <trkpt lat="46.68073" lon="5.78691">
        <ele>515.88</ele>
        <time>2019-06-15T08:03:19Z</time>
      </trkpt>
      <trkpt lat="46.68069" lon="5.78702">
        <ele>515.4</ele>
        <time>2019-06-15T08:03:25Z</time>
      </trkpt>
      <trkpt lat="46.68064" lon="5.78724">
        <ele>513.96</ele>
        <time>2019-06-15T08:03:38Z</time>
      </trkpt>
      <trkpt lat="46.68065" lon="5.78731">
        <ele>513.48</ele>
        <time>2019-06-15T08:03:41Z</time>
      </trkpt>
      <trkpt lat="46.68061" lon="5.78757">
        <ele>512.52</ele>
        <time>2019-06-15T08:03:52Z</time>
      </trkpt>
      <trkpt lat="46.6806" lon="5.78762">
        <ele>512.04</ele>
        <time>2019-06-15T08:03:55Z</time>
      </trkpt>
      <trkpt lat="46.68062" lon="5.78783">
        <ele>511.08</ele>
        <time>2019-06-15T08:04:08Z</time>
      </trkpt>
      <trkpt lat="46.68064" lon="5.78792">
        <ele>511.56</ele>
        <time>2019-06-15T08:04:13Z</time>
      </trkpt>
      <trkpt lat="46.68067" lon="5.78805">
        <ele>510.6</ele>
        <time>2019-06-15T08:04:20Z</time>
      </trkpt>
      <trkpt lat="46.6807" lon="5.78827">
        <ele>509.64</ele>
        <time>2019-06-15T08:04:30Z</time>
      </trkpt>
      <trkpt lat="46.68071" lon="5.78845">
        <ele>509.16</ele>
        <time>2019-06-15T08:04:40Z</time>
      </trkpt>
      <trkpt lat="46.68075" lon="5.78869">
        <ele>506.75</ele>
        <time>2019-06-15T08:04:53Z</time>
      </trkpt>
      <trkpt lat="46.68076" lon="5.7887">
        <ele>507.23</ele>
        <time>2019-06-15T08:04:54Z</time>
      </trkpt>
      <trkpt lat="46.68077" lon="5.78875">
        <ele>506.75</ele>
        <time>2019-06-15T08:05:00Z</time>
      </trkpt>
      <trkpt lat="46.68079" lon="5.78883">
        <ele>506.27</ele>
        <time>2019-06-15T08:05:04Z</time>
      </trkpt>
      <trkpt lat="46.68081" lon="5.78887">
        <ele>505.79</ele>
        <time>2019-06-15T08:05:06Z</time>
      </trkpt>
      <trkpt lat="46.68083" lon="5.78902">
        <ele>504.83</ele>
        <time>2019-06-15T08:05:16Z</time>
      </trkpt>
      <trkpt lat="46.68085" lon="5.78932">
        <ele>503.87</ele>
        <time>2019-06-15T08:05:28Z</time>
      </trkpt>
      <trkpt lat="46.68085" lon="5.78936">
        <ele>503.87</ele>
        <time>2019-06-15T08:05:30Z</time>
      </trkpt>
      <trkpt lat="46.68081" lon="5.78951">
        <ele>503.39</ele>
        <time>2019-06-15T08:05:39Z</time>
      </trkpt>
      <trkpt lat="46.68079" lon="5.78958">
        <ele>503.39</ele>
        <time>2019-06-15T08:05:43Z</time>
      </trkpt>
      <trkpt lat="46.68075" lon="5.78967">
        <ele>503.39</ele>
        <time>2019-06-15T08:05:50Z</time>
      </trkpt>
      <trkpt lat="46.68064" lon="5.78982">
        <ele>503.39</ele>
        <time>2019-06-15T08:05:58Z</time>
      </trkpt>
      <trkpt lat="46.68059" lon="5.78988">
        <ele>503.39</ele>
        <time>2019-06-15T08:06:04Z</time>
      </trkpt>
      <trkpt lat="46.68047" lon="5.79001">
        <ele>503.87</ele>
        <time>2019-06-15T08:06:15Z</time>
      </trkpt>
      <trkpt lat="46.68039" lon="5.79012">
        <ele>503.39</ele>
        <time>2019-06-15T08:06:24Z</time>
      </trkpt>
      <trkpt lat="46.68035" lon="5.7903">
        <ele>503.87</ele>
        <time>2019-06-15T08:06:35Z</time>
      </trkpt>
      <trkpt lat="46.68033" lon="5.79046">
        <ele>503.87</ele>
        <time>2019-06-15T08:06:41Z</time>
      </trkpt>
      <trkpt lat="46.68031" lon="5.79055">
        <ele>504.35</ele>
        <time>2019-06-15T08:06:45Z</time>
      </trkpt>
      <trkpt lat="46.68028" lon="5.79076">
        <ele>505.79</ele>
        <time>2019-06-15T08:06:58Z</time>
      </trkpt>
      <trkpt lat="46.68023" lon="5.791">
        <ele>507.23</ele>
        <time>2019-06-15T08:07:12Z</time>
      </trkpt>
      <trkpt lat="46.68018" lon="5.79113">
        <ele>507.71</ele>
        <time>2019-06-15T08:07:20Z</time>
      </trkpt>
      <trkpt lat="46.68011" lon="5.7914">
        <ele>509.64</ele>
        <time>2019-06-15T08:07:36Z</time>
      </trkpt>
      <trkpt lat="46.68003" lon="5.79161">
        <ele>511.08</ele>
        <time>2019-06-15T08:07:49Z</time>
      </trkpt>
      <trkpt lat="46.67994" lon="5.7918">
        <ele>512.52</ele>
        <time>2019-06-15T08:08:02Z</time>
      </trkpt>
      <trkpt lat="46.67991" lon="5.79188">
        <ele>513</ele>
        <time>2019-06-15T08:08:07Z</time>
      </trkpt>
      <trkpt lat="46.67983" lon="5.79207">
        <ele>514.44</ele>
        <time>2019-06-15T08:08:21Z</time>
      </trkpt>
      <trkpt lat="46.67981" lon="5.79209">
        <ele>514.92</ele>
        <time>2019-06-15T08:08:23Z</time>
      </trkpt>
      <trkpt lat="46.67968" lon="5.7922">
        <ele>516.85</ele>
        <time>2019-06-15T08:08:37Z</time>
      </trkpt>
      <trkpt lat="46.67954" lon="5.79224">
        <ele>518.29</ele>
        <time>2019-06-15T08:08:50Z</time>
      </trkpt>
      <trkpt lat="46.67941" lon="5.79229">
        <ele>520.21</ele>
        <time>2019-06-15T08:09:01Z</time>
      </trkpt>
      <trkpt lat="46.67926" lon="5.79237">
        <ele>522.13</ele>
        <time>2019-06-15T08:09:14Z</time>
      </trkpt>
      <trkpt lat="46.67911" lon="5.79246">
        <ele>524.54</ele>
        <time>2019-06-15T08:09:28Z</time>
      </trkpt>
      <trkpt lat="46.67908" lon="5.79248">
        <ele>524.54</ele>
        <time>2019-06-15T08:09:30Z</time>
      </trkpt>
      <trkpt lat="46.67893" lon="5.79261">
        <ele>525.98</ele>
        <time>2019-06-15T08:09:44Z</time>
      </trkpt>
      <trkpt lat="46.67889" lon="5.79267">
        <ele>526.46</ele>
        <time>2019-06-15T08:09:48Z</time>
      </trkpt>
      <trkpt lat="46.67882" lon="5.79273">
        <ele>526.46</ele>
        <time>2019-06-15T08:09:54Z</time>
      </trkpt>
      <trkpt lat="46.67874" lon="5.7928">
        <ele>526.94</ele>
        <time>2019-06-15T08:10:02Z</time>
      </trkpt>
      <trkpt lat="46.67862" lon="5.79291">
        <ele>527.9</ele>
        <time>2019-06-15T08:10:12Z</time>
      </trkpt>
      <trkpt lat="46.67859" lon="5.79294">
        <ele>527.42</ele>
        <time>2019-06-15T08:10:14Z</time>
      </trkpt>
      <trkpt lat="46.67847" lon="5.79303">
        <ele>527.9</ele>
        <time>2019-06-15T08:10:23Z</time>
      </trkpt>
      <trkpt lat="46.67842" lon="5.79306">
        <ele>527.9</ele>
        <time>2019-06-15T08:10:27Z</time>
      </trkpt>
      <trkpt lat="46.6784" lon="5.79306">
        <ele>527.9</ele>
        <time>2019-06-15T08:10:29Z</time>
      </trkpt>
      <trkpt lat="46.67823" lon="5.79309">
        <ele>528.38</ele>
        <time>2019-06-15T08:10:41Z</time>
      </trkpt>
      <trkpt lat="46.67815" lon="5.79308">
        <ele>528.86</ele>
        <time>2019-06-15T08:10:48Z</time>
      </trkpt>
      <trkpt lat="46.67801" lon="5.79307">
        <ele>529.34</ele>
        <time>2019-06-15T08:10:59Z</time>
      </trkpt>
      <trkpt lat="46.67788" lon="5.79304">
        <ele>529.34</ele>
        <time>2019-06-15T08:11:07Z</time>
      </trkpt>
      <trkpt lat="46.67786" lon="5.79302">
        <ele>529.34</ele>
        <time>2019-06-15T08:11:09Z</time>
      </trkpt>
      <trkpt lat="46.67773" lon="5.79304">
        <ele>530.3</ele>
        <time>2019-06-15T08:11:19Z</time>
      </trkpt>
      <trkpt lat="46.67761" lon="5.79313">
        <ele>530.3</ele>
        <time>2019-06-15T08:11:28Z</time>
      </trkpt>
      <trkpt lat="46.67756" lon="5.79318">
        <ele>529.82</ele>
        <time>2019-06-15T08:11:32Z</time>
      </trkpt>
      <trkpt lat="46.67753" lon="5.79321">
        <ele>530.79</ele>
        <time>2019-06-15T08:11:35Z</time>
      </trkpt>
      <trkpt lat="46.67745" lon="5.79327">
        <ele>530.79</ele>
        <time>2019-06-15T08:11:42Z</time>
      </trkpt>
      <trkpt lat="46.67726" lon="5.7933">
        <ele>531.27</ele>
        <time>2019-06-15T08:11:56Z</time>
      </trkpt>
      <trkpt lat="46.67711" lon="5.7932">
        <ele>532.23</ele>
        <time>2019-06-15T08:12:09Z</time>
      </trkpt>
      <trkpt lat="46.67699" lon="5.79299">
        <ele>533.19</ele>
        <time>2019-06-15T08:12:22Z</time>
      </trkpt>
      <trkpt lat="46.67697" lon="5.79297">
        <ele>533.19</ele>
        <time>2019-06-15T08:12:25Z</time>
      </trkpt>
      <trkpt lat="46.67682" lon="5.79282">
        <ele>532.71</ele>
        <time>2019-06-15T08:12:39Z</time>
      </trkpt>
      <trkpt lat="46.67673" lon="5.79278">
        <ele>532.71</ele>
        <time>2019-06-15T08:12:50Z</time>
      </trkpt>
      <trkpt lat="46.67662" lon="5.79278">
        <ele>532.23</ele>
        <time>2019-06-15T08:13:01Z</time>
      </trkpt>
      <trkpt lat="46.67645" lon="5.79277">
        <ele>532.23</ele>
        <time>2019-06-15T08:13:11Z</time>
      </trkpt>
      <trkpt lat="46.67634" lon="5.79283">
        <ele>531.75</ele>
        <time>2019-06-15T08:13:22Z</time>
      </trkpt>
      <trkpt lat="46.67625" lon="5.79286">
        <ele>531.27</ele>
        <time>2019-06-15T08:13:35Z</time>
      </trkpt>
      <trkpt lat="46.67621" lon="5.79291">
        <ele>530.79</ele>
        <time>2019-06-15T08:13:48Z</time>
      </trkpt>
      <trkpt lat="46.67618" lon="5.79293">
        <ele>530.79</ele>
        <time>2019-06-15T08:14:05Z</time>
      </trkpt>
      <trkpt lat="46.67606" lon="5.7931">
        <ele>529.82</ele>
        <time>2019-06-15T08:14:18Z</time>
      </trkpt>
      <trkpt lat="46.676" lon="5.79322">
        <ele>529.34</ele>
        <time>2019-06-15T08:14:28Z</time>
      </trkpt>
      <trkpt lat="46.67595" lon="5.79335">
        <ele>529.82</ele>
        <time>2019-06-15T08:14:36Z</time>
      </trkpt>
      <trkpt lat="46.67593" lon="5.79338">
        <ele>529.82</ele>
        <time>2019-06-15T08:14:38Z</time>
      </trkpt>
      <trkpt lat="46.67588" lon="5.79356">
        <ele>529.82</ele>
        <time>2019-06-15T08:14:52Z</time>
      </trkpt>
      <trkpt lat="46.67582" lon="5.79372">
        <ele>530.3</ele>
        <time>2019-06-15T08:15:03Z</time>
      </trkpt>
      <trkpt lat="46.67577" lon="5.7939">
        <ele>531.27</ele>
        <time>2019-06-15T08:15:18Z</time>
      </trkpt>
      <trkpt lat="46.67576" lon="5.79396">
        <ele>530.79</ele>
        <time>2019-06-15T08:15:37Z</time>
      </trkpt>
      <trkpt lat="46.67572" lon="5.79413">
        <ele>532.23</ele>
        <time>2019-06-15T08:15:47Z</time>
      </trkpt>
      <trkpt lat="46.6757" lon="5.79422">
        <ele>533.19</ele>
        <time>2019-06-15T08:16:02Z</time>
      </trkpt>
      <trkpt lat="46.67569" lon="5.79424">
        <ele>533.19</ele>
        <time>2019-06-15T08:16:25Z</time>
      </trkpt>
      <trkpt lat="46.67569" lon="5.79425">
        <ele>532.71</ele>
        <time>2019-06-15T08:16:44Z</time>
      </trkpt>
      <trkpt lat="46.67567" lon="5.79421">
        <ele>532.23</ele>
        <time>2019-06-15T08:17:02Z</time>
      </trkpt>
      <trkpt lat="46.67567" lon="5.79419">
        <ele>532.23</ele>
        <time>2019-06-15T08:17:29Z</time>
      </trkpt>
      <trkpt lat="46.67569" lon="5.7943">
        <ele>532.71</ele>
        <time>2019-06-15T08:17:43Z</time>
      </trkpt>
      <trkpt lat="46.67568" lon="5.79445">
        <ele>534.15</ele>
        <time>2019-06-15T08:17:55Z</time>
      </trkpt>
      <trkpt lat="46.67566" lon="5.79462">
        <ele>535.11</ele>
        <time>2019-06-15T08:18:07Z</time>
      </trkpt>
      <trkpt lat="46.67564" lon="5.79468">
        <ele>535.11</ele>
        <time>2019-06-15T08:18:21Z</time>
      </trkpt>
      <trkpt lat="46.67564" lon="5.79478">
        <ele>536.55</ele>
        <time>2019-06-15T08:18:39Z</time>
      </trkpt>
      <trkpt lat="46.67563" lon="5.79495">
        <ele>537.03</ele>
        <time>2019-06-15T08:18:50Z</time>
      </trkpt>
      <trkpt lat="46.67564" lon="5.79504">
        <ele>539.44</ele>
        <time>2019-06-15T08:19:02Z</time>
      </trkpt>
      <trkpt lat="46.67564" lon="5.79512">
        <ele>540.88</ele>
        <time>2019-06-15T08:19:15Z</time>
      </trkpt>
      <trkpt lat="46.67566" lon="5.79522">
        <ele>542.8</ele>
        <time>2019-06-15T08:19:27Z</time>
      </trkpt>
      <trkpt lat="46.67567" lon="5.79538">
        <ele>544.72</ele>
        <time>2019-06-15T08:19:41Z</time>
      </trkpt>
      <trkpt lat="46.67571" lon="5.79544">
        <ele>546.65</ele>
        <time>2019-06-15T08:19:54Z</time>
      </trkpt>
      <trkpt lat="46.67573" lon="5.79553">
        <ele>549.05</ele>
        <time>2019-06-15T08:20:07Z</time>
      </trkpt>
      <trkpt lat="46.67574" lon="5.79566">
        <ele>550.97</ele>
        <time>2019-06-15T08:20:19Z</time>
      </trkpt>
      <trkpt lat="46.67576" lon="5.79579">
        <ele>551.93</ele>
        <time>2019-06-15T08:20:30Z</time>
      </trkpt>
      <trkpt lat="46.67575" lon="5.79599">
        <ele>553.86</ele>
        <time>2019-06-15T08:20:44Z</time>
      </trkpt>
      <trkpt lat="46.67571" lon="5.79619">
        <ele>556.26</ele>
        <time>2019-06-15T08:20:59Z</time>
      </trkpt>
      <trkpt lat="46.67573" lon="5.79638">
        <ele>559.14</ele>
        <time>2019-06-15T08:21:15Z</time>
      </trkpt>
      <trkpt lat="46.67582" lon="5.79652">
        <ele>560.59</ele>
        <time>2019-06-15T08:21:28Z</time>
      </trkpt>
      <trkpt lat="46.67596" lon="5.79662">
        <ele>562.51</ele>
        <time>2019-06-15T08:21:42Z</time>
      </trkpt>
      <trkpt lat="46.67607" lon="5.7968">
        <ele>564.91</ele>
        <time>2019-06-15T08:21:57Z</time>
      </trkpt>
      <trkpt lat="46.6761" lon="5.79698">
        <ele>566.35</ele>
        <time>2019-06-15T08:22:12Z</time>
      </trkpt>
      <trkpt lat="46.67615" lon="5.79713">
        <ele>569.24</ele>
        <time>2019-06-15T08:22:28Z</time>
      </trkpt>
      <trkpt lat="46.67616" lon="5.79728">
        <ele>571.64</ele>
        <time>2019-06-15T08:22:42Z</time>
      </trkpt>
      <trkpt lat="46.67625" lon="5.79741">
        <ele>573.56</ele>
        <time>2019-06-15T08:22:54Z</time>
      </trkpt>
      <trkpt lat="46.67627" lon="5.79753">
        <ele>575.49</ele>
        <time>2019-06-15T08:23:08Z</time>
      </trkpt>
      <trkpt lat="46.67629" lon="5.79769">
        <ele>577.89</ele>
        <time>2019-06-15T08:23:24Z</time>
      </trkpt>
      <trkpt lat="46.67633" lon="5.79775">
        <ele>578.37</ele>
        <time>2019-06-15T08:23:29Z</time>
      </trkpt>
      <trkpt lat="46.67637" lon="5.79793">
        <ele>580.29</ele>
        <time>2019-06-15T08:23:42Z</time>
      </trkpt>
      <trkpt lat="46.67643" lon="5.79808">
        <ele>582.22</ele>
        <time>2019-06-15T08:23:57Z</time>
      </trkpt>
      <trkpt lat="46.6765" lon="5.79819">
        <ele>585.1</ele>
        <time>2019-06-15T08:24:13Z</time>
      </trkpt>
      <trkpt lat="46.67658" lon="5.79843">
        <ele>587.98</ele>
        <time>2019-06-15T08:24:27Z</time>
      </trkpt>
      <trkpt lat="46.67663" lon="5.79862">
        <ele>589.91</ele>
        <time>2019-06-15T08:24:39Z</time>
      </trkpt>
      <trkpt lat="46.67664" lon="5.79876">
        <ele>591.83</ele>
        <time>2019-06-15T08:24:49Z</time>
      </trkpt>
      <trkpt lat="46.67663" lon="5.79887">
        <ele>592.79</ele>
        <time>2019-06-15T08:24:59Z</time>
      </trkpt>
      <trkpt lat="46.67661" lon="5.79899">
        <ele>592.31</ele>
        <time>2019-06-15T08:25:13Z</time>
      </trkpt>
      <trkpt lat="46.67654" lon="5.79916">
        <ele>592.79</ele>
        <time>2019-06-15T08:25:26Z</time>
      </trkpt>
      <trkpt lat="46.67655" lon="5.7992">
        <ele>593.27</ele>
        <time>2019-06-15T08:25:37Z</time>
      </trkpt>
      <trkpt lat="46.67655" lon="5.7992">
        <ele>592.79</ele>
        <time>2019-06-15T08:25:59Z</time>
      </trkpt>
      <trkpt lat="46.67655" lon="5.7992">
        <ele>592.79</ele>
        <time>2019-06-15T08:26:26Z</time>
      </trkpt>
      <trkpt lat="46.67654" lon="5.79919">
        <ele>592.79</ele>
        <time>2019-06-15T08:26:50Z</time>
      </trkpt>
      <trkpt lat="46.67648" lon="5.7992">
        <ele>592.79</ele>
        <time>2019-06-15T08:27:01Z</time>
      </trkpt>
      <trkpt lat="46.67642" lon="5.79928">
        <ele>595.19</ele>
        <time>2019-06-15T08:27:13Z</time>
      </trkpt>
      <trkpt lat="46.6763" lon="5.79938">
        <ele>596.64</ele>
        <time>2019-06-15T08:27:26Z</time>
      </trkpt>
      <trkpt lat="46.67626" lon="5.7994">
        <ele>596.64</ele>
        <time>2019-06-15T08:27:29Z</time>
      </trkpt>
      <trkpt lat="46.67612" lon="5.79947">
        <ele>597.6</ele>
        <time>2019-06-15T08:27:41Z</time>
      </trkpt>
      <trkpt lat="46.67604" lon="5.7995">
        <ele>597.6</ele>
        <time>2019-06-15T08:27:46Z</time>
      </trkpt>
      <trkpt lat="46.67589" lon="5.79968">
        <ele>597.6</ele>
        <time>2019-06-15T08:27:59Z</time>
      </trkpt>
      <trkpt lat="46.67579" lon="5.79981">
        <ele>598.08</ele>
        <time>2019-06-15T08:28:12Z</time>
      </trkpt>
      <trkpt lat="46.6757" lon="5.79996">
        <ele>598.08</ele>
        <time>2019-06-15T08:28:25Z</time>
      </trkpt>
      <trkpt lat="46.67563" lon="5.80009">
        <ele>598.08</ele>
        <time>2019-06-15T08:28:37Z</time>
      </trkpt>
      <trkpt lat="46.67554" lon="5.8003">
        <ele>598.08</ele>
        <time>2019-06-15T08:28:48Z</time>
      </trkpt>
      <trkpt lat="46.67549" lon="5.80045">
        <ele>599.04</ele>
        <time>2019-06-15T08:29:01Z</time>
      </trkpt>
      <trkpt lat="46.6754" lon="5.80068">
        <ele>600</ele>
        <time>2019-06-15T08:29:14Z</time>
      </trkpt>
      <trkpt lat="46.67537" lon="5.80076">
        <ele>600.48</ele>
        <time>2019-06-15T08:29:19Z</time>
      </trkpt>
      <trkpt lat="46.67534" lon="5.80081">
        <ele>600</ele>
        <time>2019-06-15T08:29:22Z</time>
      </trkpt>
      <trkpt lat="46.67526" lon="5.80105">
        <ele>599.52</ele>
        <time>2019-06-15T08:29:36Z</time>
      </trkpt>
      <trkpt lat="46.67525" lon="5.80108">
        <ele>599.52</ele>
        <time>2019-06-15T08:29:38Z</time>
      </trkpt>
      <trkpt lat="46.67517" lon="5.80127">
        <ele>598.08</ele>
        <time>2019-06-15T08:29:51Z</time>
      </trkpt>
      <trkpt lat="46.67516" lon="5.8013">
        <ele>597.6</ele>
        <time>2019-06-15T08:29:54Z</time>
      </trkpt>
      <trkpt lat="46.6751" lon="5.80156">
        <ele>595.67</ele>
        <time>2019-06-15T08:30:07Z</time>
      </trkpt>
      <trkpt lat="46.6751" lon="5.80169">
        <ele>595.19</ele>
        <time>2019-06-15T08:30:15Z</time>
      </trkpt>
      <trkpt lat="46.67506" lon="5.80188">
        <ele>593.75</ele>
        <time>2019-06-15T08:30:28Z</time>
      </trkpt>
      <trkpt lat="46.67505" lon="5.80191">
        <ele>592.79</ele>
        <time>2019-06-15T08:30:31Z</time>
      </trkpt>
      <trkpt lat="46.67504" lon="5.80205">
        <ele>592.31</ele>
        <time>2019-06-15T08:30:41Z</time>
      </trkpt>
      <trkpt lat="46.67498" lon="5.80228">
        <ele>591.35</ele>
        <time>2019-06-15T08:30:53Z</time>
      </trkpt>
      <trkpt lat="46.67493" lon="5.80243">
        <ele>590.87</ele>
        <time>2019-06-15T08:31:02Z</time>
      </trkpt>
      <trkpt lat="46.67483" lon="5.8027">
        <ele>591.35</ele>
        <time>2019-06-15T08:31:15Z</time>
      </trkpt>
      <trkpt lat="46.6748" lon="5.80277">
        <ele>591.83</ele>
        <time>2019-06-15T08:31:19Z</time>
      </trkpt>
      <trkpt lat="46.67471" lon="5.80296">
        <ele>591.83</ele>
        <time>2019-06-15T08:31:32Z</time>
      </trkpt>
      <trkpt lat="46.67467" lon="5.80314">
        <ele>590.87</ele>
        <time>2019-06-15T08:31:43Z</time>
      </trkpt>
      <trkpt lat="46.67462" lon="5.80335">
        <ele>589.91</ele>
        <time>2019-06-15T08:31:54Z</time>
      </trkpt>
      <trkpt lat="46.6746" lon="5.80348">
        <ele>588.46</ele>
        <time>2019-06-15T08:32:05Z</time>
      </trkpt>
      <trkpt lat="46.67455" lon="5.80365">
        <ele>587.02</ele>
        <time>2019-06-15T08:32:17Z</time>
      </trkpt>
      <trkpt lat="46.67447" lon="5.80386">
        <ele>587.02</ele>
        <time>2019-06-15T08:32:28Z</time>
      </trkpt>
      <trkpt lat="46.67446" lon="5.80388">
        <ele>587.02</ele>
        <time>2019-06-15T08:32:29Z</time>
      </trkpt>
      <trkpt lat="46.67436" lon="5.8041">
        <ele>587.02</ele>
        <time>2019-06-15T08:32:41Z</time>
      </trkpt>
      <trkpt lat="46.67429" lon="5.80424">
        <ele>587.98</ele>
        <time>2019-06-15T08:32:52Z</time>
      </trkpt>
      <trkpt lat="46.67427" lon="5.80428">
        <ele>588.46</ele>
        <time>2019-06-15T08:32:55Z</time>
      </trkpt>
      <trkpt lat="46.67419" lon="5.80449">
        <ele>589.43</ele>
        <time>2019-06-15T08:33:04Z</time>
      </trkpt>
      <trkpt lat="46.67407" lon="5.80474">
        <ele>590.39</ele>
        <time>2019-06-15T08:33:18Z</time>
      </trkpt>
      <trkpt lat="46.67405" lon="5.8048">
        <ele>589.91</ele>
        <time>2019-06-15T08:33:23Z</time>
      </trkpt>
      <trkpt lat="46.67402" lon="5.80484">
        <ele>589.91</ele>
        <time>2019-06-15T08:33:26Z</time>
      </trkpt>
      <trkpt lat="46.674" lon="5.80495">
        <ele>589.91</ele>
        <time>2019-06-15T08:33:32Z</time>
      </trkpt>
      <trkpt lat="46.67396" lon="5.80517">
        <ele>589.43</ele>
        <time>2019-06-15T08:33:44Z</time>
      </trkpt>
      <trkpt lat="46.67389" lon="5.80535">
        <ele>590.39</ele>
        <time>2019-06-15T08:33:56Z</time>
      </trkpt>
      <trkpt lat="46.67382" lon="5.80555">
        <ele>589.91</ele>
        <time>2019-06-15T08:34:07Z</time>
      </trkpt>
      <trkpt lat="46.67374" lon="5.80581">
        <ele>589.43</ele>
        <time>2019-06-15T08:34:21Z</time>
      </trkpt>
      <trkpt lat="46.67367" lon="5.80599">
        <ele>588.95</ele>
        <time>2019-06-15T08:34:33Z</time>
      </trkpt>
      <trkpt lat="46.67364" lon="5.80603">
        <ele>588.46</ele>
        <time>2019-06-15T08:34:47Z</time>
      </trkpt>
      <trkpt lat="46.67364" lon="5.80603">
        <ele>588.46</ele>
        <time>2019-06-15T08:35:04Z</time>
      </trkpt>
      <trkpt lat="46.67364" lon="5.80607">
        <ele>588.46</ele>
        <time>2019-06-15T08:35:20Z</time>
      </trkpt>
      <trkpt lat="46.6736" lon="5.80626">
        <ele>587.98</ele>
        <time>2019-06-15T08:35:31Z</time>
      </trkpt>
      <trkpt lat="46.67353" lon="5.80649">
        <ele>587.98</ele>
        <time>2019-06-15T08:35:45Z</time>
      </trkpt>
      <trkpt lat="46.67349" lon="5.80665">
        <ele>587.98</ele>
        <time>2019-06-15T08:35:57Z</time>
      </trkpt>
      <trkpt lat="46.67339" lon="5.80686">
        <ele>588.46</ele>
        <time>2019-06-15T08:36:10Z</time>
      </trkpt>
      <trkpt lat="46.6733" lon="5.80704">
        <ele>588.46</ele>
        <time>2019-06-15T08:36:20Z</time>
      </trkpt>
      <trkpt lat="46.67326" lon="5.80724">
        <ele>588.46</ele>
        <time>2019-06-15T08:36:30Z</time>
      </trkpt>
      <trkpt lat="46.67319" lon="5.80746">
        <ele>587.98</ele>
        <time>2019-06-15T08:36:42Z</time>
      </trkpt>
      <trkpt lat="46.67315" lon="5.80751">
        <ele>588.46</ele>
        <time>2019-06-15T08:36:46Z</time>
      </trkpt>
      <trkpt lat="46.67304" lon="5.80771">
        <ele>587.5</ele>
        <time>2019-06-15T08:36:58Z</time>
      </trkpt>
      <trkpt lat="46.67298" lon="5.80788">
        <ele>586.54</ele>
        <time>2019-06-15T08:37:08Z</time>
      </trkpt>
      <trkpt lat="46.67291" lon="5.80802">
        <ele>587.02</ele>
        <time>2019-06-15T08:37:17Z</time>
      </trkpt>
      <trkpt lat="46.67285" lon="5.80824">
        <ele>587.5</ele>
        <time>2019-06-15T08:37:30Z</time>
      </trkpt>
      <trkpt lat="46.67285" lon="5.80828">
        <ele>587.98</ele>
        <time>2019-06-15T08:37:33Z</time>
      </trkpt>
      <trkpt lat="46.67284" lon="5.80839">
        <ele>588.46</ele>
        <time>2019-06-15T08:37:39Z</time>
      </trkpt>
      <trkpt lat="46.67283" lon="5.80845">
        <ele>587.98</ele>
        <time>2019-06-15T08:37:42Z</time>
      </trkpt>
      <trkpt lat="46.67281" lon="5.80859">
        <ele>588.46</ele>
        <time>2019-06-15T08:37:50Z</time>
      </trkpt>
      <trkpt lat="46.67278" lon="5.80864">
        <ele>588.46</ele>
        <time>2019-06-15T08:38:06Z</time>
      </trkpt>
      <trkpt lat="46.67278" lon="5.80865">
        <ele>588.46</ele>
        <time>2019-06-15T08:38:20Z</time>
      </trkpt>
      <trkpt lat="46.67277" lon="5.80866">
        <ele>588.46</ele>
        <time>2019-06-15T08:38:36Z</time>
      </trkpt>
      <trkpt lat="46.67275" lon="5.80865">
        <ele>588.46</ele>
        <time>2019-06-15T08:38:50Z</time>
      </trkpt>
      <trkpt lat="46.67275" lon="5.80865">
        <ele>588.46</ele>
        <time>2019-06-15T08:39:11Z</time>
      </trkpt>
      <trkpt lat="46.67272" lon="5.80865">
        <ele>588.46</ele>
        <time>2019-06-15T08:39:23Z</time>
      </trkpt>
      <trkpt lat="46.67276" lon="5.80867">
        <ele>588.95</ele>
        <time>2019-06-15T08:39:37Z</time>
      </trkpt>
      <trkpt lat="46.67276" lon="5.80868">
        <ele>588.95</ele>
        <time>2019-06-15T08:40:01Z</time>
      </trkpt>
      <trkpt lat="46.67277" lon="5.8088">
        <ele>587.98</ele>
        <time>2019-06-15T08:40:13Z</time>
      </trkpt>
      <trkpt lat="46.67278" lon="5.80881">
        <ele>587.98</ele>
        <time>2019-06-15T08:40:14Z</time>
      </trkpt>
      <trkpt lat="46.67279" lon="5.80886">
        <ele>587.98</ele>
        <time>2019-06-15T08:40:18Z</time>
      </trkpt>
      <trkpt lat="46.67279" lon="5.80899">
        <ele>588.46</ele>
        <time>2019-06-15T08:40:25Z</time>
      </trkpt>
      <trkpt lat="46.67278" lon="5.80921">
        <ele>588.46</ele>
        <time>2019-06-15T08:40:37Z</time>
      </trkpt>
      <trkpt lat="46.67274" lon="5.80943">
        <ele>587.98</ele>
        <time>2019-06-15T08:40:48Z</time>
      </trkpt>
      <trkpt lat="46.67266" lon="5.80967">
        <ele>587.98</ele>
        <time>2019-06-15T08:41:04Z</time>
      </trkpt>
      <trkpt lat="46.67263" lon="5.80976">
        <ele>587.5</ele>
        <time>2019-06-15T08:41:10Z</time>
      </trkpt>
      <trkpt lat="46.67258" lon="5.80992">
        <ele>587.02</ele>
        <time>2019-06-15T08:41:19Z</time>
      </trkpt>
      <trkpt lat="46.67251" lon="5.81012">
        <ele>585.58</ele>
        <time>2019-06-15T08:41:33Z</time>
      </trkpt>
      <trkpt lat="46.67244" lon="5.81032">
        <ele>584.62</ele>
        <time>2019-06-15T08:41:46Z</time>
      </trkpt>
      <trkpt lat="46.67242" lon="5.81039">
        <ele>585.1</ele>
        <time>2019-06-15T08:41:58Z</time>
      </trkpt>
      <trkpt lat="46.67238" lon="5.81058">
        <ele>585.1</ele>
        <time>2019-06-15T08:42:09Z</time>
      </trkpt>
      <trkpt lat="46.67237" lon="5.81063">
        <ele>585.1</ele>
        <time>2019-06-15T08:42:12Z</time>
      </trkpt>
      <trkpt lat="46.67236" lon="5.81068">
        <ele>585.58</ele>
        <time>2019-06-15T08:42:15Z</time>
      </trkpt>
      <trkpt lat="46.67234" lon="5.81077">
        <ele>585.58</ele>
        <time>2019-06-15T08:42:21Z</time>
      </trkpt>
      <trkpt lat="46.67225" lon="5.81093">
        <ele>586.06</ele>
        <time>2019-06-15T08:42:33Z</time>
      </trkpt>
      <trkpt lat="46.67222" lon="5.81099">
        <ele>586.06</ele>
        <time>2019-06-15T08:42:45Z</time>
      </trkpt>
      <trkpt lat="46.67223" lon="5.81101">
        <ele>586.06</ele>
        <time>2019-06-15T08:42:48Z</time>
      </trkpt>
      <trkpt lat="46.6722" lon="5.81109">
        <ele>587.5</ele>
        <time>2019-06-15T08:42:57Z</time>
      </trkpt>
      <trkpt lat="46.67218" lon="5.8113">
        <ele>587.98</ele>
        <time>2019-06-15T08:43:09Z</time>
      </trkpt>
      <trkpt lat="46.67214" lon="5.81144">
        <ele>587.5</ele>
        <time>2019-06-15T08:43:18Z</time>
      </trkpt>
      <trkpt lat="46.67203" lon="5.81166">
        <ele>587.02</ele>
        <time>2019-06-15T08:43:29Z</time>
      </trkpt>
      <trkpt lat="46.67194" lon="5.81184">
        <ele>586.54</ele>
        <time>2019-06-15T08:43:41Z</time>
      </trkpt>
      <trkpt lat="46.67186" lon="5.81196">
        <ele>587.02</ele>
        <time>2019-06-15T08:43:50Z</time>
      </trkpt>
      <trkpt lat="46.67175" lon="5.81213">
        <ele>586.54</ele>
        <time>2019-06-15T08:44:03Z</time>
      </trkpt>
      <trkpt lat="46.6717" lon="5.81216">
        <ele>586.54</ele>
        <time>2019-06-15T08:44:06Z</time>
      </trkpt>
      <trkpt lat="46.67159" lon="5.81221">
        <ele>587.5</ele>
        <time>2019-06-15T08:44:18Z</time>
      </trkpt>
      <trkpt lat="46.67144" lon="5.81232">
        <ele>588.95</ele>
        <time>2019-06-15T08:44:31Z</time>
      </trkpt>
      <trkpt lat="46.67131" lon="5.81243">
        <ele>590.39</ele>
        <time>2019-06-15T08:44:42Z</time>
      </trkpt>
      <trkpt lat="46.67117" lon="5.81254">
        <ele>590.39</ele>
        <time>2019-06-15T08:44:54Z</time>
      </trkpt>
      <trkpt lat="46.671" lon="5.81267">
        <ele>591.35</ele>
        <time>2019-06-15T08:45:07Z</time>
      </trkpt>
      <trkpt lat="46.67091" lon="5.81279">
        <ele>592.31</ele>
        <time>2019-06-15T08:45:19Z</time>
      </trkpt>
      <trkpt lat="46.67085" lon="5.81289">
        <ele>593.75</ele>
        <time>2019-06-15T08:45:29Z</time>
      </trkpt>
      <trkpt lat="46.67075" lon="5.81307">
        <ele>594.23</ele>
        <time>2019-06-15T08:45:42Z</time>
      </trkpt>
      <trkpt lat="46.67063" lon="5.81331">
        <ele>595.19</ele>
        <time>2019-06-15T08:45:54Z</time>
      </trkpt>
      <trkpt lat="46.67058" lon="5.81336">
        <ele>595.19</ele>
        <time>2019-06-15T08:45:58Z</time>
      </trkpt>
      <trkpt lat="46.6705" lon="5.81345">
        <ele>594.71</ele>
        <time>2019-06-15T08:46:06Z</time>
      </trkpt>
      <trkpt lat="46.67035" lon="5.81368">
        <ele>595.19</ele>
        <time>2019-06-15T08:46:19Z</time>
      </trkpt>
      <trkpt lat="46.67027" lon="5.81374">
        <ele>596.15</ele>
        <time>2019-06-15T08:46:28Z</time>
      </trkpt>
      <trkpt lat="46.6702" lon="5.81376">
        <ele>596.15</ele>
        <time>2019-06-15T08:46:33Z</time>
      </trkpt>
      <trkpt lat="46.67006" lon="5.81369">
        <ele>596.64</ele>
        <time>2019-06-15T08:46:44Z</time>
      </trkpt>
      <trkpt lat="46.66988" lon="5.81361">
        <ele>597.12</ele>
        <time>2019-06-15T08:47:00Z</time>
      </trkpt>
      <trkpt lat="46.66982" lon="5.81355">
        <ele>596.64</ele>
        <time>2019-06-15T08:47:12Z</time>
      </trkpt>
      <trkpt lat="46.66982" lon="5.81355">
        <ele>596.64</ele>
        <time>2019-06-15T08:47:31Z</time>
      </trkpt>
      <trkpt lat="46.66986" lon="5.81357">
        <ele>597.12</ele>
        <time>2019-06-15T08:47:49Z</time>
      </trkpt>
      <trkpt lat="46.66989" lon="5.81358">
        <ele>597.12</ele>
        <time>2019-06-15T08:47:52Z</time>
      </trkpt>
      <trkpt lat="46.66992" lon="5.8136">
        <ele>596.64</ele>
        <time>2019-06-15T08:48:07Z</time>
      </trkpt>
      <trkpt lat="46.66994" lon="5.81361">
        <ele>597.12</ele>
        <time>2019-06-15T08:48:29Z</time>
      </trkpt>
      <trkpt lat="46.6699" lon="5.81359">
        <ele>597.6</ele>
        <time>2019-06-15T08:48:48Z</time>
      </trkpt>
      <trkpt lat="46.66989" lon="5.81358">
        <ele>597.12</ele>
        <time>2019-06-15T08:49:00Z</time>
      </trkpt>
      <trkpt lat="46.66989" lon="5.81358">
        <ele>597.12</ele>
        <time>2019-06-15T08:49:22Z</time>
      </trkpt>
      <trkpt lat="46.66988" lon="5.81357">
        <ele>596.64</ele>
        <time>2019-06-15T08:49:41Z</time>
      </trkpt>
      <trkpt lat="46.66988" lon="5.81357">
        <ele>596.64</ele>
        <time>2019-06-15T08:50:04Z</time>
      </trkpt>
      <trkpt lat="46.66988" lon="5.81358">
        <ele>597.6</ele>
        <time>2019-06-15T08:50:26Z</time>
      </trkpt>
      <trkpt lat="46.66985" lon="5.81359">
        <ele>597.6</ele>
        <time>2019-06-15T08:50:43Z</time>
      </trkpt>
      <trkpt lat="46.66983" lon="5.81359">
        <ele>598.08</ele>
        <time>2019-06-15T08:50:56Z</time>
      </trkpt>
      <trkpt lat="46.66981" lon="5.81361">
        <ele>597.6</ele>
        <time>2019-06-15T08:51:12Z</time>
      </trkpt>
      <trkpt lat="46.66981" lon="5.81361">
        <ele>597.6</ele>
        <time>2019-06-15T08:51:35Z</time>
      </trkpt>
      <trkpt lat="46.6698" lon="5.81359">
        <ele>597.6</ele>
        <time>2019-06-15T08:51:54Z</time>
      </trkpt>
      <trkpt lat="46.66981" lon="5.81359">
        <ele>598.08</ele>
        <time>2019-06-15T08:52:19Z</time>
      </trkpt>
      <trkpt lat="46.6698" lon="5.81359">
        <ele>597.6</ele>
        <time>2019-06-15T08:52:41Z</time>
      </trkpt>
      <trkpt lat="46.6698" lon="5.8136">
        <ele>598.08</ele>
        <time>2019-06-15T08:52:59Z</time>
      </trkpt>
      <trkpt lat="46.66982" lon="5.81358">
        <ele>598.08</ele>
        <time>2019-06-15T08:53:20Z</time>
      </trkpt>
      <trkpt lat="46.66982" lon="5.81358">
        <ele>598.08</ele>
        <time>2019-06-15T08:53:42Z</time>
      </trkpt>
      <trkpt lat="46.66982" lon="5.81357">
        <ele>598.56</ele>
        <time>2019-06-15T08:54:04Z</time>
      </trkpt>
      <trkpt lat="46.66982" lon="5.81358">
        <ele>598.56</ele>
        <time>2019-06-15T08:54:24Z</time>
      </trkpt>
      <trkpt lat="46.66983" lon="5.81358">
        <ele>598.56</ele>
        <time>2019-06-15T08:54:46Z</time>
      </trkpt>
      <trkpt lat="46.66983" lon="5.81357">
        <ele>598.56</ele>
        <time>2019-06-15T08:55:03Z</time>
      </trkpt>
      <trkpt lat="46.66984" lon="5.81355">
        <ele>599.52</ele>
        <time>2019-06-15T08:55:15Z</time>
      </trkpt>
      <trkpt lat="46.66985" lon="5.81355">
        <ele>599.04</ele>
        <time>2019-06-15T08:55:39Z</time>
      </trkpt>
      <trkpt lat="46.66984" lon="5.81355">
        <ele>599.04</ele>
        <time>2019-06-15T08:56:00Z</time>
      </trkpt>
      <trkpt lat="46.66985" lon="5.81358">
        <ele>599.04</ele>
        <time>2019-06-15T08:56:14Z</time>
      </trkpt>
      <trkpt lat="46.66988" lon="5.81381">
        <ele>598.56</ele>
        <time>2019-06-15T08:56:27Z</time>
      </trkpt>
      <trkpt lat="46.66987" lon="5.81412">
        <ele>598.08</ele>
        <time>2019-06-15T08:56:43Z</time>
      </trkpt>
      <trkpt lat="46.66986" lon="5.81424">
        <ele>598.08</ele>
        <time>2019-06-15T08:56:50Z</time>
      </trkpt>
      <trkpt lat="46.66985" lon="5.81439">
        <ele>599.04</ele>
        <time>2019-06-15T08:57:01Z</time>
      </trkpt>
      <trkpt lat="46.66982" lon="5.81447">
        <ele>599.52</ele>
        <time>2019-06-15T08:57:07Z</time>
      </trkpt>
      <trkpt lat="46.66968" lon="5.81464">
        <ele>600</ele>
        <time>2019-06-15T08:57:20Z</time>
      </trkpt>
      <trkpt lat="46.66957" lon="5.8148">
        <ele>600.48</ele>
        <time>2019-06-15T08:57:34Z</time>
      </trkpt>
      <trkpt lat="46.66944" lon="5.81505">
        <ele>600.48</ele>
        <time>2019-06-15T08:57:51Z</time>
      </trkpt>
      <trkpt lat="46.66935" lon="5.81519">
        <ele>600</ele>
        <time>2019-06-15T08:58:00Z</time>
      </trkpt>
      <trkpt lat="46.66928" lon="5.81529">
        <ele>586.54</ele>
        <time>2019-06-15T08:58:08Z</time>
      </trkpt>
      <trkpt lat="46.66927" lon="5.81529">
        <ele>602.4</ele>
        <time>2019-06-15T08:58:09Z</time>
      </trkpt>
      <trkpt lat="46.66923" lon="5.8154">
        <ele>600.48</ele>
        <time>2019-06-15T08:58:15Z</time>
      </trkpt>
      <trkpt lat="46.66913" lon="5.81557">
        <ele>600.96</ele>
        <time>2019-06-15T08:58:29Z</time>
      </trkpt>
      <trkpt lat="46.669" lon="5.81577">
        <ele>600</ele>
        <time>2019-06-15T08:58:42Z</time>
      </trkpt>
      <trkpt lat="46.66893" lon="5.81591">
        <ele>600.48</ele>
        <time>2019-06-15T08:58:51Z</time>
      </trkpt>
      <trkpt lat="46.66876" lon="5.81617">
        <ele>600.48</ele>
        <time>2019-06-15T08:59:09Z</time>
      </trkpt>
      <trkpt lat="46.66859" lon="5.81643">
        <ele>600.48</ele>
        <time>2019-06-15T08:59:28Z</time>
      </trkpt>
      <trkpt lat="46.66848" lon="5.8166">
        <ele>600</ele>
        <time>2019-06-15T08:59:41Z</time>
      </trkpt>
      <trkpt lat="46.66838" lon="5.81677">
        <ele>600.48</ele>
        <time>2019-06-15T08:59:54Z</time>
      </trkpt>
      <trkpt lat="46.66829" lon="5.81692">
        <ele>600</ele>
        <time>2019-06-15T09:00:06Z</time>
      </trkpt>
      <trkpt lat="46.66823" lon="5.81702">
        <ele>600.48</ele>
        <time>2019-06-15T09:00:13Z</time>
      </trkpt>
      <trkpt lat="46.66813" lon="5.81728">
        <ele>599.52</ele>
        <time>2019-06-15T09:00:27Z</time>
      </trkpt>
      <trkpt lat="46.66812" lon="5.81744">
        <ele>598.08</ele>
        <time>2019-06-15T09:00:38Z</time>
      </trkpt>
      <trkpt lat="46.66812" lon="5.81776">
        <ele>596.15</ele>
        <time>2019-06-15T09:00:53Z</time>
      </trkpt>
      <trkpt lat="46.6681" lon="5.81791">
        <ele>595.19</ele>
        <time>2019-06-15T09:01:05Z</time>
      </trkpt>
      <trkpt lat="46.66806" lon="5.81816">
        <ele>593.75</ele>
        <time>2019-06-15T09:01:18Z</time>
      </trkpt>
      <trkpt lat="46.66798" lon="5.81847">
        <ele>590.39</ele>
        <time>2019-06-15T09:01:34Z</time>
      </trkpt>
      <trkpt lat="46.6679" lon="5.81879">
        <ele>588.46</ele>
        <time>2019-06-15T09:01:49Z</time>
      </trkpt>
      <trkpt lat="46.66786" lon="5.81908">
        <ele>587.02</ele>
        <time>2019-06-15T09:02:05Z</time>
      </trkpt>
      <trkpt lat="46.66783" lon="5.81926">
        <ele>587.5</ele>
        <time>2019-06-15T09:02:14Z</time>
      </trkpt>
      <trkpt lat="46.66783" lon="5.81931">
        <ele>586.54</ele>
        <time>2019-06-15T09:02:17Z</time>
      </trkpt>
      <trkpt lat="46.66781" lon="5.81937">
        <ele>587.02</ele>
        <time>2019-06-15T09:02:30Z</time>
      </trkpt>
      <trkpt lat="46.66781" lon="5.81941">
        <ele>587.02</ele>
        <time>2019-06-15T09:02:44Z</time>
      </trkpt>
      <trkpt lat="46.66782" lon="5.81948">
        <ele>587.02</ele>
        <time>2019-06-15T09:02:53Z</time>
      </trkpt>
      <trkpt lat="46.66783" lon="5.81955">
        <ele>586.06</ele>
        <time>2019-06-15T09:02:58Z</time>
      </trkpt>
      <trkpt lat="46.66784" lon="5.81978">
        <ele>585.58</ele>
        <time>2019-06-15T09:03:12Z</time>
      </trkpt>
      <trkpt lat="46.66784" lon="5.8198">
        <ele>585.58</ele>
        <time>2019-06-15T09:03:13Z</time>
      </trkpt>
      <trkpt lat="46.66787" lon="5.81988">
        <ele>584.62</ele>
        <time>2019-06-15T09:03:17Z</time>
      </trkpt>
      <trkpt lat="46.66788" lon="5.81995">
        <ele>584.62</ele>
        <time>2019-06-15T09:03:22Z</time>
      </trkpt>
      <trkpt lat="46.66796" lon="5.82013">
        <ele>581.73</ele>
        <time>2019-06-15T09:03:34Z</time>
      </trkpt>
      <trkpt lat="46.66797" lon="5.82021">
        <ele>581.25</ele>
        <time>2019-06-15T09:03:38Z</time>
      </trkpt>
      <trkpt lat="46.66802" lon="5.82036">
        <ele>580.29</ele>
        <time>2019-06-15T09:03:48Z</time>
      </trkpt>
      <trkpt lat="46.66804" lon="5.82048">
        <ele>579.81</ele>
        <time>2019-06-15T09:03:52Z</time>
      </trkpt>
      <trkpt lat="46.66804" lon="5.82049">
        <ele>579.33</ele>
        <time>2019-06-15T09:03:54Z</time>
      </trkpt>
      <trkpt lat="46.66803" lon="5.82064">
        <ele>579.81</ele>
        <time>2019-06-15T09:04:01Z</time>
      </trkpt>
      <trkpt lat="46.668" lon="5.82086">
        <ele>579.81</ele>
        <time>2019-06-15T09:04:14Z</time>
      </trkpt>
      <trkpt lat="46.66795" lon="5.82101">
        <ele>580.29</ele>
        <time>2019-06-15T09:04:26Z</time>
      </trkpt>
      <trkpt lat="46.66785" lon="5.82126">
        <ele>581.25</ele>
        <time>2019-06-15T09:04:41Z</time>
      </trkpt>
      <trkpt lat="46.66783" lon="5.82132">
        <ele>581.73</ele>
        <time>2019-06-15T09:04:45Z</time>
      </trkpt>
      <trkpt lat="46.66781" lon="5.82144">
        <ele>581.73</ele>
        <time>2019-06-15T09:04:53Z</time>
      </trkpt>
      <trkpt lat="46.66778" lon="5.8215">
        <ele>581.73</ele>
        <time>2019-06-15T09:04:56Z</time>
      </trkpt>
      <trkpt lat="46.6677" lon="5.82167">
        <ele>582.7</ele>
        <time>2019-06-15T09:05:05Z</time>
      </trkpt>
      <trkpt lat="46.66765" lon="5.82178">
        <ele>583.66</ele>
        <time>2019-06-15T09:05:12Z</time>
      </trkpt>
      <trkpt lat="46.66763" lon="5.82188">
        <ele>584.62</ele>
        <time>2019-06-15T09:05:18Z</time>
      </trkpt>
      <trkpt lat="46.66761" lon="5.82195">
        <ele>585.1</ele>
        <time>2019-06-15T09:05:23Z</time>
      </trkpt>
      <trkpt lat="46.66761" lon="5.82199">
        <ele>585.58</ele>
        <time>2019-06-15T09:05:25Z</time>
      </trkpt>
      <trkpt lat="46.66767" lon="5.82215">
        <ele>587.02</ele>
        <time>2019-06-15T09:05:38Z</time>
      </trkpt>
      <trkpt lat="46.6677" lon="5.82222">
        <ele>587.98</ele>
        <time>2019-06-15T09:05:43Z</time>
      </trkpt>
      <trkpt lat="46.6677" lon="5.82231">
        <ele>587.98</ele>
        <time>2019-06-15T09:05:49Z</time>
      </trkpt>
      <trkpt lat="46.6677" lon="5.82242">
        <ele>588.46</ele>
        <time>2019-06-15T09:05:55Z</time>
      </trkpt>
      <trkpt lat="46.66771" lon="5.82245">
        <ele>588.46</ele>
        <time>2019-06-15T09:05:57Z</time>
      </trkpt>
      <trkpt lat="46.66769" lon="5.82258">
        <ele>588.46</ele>
        <time>2019-06-15T09:06:05Z</time>
      </trkpt>
      <trkpt lat="46.66769" lon="5.82267">
        <ele>588.46</ele>
        <time>2019-06-15T09:06:09Z</time>
      </trkpt>
      <trkpt lat="46.66781" lon="5.82284">
        <ele>588.46</ele>
        <time>2019-06-15T09:06:22Z</time>
      </trkpt>
      <trkpt lat="46.66785" lon="5.82299">
        <ele>588.46</ele>
        <time>2019-06-15T09:06:35Z</time>
      </trkpt>
      <trkpt lat="46.66786" lon="5.82299">
        <ele>588.46</ele>
        <time>2019-06-15T09:06:51Z</time>
      </trkpt>
      <trkpt lat="46.66786" lon="5.82299">
        <ele>588.46</ele>
        <time>2019-06-15T09:07:11Z</time>
      </trkpt>
      <trkpt lat="46.66785" lon="5.82301">
        <ele>588.46</ele>
        <time>2019-06-15T09:07:42Z</time>
      </trkpt>
      <trkpt lat="46.66773" lon="5.82316">
        <ele>588.95</ele>
        <time>2019-06-15T09:07:55Z</time>
      </trkpt>
      <trkpt lat="46.66771" lon="5.82319">
        <ele>588.46</ele>
        <time>2019-06-15T09:07:57Z</time>
      </trkpt>
      <trkpt lat="46.6676" lon="5.82338">
        <ele>587.98</ele>
        <time>2019-06-15T09:08:11Z</time>
      </trkpt>
      <trkpt lat="46.66746" lon="5.82352">
        <ele>587.02</ele>
        <time>2019-06-15T09:08:24Z</time>
      </trkpt>
      <trkpt lat="46.66739" lon="5.8236">
        <ele>587.5</ele>
        <time>2019-06-15T09:08:31Z</time>
      </trkpt>
      <trkpt lat="46.66724" lon="5.82376">
        <ele>587.02</ele>
        <time>2019-06-15T09:08:46Z</time>
      </trkpt>
      <trkpt lat="46.6671" lon="5.82388">
        <ele>587.02</ele>
        <time>2019-06-15T09:08:58Z</time>
      </trkpt>
      <trkpt lat="46.66695" lon="5.82403">
        <ele>587.02</ele>
        <time>2019-06-15T09:09:12Z</time>
      </trkpt>
      <trkpt lat="46.66687" lon="5.82412">
        <ele>587.5</ele>
        <time>2019-06-15T09:09:20Z</time>
      </trkpt>
      <trkpt lat="46.66675" lon="5.82424">
        <ele>587.5</ele>
        <time>2019-06-15T09:09:30Z</time>
      </trkpt>
      <trkpt lat="46.66665" lon="5.82437">
        <ele>587.5</ele>
        <time>2019-06-15T09:09:39Z</time>
      </trkpt>
      <trkpt lat="46.66651" lon="5.82451">
        <ele>587.98</ele>
        <time>2019-06-15T09:09:52Z</time>
      </trkpt>
      <trkpt lat="46.66637" lon="5.82465">
        <ele>587.98</ele>
        <time>2019-06-15T09:10:06Z</time>
      </trkpt>
      <trkpt lat="46.66624" lon="5.82477">
        <ele>588.95</ele>
        <time>2019-06-15T09:10:18Z</time>
      </trkpt>
      <trkpt lat="46.66622" lon="5.82479">
        <ele>589.43</ele>
        <time>2019-06-15T09:10:20Z</time>
      </trkpt>
      <trkpt lat="46.66607" lon="5.8249">
        <ele>589.43</ele>
        <time>2019-06-15T09:10:34Z</time>
      </trkpt>
      <trkpt lat="46.66588" lon="5.82496">
        <ele>590.39</ele>
        <time>2019-06-15T09:10:48Z</time>
      </trkpt>
      <trkpt lat="46.66575" lon="5.82503">
        <ele>590.39</ele>
        <time>2019-06-15T09:10:58Z</time>
      </trkpt>
      <trkpt lat="46.66558" lon="5.82515">
        <ele>590.39</ele>
        <time>2019-06-15T09:11:12Z</time>
      </trkpt>
      <trkpt lat="46.66545" lon="5.82526">
        <ele>589.43</ele>
        <time>2019-06-15T09:11:24Z</time>
      </trkpt>
      <trkpt lat="46.66534" lon="5.82538">
        <ele>588.95</ele>
        <time>2019-06-15T09:11:34Z</time>
      </trkpt>
      <trkpt lat="46.66518" lon="5.82548">
        <ele>588.46</ele>
        <time>2019-06-15T09:11:48Z</time>
      </trkpt>
      <trkpt lat="46.66509" lon="5.82552">
        <ele>587.98</ele>
        <time>2019-06-15T09:11:55Z</time>
      </trkpt>
      <trkpt lat="46.6649" lon="5.82557">
        <ele>587.5</ele>
        <time>2019-06-15T09:12:08Z</time>
      </trkpt>
      <trkpt lat="46.66489" lon="5.82557">
        <ele>587.5</ele>
        <time>2019-06-15T09:12:09Z</time>
      </trkpt>
      <trkpt lat="46.66469" lon="5.82566">
        <ele>586.54</ele>
        <time>2019-06-15T09:12:24Z</time>
      </trkpt>
      <trkpt lat="46.66466" lon="5.82567">
        <ele>586.54</ele>
        <time>2019-06-15T09:12:26Z</time>
      </trkpt>
      <trkpt lat="46.66442" lon="5.82568">
        <ele>586.06</ele>
        <time>2019-06-15T09:12:44Z</time>
      </trkpt>
      <trkpt lat="46.66426" lon="5.82565">
        <ele>586.06</ele>
        <time>2019-06-15T09:12:57Z</time>
      </trkpt>
      <trkpt lat="46.66408" lon="5.82562">
        <ele>585.1</ele>
        <time>2019-06-15T09:13:12Z</time>
      </trkpt>
      <trkpt lat="46.66393" lon="5.82566">
        <ele>584.62</ele>
        <time>2019-06-15T09:13:26Z</time>
      </trkpt>
      <trkpt lat="46.66389" lon="5.82572">
        <ele>584.62</ele>
        <time>2019-06-15T09:13:32Z</time>
      </trkpt>
      <trkpt lat="46.66386" lon="5.82577">
        <ele>584.14</ele>
        <time>2019-06-15T09:13:36Z</time>
      </trkpt>
      <trkpt lat="46.66374" lon="5.82601">
        <ele>583.18</ele>
        <time>2019-06-15T09:13:48Z</time>
      </trkpt>
      <trkpt lat="46.66369" lon="5.82608">
        <ele>582.7</ele>
        <time>2019-06-15T09:13:58Z</time>
      </trkpt>
      <trkpt lat="46.66365" lon="5.82607">
        <ele>581.73</ele>
        <time>2019-06-15T09:14:00Z</time>
      </trkpt>
      <trkpt lat="46.66362" lon="5.82604">
        <ele>580.77</ele>
        <time>2019-06-15T09:14:15Z</time>
      </trkpt>
      <trkpt lat="46.66362" lon="5.82603">
        <ele>581.25</ele>
        <time>2019-06-15T09:14:29Z</time>
      </trkpt>
      <trkpt lat="46.66362" lon="5.82604">
        <ele>581.25</ele>
        <time>2019-06-15T09:14:46Z</time>
      </trkpt>
      <trkpt lat="46.66361" lon="5.82601">
        <ele>580.77</ele>
        <time>2019-06-15T09:15:00Z</time>
      </trkpt>
      <trkpt lat="46.66363" lon="5.82584">
        <ele>581.25</ele>
        <time>2019-06-15T09:15:09Z</time>
      </trkpt>
      <trkpt lat="46.66362" lon="5.82575">
        <ele>581.73</ele>
        <time>2019-06-15T09:15:13Z</time>
      </trkpt>
      <trkpt lat="46.66361" lon="5.82568">
        <ele>581.25</ele>
        <time>2019-06-15T09:15:16Z</time>
      </trkpt>
      <trkpt lat="46.66362" lon="5.8256">
        <ele>581.73</ele>
        <time>2019-06-15T09:15:20Z</time>
      </trkpt>
      <trkpt lat="46.66367" lon="5.82537">
        <ele>581.25</ele>
        <time>2019-06-15T09:15:31Z</time>
      </trkpt>
      <trkpt lat="46.66367" lon="5.82531">
        <ele>581.73</ele>
        <time>2019-06-15T09:15:34Z</time>
      </trkpt>
      <trkpt lat="46.6637" lon="5.82511">
        <ele>581.73</ele>
        <time>2019-06-15T09:15:43Z</time>
      </trkpt>
      <trkpt lat="46.66375" lon="5.82493">
        <ele>581.73</ele>
        <time>2019-06-15T09:15:53Z</time>
      </trkpt>
      <trkpt lat="46.66374" lon="5.82486">
        <ele>582.22</ele>
        <time>2019-06-15T09:15:58Z</time>
      </trkpt>
      <trkpt lat="46.66373" lon="5.82474">
        <ele>582.22</ele>
        <time>2019-06-15T09:16:05Z</time>
      </trkpt>
      <trkpt lat="46.66373" lon="5.82463">
        <ele>582.22</ele>
        <time>2019-06-15T09:16:12Z</time>
      </trkpt>
      <trkpt lat="46.66372" lon="5.82456">
        <ele>582.22</ele>
        <time>2019-06-15T09:16:16Z</time>
      </trkpt>
      <trkpt lat="46.66373" lon="5.82449">
        <ele>582.22</ele>
        <time>2019-06-15T09:16:20Z</time>
      </trkpt>
      <trkpt lat="46.66372" lon="5.82447">
        <ele>582.22</ele>
        <time>2019-06-15T09:16:22Z</time>
      </trkpt>
      <trkpt lat="46.66372" lon="5.82433">
        <ele>582.22</ele>
        <time>2019-06-15T09:16:27Z</time>
      </trkpt>
      <trkpt lat="46.66372" lon="5.82429">
        <ele>583.18</ele>
        <time>2019-06-15T09:16:29Z</time>
      </trkpt>
      <trkpt lat="46.66373" lon="5.82426">
        <ele>582.7</ele>
        <time>2019-06-15T09:16:31Z</time>
      </trkpt>
      <trkpt lat="46.66372" lon="5.82413">
        <ele>583.18</ele>
        <time>2019-06-15T09:16:37Z</time>
      </trkpt>
      <trkpt lat="46.66372" lon="5.82408">
        <ele>583.18</ele>
        <time>2019-06-15T09:16:40Z</time>
      </trkpt>
      <trkpt lat="46.66371" lon="5.82392">
        <ele>583.18</ele>
        <time>2019-06-15T09:16:48Z</time>
      </trkpt>
      <trkpt lat="46.6637" lon="5.8237">
        <ele>583.18</ele>
        <time>2019-06-15T09:17:00Z</time>
      </trkpt>
      <trkpt lat="46.6637" lon="5.82355">
        <ele>583.66</ele>
        <time>2019-06-15T09:17:09Z</time>
      </trkpt>
      <trkpt lat="46.66369" lon="5.82347">
        <ele>583.18</ele>
        <time>2019-06-15T09:17:13Z</time>
      </trkpt>
      <trkpt lat="46.6637" lon="5.82331">
        <ele>583.66</ele>
        <time>2019-06-15T09:17:22Z</time>
      </trkpt>
      <trkpt lat="46.6637" lon="5.8233">
        <ele>583.66</ele>
        <time>2019-06-15T09:17:23Z</time>
      </trkpt>
      <trkpt lat="46.6637" lon="5.82324">
        <ele>583.66</ele>
        <time>2019-06-15T09:17:26Z</time>
      </trkpt>
      <trkpt lat="46.66369" lon="5.82311">
        <ele>584.14</ele>
        <time>2019-06-15T09:17:33Z</time>
      </trkpt>
      <trkpt lat="46.66371" lon="5.82305">
        <ele>584.14</ele>
        <time>2019-06-15T09:17:37Z</time>
      </trkpt>
      <trkpt lat="46.66374" lon="5.82285">
        <ele>584.62</ele>
        <time>2019-06-15T09:17:47Z</time>
      </trkpt>
      <trkpt lat="46.66375" lon="5.82262">
        <ele>584.62</ele>
        <time>2019-06-15T09:17:58Z</time>
      </trkpt>
      <trkpt lat="46.66375" lon="5.82251">
        <ele>584.62</ele>
        <time>2019-06-15T09:18:03Z</time>
      </trkpt>
      <trkpt lat="46.66375" lon="5.82234">
        <ele>584.62</ele>
        <time>2019-06-15T09:18:11Z</time>
      </trkpt>
      <trkpt lat="46.6637" lon="5.82212">
        <ele>584.14</ele>
        <time>2019-06-15T09:18:24Z</time>
      </trkpt>
      <trkpt lat="46.66368" lon="5.82199">
        <ele>583.66</ele>
        <time>2019-06-15T09:18:38Z</time>
      </trkpt>
      <trkpt lat="46.66368" lon="5.82196">
        <ele>583.18</ele>
        <time>2019-06-15T09:18:57Z</time>
      </trkpt>
      <trkpt lat="46.66372" lon="5.82191">
        <ele>581.73</ele>
        <time>2019-06-15T09:19:15Z</time>
      </trkpt>
      <trkpt lat="46.66378" lon="5.82183">
        <ele>581.25</ele>
        <time>2019-06-15T09:19:21Z</time>
      </trkpt>
      <trkpt lat="46.66374" lon="5.8217">
        <ele>580.77</ele>
        <time>2019-06-15T09:19:27Z</time>
      </trkpt>
      <trkpt lat="46.66372" lon="5.82152">
        <ele>581.25</ele>
        <time>2019-06-15T09:19:35Z</time>
      </trkpt>
      <trkpt lat="46.66371" lon="5.82149">
        <ele>581.25</ele>
        <time>2019-06-15T09:19:37Z</time>
      </trkpt>
      <trkpt lat="46.66361" lon="5.82131">
        <ele>580.77</ele>
        <time>2019-06-15T09:19:51Z</time>
      </trkpt>
      <trkpt lat="46.6635" lon="5.82111">
        <ele>580.77</ele>
        <time>2019-06-15T09:20:04Z</time>
      </trkpt>
      <trkpt lat="46.66348" lon="5.82102">
        <ele>580.77</ele>
        <time>2019-06-15T09:20:13Z</time>
      </trkpt>
      <trkpt lat="46.66342" lon="5.8209">
        <ele>580.77</ele>
        <time>2019-06-15T09:20:23Z</time>
      </trkpt>
      <trkpt lat="46.66336" lon="5.82073">
        <ele>579.81</ele>
        <time>2019-06-15T09:20:35Z</time>
      </trkpt>
      <trkpt lat="46.66332" lon="5.8207">
        <ele>578.85</ele>
        <time>2019-06-15T09:20:41Z</time>
      </trkpt>
      <trkpt lat="46.66332" lon="5.82063">
        <ele>579.33</ele>
        <time>2019-06-15T09:20:52Z</time>
      </trkpt>
      <trkpt lat="46.66334" lon="5.82058">
        <ele>579.33</ele>
        <time>2019-06-15T09:20:58Z</time>
      </trkpt>
      <trkpt lat="46.66341" lon="5.82034">
        <ele>579.81</ele>
        <time>2019-06-15T09:21:09Z</time>
      </trkpt>
      <trkpt lat="46.66342" lon="5.82017">
        <ele>579.81</ele>
        <time>2019-06-15T09:21:19Z</time>
      </trkpt>
      <trkpt lat="46.66342" lon="5.82014">
        <ele>579.81</ele>
        <time>2019-06-15T09:21:21Z</time>
      </trkpt>
      <trkpt lat="46.66342" lon="5.81996">
        <ele>579.81</ele>
        <time>2019-06-15T09:21:34Z</time>
      </trkpt>
      <trkpt lat="46.66347" lon="5.81977">
        <ele>578.85</ele>
        <time>2019-06-15T09:21:46Z</time>
      </trkpt>
      <trkpt lat="46.66347" lon="5.81956">
        <ele>579.81</ele>
        <time>2019-06-15T09:21:57Z</time>
      </trkpt>
      <trkpt lat="46.66346" lon="5.81939">
        <ele>582.7</ele>
        <time>2019-06-15T09:22:10Z</time>
      </trkpt>
      <trkpt lat="46.66342" lon="5.81924">
        <ele>584.14</ele>
        <time>2019-06-15T09:22:21Z</time>
      </trkpt>
      <trkpt lat="46.66342" lon="5.81923">
        <ele>583.66</ele>
        <time>2019-06-15T09:22:22Z</time>
      </trkpt>
      <trkpt lat="46.66339" lon="5.81915">
        <ele>583.18</ele>
        <time>2019-06-15T09:22:30Z</time>
      </trkpt>
      <trkpt lat="46.66337" lon="5.81912">
        <ele>582.22</ele>
        <time>2019-06-15T09:22:33Z</time>
      </trkpt>
      <trkpt lat="46.66331" lon="5.81896">
        <ele>581.25</ele>
        <time>2019-06-15T09:22:44Z</time>
      </trkpt>
      <trkpt lat="46.66328" lon="5.81894">
        <ele>581.25</ele>
        <time>2019-06-15T09:22:49Z</time>
      </trkpt>
      <trkpt lat="46.66318" lon="5.81883">
        <ele>578.85</ele>
        <time>2019-06-15T09:23:02Z</time>
      </trkpt>
      <trkpt lat="46.66309" lon="5.81871">
        <ele>577.41</ele>
        <time>2019-06-15T09:23:13Z</time>
      </trkpt>
      <trkpt lat="46.66302" lon="5.81863">
        <ele>578.85</ele>
        <time>2019-06-15T09:23:23Z</time>
      </trkpt>
      <trkpt lat="46.663" lon="5.81861">
        <ele>579.33</ele>
        <time>2019-06-15T09:23:25Z</time>
      </trkpt>
      <trkpt lat="46.66296" lon="5.81856">
        <ele>579.81</ele>
        <time>2019-06-15T09:23:33Z</time>
      </trkpt>
      <trkpt lat="46.66285" lon="5.81843">
        <ele>580.77</ele>
        <time>2019-06-15T09:23:44Z</time>
      </trkpt>
      <trkpt lat="46.6628" lon="5.81831">
        <ele>582.22</ele>
        <time>2019-06-15T09:23:55Z</time>
      </trkpt>
      <trkpt lat="46.6628" lon="5.81807">
        <ele>584.14</ele>
        <time>2019-06-15T09:24:07Z</time>
      </trkpt>
      <trkpt lat="46.66285" lon="5.81791">
        <ele>585.1</ele>
        <time>2019-06-15T09:24:20Z</time>
      </trkpt>
      <trkpt lat="46.66287" lon="5.81787">
        <ele>585.1</ele>
        <time>2019-06-15T09:24:22Z</time>
      </trkpt>
      <trkpt lat="46.6629" lon="5.81782">
        <ele>585.1</ele>
        <time>2019-06-15T09:24:25Z</time>
      </trkpt>
      <trkpt lat="46.66293" lon="5.81776">
        <ele>584.62</ele>
        <time>2019-06-15T09:24:29Z</time>
      </trkpt>
      <trkpt lat="46.66308" lon="5.81743">
        <ele>586.06</ele>
        <time>2019-06-15T09:24:43Z</time>
      </trkpt>
      <trkpt lat="46.66312" lon="5.81717">
        <ele>587.02</ele>
        <time>2019-06-15T09:24:56Z</time>
      </trkpt>
      <trkpt lat="46.66313" lon="5.81696">
        <ele>587.02</ele>
        <time>2019-06-15T09:25:09Z</time>
      </trkpt>
      <trkpt lat="46.66314" lon="5.81675">
        <ele>584.62</ele>
        <time>2019-06-15T09:25:22Z</time>
      </trkpt>
      <trkpt lat="46.66315" lon="5.81654">
        <ele>584.14</ele>
        <time>2019-06-15T09:25:34Z</time>
      </trkpt>
      <trkpt lat="46.66315" lon="5.81651">
        <ele>583.18</ele>
        <time>2019-06-15T09:25:49Z</time>
      </trkpt>
      <trkpt lat="46.66316" lon="5.81639">
        <ele>583.18</ele>
        <time>2019-06-15T09:26:06Z</time>
      </trkpt>
      <trkpt lat="46.66316" lon="5.8164">
        <ele>583.18</ele>
        <time>2019-06-15T09:26:31Z</time>
      </trkpt>
      <trkpt lat="46.66315" lon="5.81641">
        <ele>583.18</ele>
        <time>2019-06-15T09:26:58Z</time>
      </trkpt>
      <trkpt lat="46.66312" lon="5.81642">
        <ele>584.14</ele>
        <time>2019-06-15T09:27:21Z</time>
      </trkpt>
      <trkpt lat="46.6631" lon="5.81644">
        <ele>585.1</ele>
        <time>2019-06-15T09:27:39Z</time>
      </trkpt>
      <trkpt lat="46.66308" lon="5.81645">
        <ele>585.1</ele>
        <time>2019-06-15T09:28:01Z</time>
      </trkpt>
      <trkpt lat="46.66308" lon="5.81644">
        <ele>585.1</ele>
        <time>2019-06-15T09:28:24Z</time>
      </trkpt>
      <trkpt lat="46.66309" lon="5.81644">
        <ele>585.1</ele>
        <time>2019-06-15T09:28:49Z</time>
      </trkpt>
      <trkpt lat="46.66305" lon="5.81646">
        <ele>585.58</ele>
        <time>2019-06-15T09:29:09Z</time>
      </trkpt>
      <trkpt lat="46.66298" lon="5.81647">
        <ele>586.54</ele>
        <time>2019-06-15T09:29:21Z</time>
      </trkpt>
      <trkpt lat="46.66282" lon="5.8165">
        <ele>585.58</ele>
        <time>2019-06-15T09:29:33Z</time>
      </trkpt>
      <trkpt lat="46.66269" lon="5.81652">
        <ele>585.1</ele>
        <time>2019-06-15T09:29:43Z</time>
      </trkpt>
      <trkpt lat="46.66266" lon="5.81655">
        <ele>585.58</ele>
        <time>2019-06-15T09:29:46Z</time>
      </trkpt>
      <trkpt lat="46.66251" lon="5.81656">
        <ele>586.06</ele>
        <time>2019-06-15T09:29:58Z</time>
      </trkpt>
      <trkpt lat="46.6624" lon="5.81653">
        <ele>585.58</ele>
        <time>2019-06-15T09:30:08Z</time>
      </trkpt>
      <trkpt lat="46.66229" lon="5.8165">
        <ele>586.06</ele>
        <time>2019-06-15T09:30:18Z</time>
      </trkpt>
      <trkpt lat="46.66218" lon="5.81646">
        <ele>585.58</ele>
        <time>2019-06-15T09:30:28Z</time>
      </trkpt>
      <trkpt lat="46.66209" lon="5.81638">
        <ele>584.62</ele>
        <time>2019-06-15T09:30:38Z</time>
      </trkpt>
      <trkpt lat="46.662" lon="5.81629">
        <ele>583.66</ele>
        <time>2019-06-15T09:30:49Z</time>
      </trkpt>
      <trkpt lat="46.66197" lon="5.81625">
        <ele>583.18</ele>
        <time>2019-06-15T09:30:54Z</time>
      </trkpt>
      <trkpt lat="46.66188" lon="5.81618">
        <ele>581.25</ele>
        <time>2019-06-15T09:31:06Z</time>
      </trkpt>
      <trkpt lat="46.66184" lon="5.81614">
        <ele>579.33</ele>
        <time>2019-06-15T09:31:25Z</time>
      </trkpt>
      <trkpt lat="46.66185" lon="5.81603">
        <ele>579.81</ele>
        <time>2019-06-15T09:31:37Z</time>
      </trkpt>
      <trkpt lat="46.66181" lon="5.81603">
        <ele>580.77</ele>
        <time>2019-06-15T09:31:45Z</time>
      </trkpt>
      <trkpt lat="46.66175" lon="5.81602">
        <ele>581.25</ele>
        <time>2019-06-15T09:31:51Z</time>
      </trkpt>
      <trkpt lat="46.66167" lon="5.81596">
        <ele>581.25</ele>
        <time>2019-06-15T09:32:03Z</time>
      </trkpt>
      <trkpt lat="46.66163" lon="5.81592">
        <ele>581.25</ele>
        <time>2019-06-15T09:32:21Z</time>
      </trkpt>
      <trkpt lat="46.66161" lon="5.81589">
        <ele>581.25</ele>
        <time>2019-06-15T09:32:25Z</time>
      </trkpt>
      <trkpt lat="46.66149" lon="5.81572">
        <ele>580.77</ele>
        <time>2019-06-15T09:32:37Z</time>
      </trkpt>
      <trkpt lat="46.66143" lon="5.81561">
        <ele>581.25</ele>
        <time>2019-06-15T09:32:46Z</time>
      </trkpt>
      <trkpt lat="46.66138" lon="5.81545">
        <ele>582.22</ele>
        <time>2019-06-15T09:32:57Z</time>
      </trkpt>
      <trkpt lat="46.66128" lon="5.8153">
        <ele>581.73</ele>
        <time>2019-06-15T09:33:07Z</time>
      </trkpt>
      <trkpt lat="46.66122" lon="5.81516">
        <ele>581.73</ele>
        <time>2019-06-15T09:33:17Z</time>
      </trkpt>
      <trkpt lat="46.66116" lon="5.81502">
        <ele>582.22</ele>
        <time>2019-06-15T09:33:26Z</time>
      </trkpt>
      <trkpt lat="46.66113" lon="5.81491">
        <ele>583.66</ele>
        <time>2019-06-15T09:33:36Z</time>
      </trkpt>
      <trkpt lat="46.6611" lon="5.81472">
        <ele>585.58</ele>
        <time>2019-06-15T09:33:49Z</time>
      </trkpt>
      <trkpt lat="46.66105" lon="5.81459">
        <ele>587.5</ele>
        <time>2019-06-15T09:34:01Z</time>
      </trkpt>
      <trkpt lat="46.66105" lon="5.81444">
        <ele>585.1</ele>
        <time>2019-06-15T09:34:10Z</time>
      </trkpt>
      <trkpt lat="46.66109" lon="5.81427">
        <ele>583.18</ele>
        <time>2019-06-15T09:34:20Z</time>
      </trkpt>
      <trkpt lat="46.66106" lon="5.81417">
        <ele>582.7</ele>
        <time>2019-06-15T09:34:30Z</time>
      </trkpt>
      <trkpt lat="46.66105" lon="5.81398">
        <ele>582.7</ele>
        <time>2019-06-15T09:34:39Z</time>
      </trkpt>
      <trkpt lat="46.66105" lon="5.81378">
        <ele>581.73</ele>
        <time>2019-06-15T09:34:49Z</time>
      </trkpt>
      <trkpt lat="46.6611" lon="5.81359">
        <ele>582.7</ele>
        <time>2019-06-15T09:35:00Z</time>
      </trkpt>
      <trkpt lat="46.66119" lon="5.81334">
        <ele>583.66</ele>
        <time>2019-06-15T09:35:11Z</time>
      </trkpt>
      <trkpt lat="46.66123" lon="5.81316">
        <ele>583.66</ele>
        <time>2019-06-15T09:35:21Z</time>
      </trkpt>
      <trkpt lat="46.66128" lon="5.81299">
        <ele>584.62</ele>
        <time>2019-06-15T09:35:31Z</time>
      </trkpt>
      <trkpt lat="46.66134" lon="5.81274">
        <ele>585.1</ele>
        <time>2019-06-15T09:35:42Z</time>
      </trkpt>
      <trkpt lat="46.66142" lon="5.81255">
        <ele>585.1</ele>
        <time>2019-06-15T09:35:53Z</time>
      </trkpt>
      <trkpt lat="46.66152" lon="5.81236">
        <ele>584.62</ele>
        <time>2019-06-15T09:36:05Z</time>
      </trkpt>
      <trkpt lat="46.66162" lon="5.81221">
        <ele>584.62</ele>
        <time>2019-06-15T09:36:15Z</time>
      </trkpt>
      <trkpt lat="46.66168" lon="5.8121">
        <ele>583.66</ele>
        <time>2019-06-15T09:36:26Z</time>
      </trkpt>
      <trkpt lat="46.66175" lon="5.81202">
        <ele>584.14</ele>
        <time>2019-06-15T09:36:33Z</time>
      </trkpt>
      <trkpt lat="46.66186" lon="5.81186">
        <ele>585.1</ele>
        <time>2019-06-15T09:36:45Z</time>
      </trkpt>
      <trkpt lat="46.66194" lon="5.81169">
        <ele>583.66</ele>
        <time>2019-06-15T09:36:55Z</time>
      </trkpt>
      <trkpt lat="46.66202" lon="5.81157">
        <ele>583.66</ele>
        <time>2019-06-15T09:37:03Z</time>
      </trkpt>
      <trkpt lat="46.66211" lon="5.81144">
        <ele>583.66</ele>
        <time>2019-06-15T09:37:15Z</time>
      </trkpt>
      <trkpt lat="46.66218" lon="5.8113">
        <ele>584.62</ele>
        <time>2019-06-15T09:37:27Z</time>
      </trkpt>
      <trkpt lat="46.66232" lon="5.81113">
        <ele>583.66</ele>
        <time>2019-06-15T09:37:41Z</time>
      </trkpt>
      <trkpt lat="46.66246" lon="5.81102">
        <ele>584.62</ele>
        <time>2019-06-15T09:37:55Z</time>
      </trkpt>
      <trkpt lat="46.66258" lon="5.81084">
        <ele>586.54</ele>
        <time>2019-06-15T09:38:08Z</time>
      </trkpt>
      <trkpt lat="46.66274" lon="5.81067">
        <ele>587.02</ele>
        <time>2019-06-15T09:38:20Z</time>
      </trkpt>
      <trkpt lat="46.66282" lon="5.81052">
        <ele>585.1</ele>
        <time>2019-06-15T09:38:32Z</time>
      </trkpt>
      <trkpt lat="46.66289" lon="5.81043">
        <ele>583.18</ele>
        <time>2019-06-15T09:38:40Z</time>
      </trkpt>
      <trkpt lat="46.66297" lon="5.81029">
        <ele>583.66</ele>
        <time>2019-06-15T09:38:53Z</time>
      </trkpt>
      <trkpt lat="46.66308" lon="5.81019">
        <ele>583.66</ele>
        <time>2019-06-15T09:39:05Z</time>
      </trkpt>
      <trkpt lat="46.66316" lon="5.81021">
        <ele>583.66</ele>
        <time>2019-06-15T09:39:19Z</time>
      </trkpt>
      <trkpt lat="46.66314" lon="5.8102">
        <ele>583.66</ele>
        <time>2019-06-15T09:39:43Z</time>
      </trkpt>
      <trkpt lat="46.66317" lon="5.81011">
        <ele>584.62</ele>
        <time>2019-06-15T09:40:01Z</time>
      </trkpt>
      <trkpt lat="46.6632" lon="5.81003">
        <ele>586.54</ele>
        <time>2019-06-15T09:40:11Z</time>
      </trkpt>
      <trkpt lat="46.66326" lon="5.80989">
        <ele>587.98</ele>
        <time>2019-06-15T09:40:22Z</time>
      </trkpt>
      <trkpt lat="46.66333" lon="5.80974">
        <ele>588.46</ele>
        <time>2019-06-15T09:40:32Z</time>
      </trkpt>
      <trkpt lat="46.66336" lon="5.80967">
        <ele>588.95</ele>
        <time>2019-06-15T09:40:38Z</time>
      </trkpt>
      <trkpt lat="46.66345" lon="5.8095">
        <ele>589.43</ele>
        <time>2019-06-15T09:40:50Z</time>
      </trkpt>
      <trkpt lat="46.6635" lon="5.80938">
        <ele>589.91</ele>
        <time>2019-06-15T09:41:01Z</time>
      </trkpt>
      <trkpt lat="46.66359" lon="5.80919">
        <ele>587.98</ele>
        <time>2019-06-15T09:41:14Z</time>
      </trkpt>
      <trkpt lat="46.66367" lon="5.80898">
        <ele>586.54</ele>
        <time>2019-06-15T09:41:25Z</time>
      </trkpt>
      <trkpt lat="46.66371" lon="5.80881">
        <ele>585.58</ele>
        <time>2019-06-15T09:41:37Z</time>
      </trkpt>
      <trkpt lat="46.6638" lon="5.80862">
        <ele>585.58</ele>
        <time>2019-06-15T09:41:48Z</time>
      </trkpt>
      <trkpt lat="46.66385" lon="5.80858">
        <ele>585.58</ele>
        <time>2019-06-15T09:41:55Z</time>
      </trkpt>
      <trkpt lat="46.66394" lon="5.80843">
        <ele>586.54</ele>
        <time>2019-06-15T09:42:08Z</time>
      </trkpt>
      <trkpt lat="46.66406" lon="5.80824">
        <ele>587.98</ele>
        <time>2019-06-15T09:42:19Z</time>
      </trkpt>
      <trkpt lat="46.6641" lon="5.80817">
        <ele>587.5</ele>
        <time>2019-06-15T09:42:23Z</time>
      </trkpt>
      <trkpt lat="46.66411" lon="5.80814">
        <ele>587.98</ele>
        <time>2019-06-15T09:42:25Z</time>
      </trkpt>
      <trkpt lat="46.66418" lon="5.80797">
        <ele>586.54</ele>
        <time>2019-06-15T09:42:36Z</time>
      </trkpt>
      <trkpt lat="46.66426" lon="5.80781">
        <ele>586.06</ele>
        <time>2019-06-15T09:42:48Z</time>
      </trkpt>
      <trkpt lat="46.66429" lon="5.8077">
        <ele>586.06</ele>
        <time>2019-06-15T09:42:59Z</time>
      </trkpt>
      <trkpt lat="46.66437" lon="5.80758">
        <ele>585.1</ele>
        <time>2019-06-15T09:43:11Z</time>
      </trkpt>
      <trkpt lat="46.66444" lon="5.80732">
        <ele>583.66</ele>
        <time>2019-06-15T09:43:24Z</time>
      </trkpt>
      <trkpt lat="46.66449" lon="5.80712">
        <ele>582.22</ele>
        <time>2019-06-15T09:43:38Z</time>
      </trkpt>
      <trkpt lat="46.66453" lon="5.80702">
        <ele>580.77</ele>
        <time>2019-06-15T09:43:48Z</time>
      </trkpt>
      <trkpt lat="46.66454" lon="5.80687">
        <ele>579.33</ele>
        <time>2019-06-15T09:44:02Z</time>
      </trkpt>
      <trkpt lat="46.66458" lon="5.80674">
        <ele>578.85</ele>
        <time>2019-06-15T09:44:12Z</time>
      </trkpt>
      <trkpt lat="46.66468" lon="5.80658">
        <ele>578.85</ele>
        <time>2019-06-15T09:44:24Z</time>
      </trkpt>
      <trkpt lat="46.66473" lon="5.80642">
        <ele>579.33</ele>
        <time>2019-06-15T09:44:30Z</time>
      </trkpt>
      <trkpt lat="46.66479" lon="5.80626">
        <ele>579.33</ele>
        <time>2019-06-15T09:44:42Z</time>
      </trkpt>
      <trkpt lat="46.66483" lon="5.80611">
        <ele>579.81</ele>
        <time>2019-06-15T09:44:54Z</time>
      </trkpt>
      <trkpt lat="46.6648" lon="5.80598">
        <ele>579.81</ele>
        <time>2019-06-15T09:45:06Z</time>
      </trkpt>
      <trkpt lat="46.66477" lon="5.80594">
        <ele>579.81</ele>
        <time>2019-06-15T09:45:09Z</time>
      </trkpt>
      <trkpt lat="46.66471" lon="5.80575">
        <ele>580.29</ele>
        <time>2019-06-15T09:45:21Z</time>
      </trkpt>
      <trkpt lat="46.66467" lon="5.80559">
        <ele>580.77</ele>
        <time>2019-06-15T09:45:31Z</time>
      </trkpt>
      <trkpt lat="46.66465" lon="5.80553">
        <ele>581.25</ele>
        <time>2019-06-15T09:45:38Z</time>
      </trkpt>
      <trkpt lat="46.66458" lon="5.80539">
        <ele>581.25</ele>
        <time>2019-06-15T09:45:49Z</time>
      </trkpt>
      <trkpt lat="46.6645" lon="5.80524">
        <ele>580.77</ele>
        <time>2019-06-15T09:46:01Z</time>
      </trkpt>
      <trkpt lat="46.66441" lon="5.80511">
        <ele>580.77</ele>
        <time>2019-06-15T09:46:15Z</time>
      </trkpt>
      <trkpt lat="46.66434" lon="5.80504">
        <ele>580.77</ele>
        <time>2019-06-15T09:46:19Z</time>
      </trkpt>
      <trkpt lat="46.66429" lon="5.80494">
        <ele>581.25</ele>
        <time>2019-06-15T09:46:26Z</time>
      </trkpt>
      <trkpt lat="46.66427" lon="5.80477">
        <ele>581.73</ele>
        <time>2019-06-15T09:46:39Z</time>
      </trkpt>
      <trkpt lat="46.66425" lon="5.80473">
        <ele>582.22</ele>
        <time>2019-06-15T09:46:44Z</time>
      </trkpt>
      <trkpt lat="46.66418" lon="5.80454">
        <ele>582.22</ele>
        <time>2019-06-15T09:46:55Z</time>
      </trkpt>
      <trkpt lat="46.6642" lon="5.80436">
        <ele>581.73</ele>
        <time>2019-06-15T09:47:05Z</time>
      </trkpt>
      <trkpt lat="46.66427" lon="5.8042">
        <ele>582.7</ele>
        <time>2019-06-15T09:47:16Z</time>
      </trkpt>
      <trkpt lat="46.66436" lon="5.80417">
        <ele>583.18</ele>
        <time>2019-06-15T09:47:25Z</time>
      </trkpt>
      <trkpt lat="46.66444" lon="5.80405">
        <ele>583.66</ele>
        <time>2019-06-15T09:47:34Z</time>
      </trkpt>
      <trkpt lat="46.66451" lon="5.80384">
        <ele>583.66</ele>
        <time>2019-06-15T09:47:47Z</time>
      </trkpt>
      <trkpt lat="46.66457" lon="5.80372">
        <ele>584.62</ele>
        <time>2019-06-15T09:47:58Z</time>
      </trkpt>
      <trkpt lat="46.66464" lon="5.80361">
        <ele>584.62</ele>
        <time>2019-06-15T09:48:07Z</time>
      </trkpt>
      <trkpt lat="46.66471" lon="5.80347">
        <ele>585.1</ele>
        <time>2019-06-15T09:48:19Z</time>
      </trkpt>
      <trkpt lat="46.66473" lon="5.80334">
        <ele>585.1</ele>
        <time>2019-06-15T09:48:29Z</time>
      </trkpt>
      <trkpt lat="46.66481" lon="5.80317">
        <ele>585.58</ele>
        <time>2019-06-15T09:48:41Z</time>
      </trkpt>
      <trkpt lat="46.66488" lon="5.80299">
        <ele>586.06</ele>
        <time>2019-06-15T09:48:54Z</time>
      </trkpt>
      <trkpt lat="46.66491" lon="5.8029">
        <ele>586.54</ele>
        <time>2019-06-15T09:49:01Z</time>
      </trkpt>
      <trkpt lat="46.66495" lon="5.80275">
        <ele>587.02</ele>
        <time>2019-06-15T09:49:08Z</time>
      </trkpt>
      <trkpt lat="46.66496" lon="5.80264">
        <ele>587.02</ele>
        <time>2019-06-15T09:49:14Z</time>
      </trkpt>
      <trkpt lat="46.66496" lon="5.80248">
        <ele>587.5</ele>
        <time>2019-06-15T09:49:23Z</time>
      </trkpt>
      <trkpt lat="46.665" lon="5.80232">
        <ele>587.98</ele>
        <time>2019-06-15T09:49:32Z</time>
      </trkpt>
      <trkpt lat="46.66502" lon="5.80218">
        <ele>587.98</ele>
        <time>2019-06-15T09:49:42Z</time>
      </trkpt>
      <trkpt lat="46.66503" lon="5.80204">
        <ele>588.46</ele>
        <time>2019-06-15T09:49:52Z</time>
      </trkpt>
      <trkpt lat="46.66509" lon="5.80185">
        <ele>588.46</ele>
        <time>2019-06-15T09:50:03Z</time>
      </trkpt>
      <trkpt lat="46.6651" lon="5.8018">
        <ele>587.98</ele>
        <time>2019-06-15T09:50:09Z</time>
      </trkpt>
      <trkpt lat="46.66512" lon="5.80174">
        <ele>588.46</ele>
        <time>2019-06-15T09:50:13Z</time>
      </trkpt>
      <trkpt lat="46.66515" lon="5.80156">
        <ele>588.46</ele>
        <time>2019-06-15T09:50:24Z</time>
      </trkpt>
      <trkpt lat="46.6651" lon="5.80144">
        <ele>588.95</ele>
        <time>2019-06-15T09:50:37Z</time>
      </trkpt>
      <trkpt lat="46.66503" lon="5.80136">
        <ele>588.95</ele>
        <time>2019-06-15T09:50:47Z</time>
      </trkpt>
      <trkpt lat="46.66499" lon="5.8013">
        <ele>587.5</ele>
        <time>2019-06-15T09:50:59Z</time>
      </trkpt>
      <trkpt lat="46.6649" lon="5.80115">
        <ele>588.95</ele>
        <time>2019-06-15T09:51:09Z</time>
      </trkpt>
      <trkpt lat="46.66476" lon="5.8009">
        <ele>590.39</ele>
        <time>2019-06-15T09:51:23Z</time>
      </trkpt>
      <trkpt lat="46.66473" lon="5.8007">
        <ele>591.35</ele>
        <time>2019-06-15T09:51:37Z</time>
      </trkpt>
      <trkpt lat="46.66474" lon="5.80052">
        <ele>591.83</ele>
        <time>2019-06-15T09:51:47Z</time>
      </trkpt>
      <trkpt lat="46.66475" lon="5.80033">
        <ele>592.31</ele>
        <time>2019-06-15T09:51:59Z</time>
      </trkpt>
      <trkpt lat="46.66477" lon="5.80023">
        <ele>591.83</ele>
        <time>2019-06-15T09:52:04Z</time>
      </trkpt>
      <trkpt lat="46.6648" lon="5.80012">
        <ele>592.79</ele>
        <time>2019-06-15T09:52:14Z</time>
      </trkpt>
      <trkpt lat="46.66483" lon="5.79994">
        <ele>592.79</ele>
        <time>2019-06-15T09:52:26Z</time>
      </trkpt>
      <trkpt lat="46.66485" lon="5.79975">
        <ele>593.27</ele>
        <time>2019-06-15T09:52:36Z</time>
      </trkpt>
      <trkpt lat="46.66483" lon="5.79962">
        <ele>592.79</ele>
        <time>2019-06-15T09:52:48Z</time>
      </trkpt>
      <trkpt lat="46.66484" lon="5.79957">
        <ele>592.31</ele>
        <time>2019-06-15T09:52:51Z</time>
      </trkpt>
      <trkpt lat="46.66485" lon="5.79934">
        <ele>592.79</ele>
        <time>2019-06-15T09:53:03Z</time>
      </trkpt>
      <trkpt lat="46.66485" lon="5.79912">
        <ele>593.27</ele>
        <time>2019-06-15T09:53:16Z</time>
      </trkpt>
      <trkpt lat="46.66484" lon="5.799">
        <ele>593.27</ele>
        <time>2019-06-15T09:53:22Z</time>
      </trkpt>
      <trkpt lat="46.66483" lon="5.79882">
        <ele>592.79</ele>
        <time>2019-06-15T09:53:35Z</time>
      </trkpt>
      <trkpt lat="46.66483" lon="5.79874">
        <ele>593.27</ele>
        <time>2019-06-15T09:53:41Z</time>
      </trkpt>
      <trkpt lat="46.66492" lon="5.79853">
        <ele>593.75</ele>
        <time>2019-06-15T09:53:54Z</time>
      </trkpt>
      <trkpt lat="46.66499" lon="5.79829">
        <ele>593.75</ele>
        <time>2019-06-15T09:54:07Z</time>
      </trkpt>
      <trkpt lat="46.66501" lon="5.79814">
        <ele>594.71</ele>
        <time>2019-06-15T09:54:18Z</time>
      </trkpt>
      <trkpt lat="46.66502" lon="5.79805">
        <ele>594.71</ele>
        <time>2019-06-15T09:54:22Z</time>
      </trkpt>
      <trkpt lat="46.66502" lon="5.79784">
        <ele>595.19</ele>
        <time>2019-06-15T09:54:33Z</time>
      </trkpt>
      <trkpt lat="46.66501" lon="5.79765">
        <ele>596.15</ele>
        <time>2019-06-15T09:54:45Z</time>
      </trkpt>
      <trkpt lat="46.66501" lon="5.79754">
        <ele>596.15</ele>
        <time>2019-06-15T09:54:56Z</time>
      </trkpt>
      <trkpt lat="46.66497" lon="5.79739">
        <ele>595.19</ele>
        <time>2019-06-15T09:55:08Z</time>
      </trkpt>
      <trkpt lat="46.66497" lon="5.79729">
        <ele>595.19</ele>
        <time>2019-06-15T09:55:13Z</time>
      </trkpt>
      <trkpt lat="46.66497" lon="5.79709">
        <ele>594.71</ele>
        <time>2019-06-15T09:55:26Z</time>
      </trkpt>
      <trkpt lat="46.66499" lon="5.79699">
        <ele>595.19</ele>
        <time>2019-06-15T09:55:33Z</time>
      </trkpt>
      <trkpt lat="46.66507" lon="5.7968">
        <ele>594.71</ele>
        <time>2019-06-15T09:55:48Z</time>
      </trkpt>
      <trkpt lat="46.6651" lon="5.79667">
        <ele>594.23</ele>
        <time>2019-06-15T09:55:56Z</time>
      </trkpt>
      <trkpt lat="46.6651" lon="5.79648">
        <ele>591.83</ele>
        <time>2019-06-15T09:56:10Z</time>
      </trkpt>
      <trkpt lat="46.6651" lon="5.79643">
        <ele>591.35</ele>
        <time>2019-06-15T09:56:13Z</time>
      </trkpt>
      <trkpt lat="46.66513" lon="5.79625">
        <ele>589.43</ele>
        <time>2019-06-15T09:56:25Z</time>
      </trkpt>
      <trkpt lat="46.6651" lon="5.79601">
        <ele>587.02</ele>
        <time>2019-06-15T09:56:40Z</time>
      </trkpt>
      <trkpt lat="46.66512" lon="5.79587">
        <ele>586.06</ele>
        <time>2019-06-15T09:56:50Z</time>
      </trkpt>
      <trkpt lat="46.66513" lon="5.79573">
        <ele>586.06</ele>
        <time>2019-06-15T09:57:03Z</time>
      </trkpt>
      <trkpt lat="46.66517" lon="5.79545">
        <ele>585.58</ele>
        <time>2019-06-15T09:57:15Z</time>
      </trkpt>
      <trkpt lat="46.66516" lon="5.79538">
        <ele>585.1</ele>
        <time>2019-06-15T09:57:25Z</time>
      </trkpt>
      <trkpt lat="46.6651" lon="5.79519">
        <ele>585.1</ele>
        <time>2019-06-15T09:57:34Z</time>
      </trkpt>
      <trkpt lat="46.66513" lon="5.79505">
        <ele>583.66</ele>
        <time>2019-06-15T09:57:44Z</time>
      </trkpt>
      <trkpt lat="46.66515" lon="5.79493">
        <ele>582.22</ele>
        <time>2019-06-15T09:57:56Z</time>
      </trkpt>
      <trkpt lat="46.66515" lon="5.79483">
        <ele>582.22</ele>
        <time>2019-06-15T09:58:13Z</time>
      </trkpt>
      <trkpt lat="46.66507" lon="5.7948">
        <ele>581.73</ele>
        <time>2019-06-15T09:58:31Z</time>
      </trkpt>
      <trkpt lat="46.6651" lon="5.79481">
        <ele>582.22</ele>
        <time>2019-06-15T09:58:45Z</time>
      </trkpt>
      <trkpt lat="46.6651" lon="5.79473">
        <ele>581.25</ele>
        <time>2019-06-15T09:58:55Z</time>
      </trkpt>
      <trkpt lat="46.66508" lon="5.79471">
        <ele>580.77</ele>
        <time>2019-06-15T09:58:58Z</time>
      </trkpt>
      <trkpt lat="46.66502" lon="5.79447">
        <ele>580.29</ele>
        <time>2019-06-15T09:59:10Z</time>
      </trkpt>
      <trkpt lat="46.66494" lon="5.79428">
        <ele>580.77</ele>
        <time>2019-06-15T09:59:21Z</time>
      </trkpt>
      <trkpt lat="46.66495" lon="5.79424">
        <ele>580.29</ele>
        <time>2019-06-15T09:59:24Z</time>
      </trkpt>
      <trkpt lat="46.66493" lon="5.7941">
        <ele>580.77</ele>
        <time>2019-06-15T09:59:33Z</time>
      </trkpt>
      <trkpt lat="46.66487" lon="5.79398">
        <ele>581.25</ele>
        <time>2019-06-15T09:59:44Z</time>
      </trkpt>
      <trkpt lat="46.66485" lon="5.79381">
        <ele>581.73</ele>
        <time>2019-06-15T09:59:53Z</time>
      </trkpt>
      <trkpt lat="46.66483" lon="5.79363">
        <ele>581.25</ele>
        <time>2019-06-15T10:00:04Z</time>
      </trkpt>
      <trkpt lat="46.66478" lon="5.7935">
        <ele>581.73</ele>
        <time>2019-06-15T10:00:13Z</time>
      </trkpt>
      <trkpt lat="46.66477" lon="5.79346">
        <ele>581.73</ele>
        <time>2019-06-15T10:00:15Z</time>
      </trkpt>
      <trkpt lat="46.6647" lon="5.79331">
        <ele>581.73</ele>
        <time>2019-06-15T10:00:26Z</time>
      </trkpt>
      <trkpt lat="46.66471" lon="5.79313">
        <ele>579.81</ele>
        <time>2019-06-15T10:00:38Z</time>
      </trkpt>
      <trkpt lat="46.66476" lon="5.79293">
        <ele>578.37</ele>
        <time>2019-06-15T10:00:51Z</time>
      </trkpt>
      <trkpt lat="46.66473" lon="5.79287">
        <ele>578.37</ele>
        <time>2019-06-15T10:00:54Z</time>
      </trkpt>
      <trkpt lat="46.66468" lon="5.79263">
        <ele>578.85</ele>
        <time>2019-06-15T10:01:06Z</time>
      </trkpt>
      <trkpt lat="46.66473" lon="5.79246">
        <ele>578.85</ele>
        <time>2019-06-15T10:01:16Z</time>
      </trkpt>
      <trkpt lat="46.66483" lon="5.79224">
        <ele>579.81</ele>
        <time>2019-06-15T10:01:28Z</time>
      </trkpt>
      <trkpt lat="46.66489" lon="5.79211">
        <ele>579.81</ele>
        <time>2019-06-15T10:01:37Z</time>
      </trkpt>
      <trkpt lat="46.66492" lon="5.79195">
        <ele>580.29</ele>
        <time>2019-06-15T10:01:47Z</time>
      </trkpt>
      <trkpt lat="46.66494" lon="5.79177">
        <ele>580.29</ele>
        <time>2019-06-15T10:01:57Z</time>
      </trkpt>
      <trkpt lat="46.66495" lon="5.79174">
        <ele>580.29</ele>
        <time>2019-06-15T10:01:59Z</time>
      </trkpt>
      <trkpt lat="46.66494" lon="5.79158">
        <ele>580.77</ele>
        <time>2019-06-15T10:02:09Z</time>
      </trkpt>
      <trkpt lat="46.66497" lon="5.79134">
        <ele>580.29</ele>
        <time>2019-06-15T10:02:22Z</time>
      </trkpt>
      <trkpt lat="46.66499" lon="5.79121">
        <ele>580.29</ele>
        <time>2019-06-15T10:02:35Z</time>
      </trkpt>
      <trkpt lat="46.66504" lon="5.79116">
        <ele>580.29</ele>
        <time>2019-06-15T10:02:45Z</time>
      </trkpt>
      <trkpt lat="46.66474" lon="5.79111">
        <ele>580.29</ele>
        <time>2019-06-15T10:02:57Z</time>
      </trkpt>
      <trkpt lat="46.66476" lon="5.7911">
        <ele>579.81</ele>
        <time>2019-06-15T10:03:08Z</time>
      </trkpt>
      <trkpt lat="46.6648" lon="5.79104">
        <ele>579.33</ele>
        <time>2019-06-15T10:03:20Z</time>
      </trkpt>
      <trkpt lat="46.66482" lon="5.79099">
        <ele>579.33</ele>
        <time>2019-06-15T10:03:43Z</time>
      </trkpt>
      <trkpt lat="46.6648" lon="5.79085">
        <ele>578.85</ele>
        <time>2019-06-15T10:03:57Z</time>
      </trkpt>
      <trkpt lat="46.66477" lon="5.79076">
        <ele>577.89</ele>
        <time>2019-06-15T10:04:07Z</time>
      </trkpt>
      <trkpt lat="46.66476" lon="5.79066">
        <ele>577.41</ele>
        <time>2019-06-15T10:04:21Z</time>
      </trkpt>
      <trkpt lat="46.66462" lon="5.79058">
        <ele>575.49</ele>
        <time>2019-06-15T10:04:34Z</time>
      </trkpt>
      <trkpt lat="46.66447" lon="5.79058">
        <ele>574.53</ele>
        <time>2019-06-15T10:04:47Z</time>
      </trkpt>
      <trkpt lat="46.66439" lon="5.79059">
        <ele>573.56</ele>
        <time>2019-06-15T10:04:58Z</time>
      </trkpt>
      <trkpt lat="46.66426" lon="5.79066">
        <ele>572.12</ele>
        <time>2019-06-15T10:05:10Z</time>
      </trkpt>
      <trkpt lat="46.66415" lon="5.79071">
        <ele>571.16</ele>
        <time>2019-06-15T10:05:21Z</time>
      </trkpt>
      <trkpt lat="46.66409" lon="5.79066">
        <ele>570.2</ele>
        <time>2019-06-15T10:05:33Z</time>
      </trkpt>
      <trkpt lat="46.66413" lon="5.79056">
        <ele>568.28</ele>
        <time>2019-06-15T10:05:47Z</time>
      </trkpt>
      <trkpt lat="46.66406" lon="5.79045">
        <ele>566.83</ele>
        <time>2019-06-15T10:06:02Z</time>
      </trkpt>
      <trkpt lat="46.66403" lon="5.79038">
        <ele>566.35</ele>
        <time>2019-06-15T10:06:13Z</time>
      </trkpt>
      <trkpt lat="46.664" lon="5.79028">
        <ele>565.39</ele>
        <time>2019-06-15T10:06:25Z</time>
      </trkpt>
      <trkpt lat="46.66397" lon="5.79024">
        <ele>564.43</ele>
        <time>2019-06-15T10:06:42Z</time>
      </trkpt>
      <trkpt lat="46.66388" lon="5.79016">
        <ele>563.47</ele>
        <time>2019-06-15T10:06:59Z</time>
      </trkpt>
      <trkpt lat="46.66378" lon="5.79006">
        <ele>562.03</ele>
        <time>2019-06-15T10:07:14Z</time>
      </trkpt>
      <trkpt lat="46.66368" lon="5.78999">
        <ele>560.59</ele>
        <time>2019-06-15T10:07:25Z</time>
      </trkpt>
      <trkpt lat="46.66361" lon="5.78993">
        <ele>559.14</ele>
        <time>2019-06-15T10:07:38Z</time>
      </trkpt>
      <trkpt lat="46.66346" lon="5.78984">
        <ele>557.7</ele>
        <time>2019-06-15T10:07:49Z</time>
      </trkpt>
      <trkpt lat="46.66335" lon="5.78979">
        <ele>556.74</ele>
        <time>2019-06-15T10:07:59Z</time>
      </trkpt>
      <trkpt lat="46.66325" lon="5.7898">
        <ele>555.3</ele>
        <time>2019-06-15T10:08:13Z</time>
      </trkpt>
      <trkpt lat="46.66315" lon="5.78978">
        <ele>555.3</ele>
        <time>2019-06-15T10:08:22Z</time>
      </trkpt>
      <trkpt lat="46.66312" lon="5.78978">
        <ele>555.3</ele>
        <time>2019-06-15T10:08:47Z</time>
      </trkpt>
      <trkpt lat="46.66307" lon="5.78978">
        <ele>554.82</ele>
        <time>2019-06-15T10:09:09Z</time>
      </trkpt>
      <trkpt lat="46.66308" lon="5.78977">
        <ele>554.82</ele>
        <time>2019-06-15T10:09:35Z</time>
      </trkpt>
      <trkpt lat="46.66308" lon="5.78982">
        <ele>554.34</ele>
        <time>2019-06-15T10:09:47Z</time>
      </trkpt>
      <trkpt lat="46.66294" lon="5.78982">
        <ele>553.86</ele>
        <time>2019-06-15T10:09:58Z</time>
      </trkpt>
      <trkpt lat="46.66279" lon="5.78982">
        <ele>553.86</ele>
        <time>2019-06-15T10:10:09Z</time>
      </trkpt>
      <trkpt lat="46.66257" lon="5.78985">
        <ele>553.38</ele>
        <time>2019-06-15T10:10:21Z</time>
      </trkpt>
      <trkpt lat="46.66251" lon="5.78997">
        <ele>554.82</ele>
        <time>2019-06-15T10:10:34Z</time>
      </trkpt>
      <trkpt lat="46.66247" lon="5.79003">
        <ele>554.82</ele>
        <time>2019-06-15T10:10:37Z</time>
      </trkpt>
      <trkpt lat="46.66226" lon="5.79006">
        <ele>554.82</ele>
        <time>2019-06-15T10:10:47Z</time>
      </trkpt>
      <trkpt lat="46.66224" lon="5.79007">
        <ele>554.34</ele>
        <time>2019-06-15T10:10:48Z</time>
      </trkpt>
      <trkpt lat="46.66208" lon="5.79011">
        <ele>554.34</ele>
        <time>2019-06-15T10:10:59Z</time>
      </trkpt>
      <trkpt lat="46.66198" lon="5.79014">
        <ele>554.34</ele>
        <time>2019-06-15T10:11:08Z</time>
      </trkpt>
      <trkpt lat="46.66186" lon="5.7902">
        <ele>554.82</ele>
        <time>2019-06-15T10:11:20Z</time>
      </trkpt>
      <trkpt lat="46.66174" lon="5.7902">
        <ele>555.3</ele>
        <time>2019-06-15T10:11:34Z</time>
      </trkpt>
      <trkpt lat="46.66167" lon="5.79021">
        <ele>554.82</ele>
        <time>2019-06-15T10:11:44Z</time>
      </trkpt>
      <trkpt lat="46.66145" lon="5.79021">
        <ele>555.78</ele>
        <time>2019-06-15T10:11:58Z</time>
      </trkpt>
      <trkpt lat="46.66107" lon="5.79019">
        <ele>556.26</ele>
        <time>2019-06-15T10:12:11Z</time>
      </trkpt>
      <trkpt lat="46.66091" lon="5.79018">
        <ele>556.74</ele>
        <time>2019-06-15T10:12:23Z</time>
      </trkpt>
      <trkpt lat="46.6608" lon="5.79019">
        <ele>557.22</ele>
        <time>2019-06-15T10:12:34Z</time>
      </trkpt>
      <trkpt lat="46.66075" lon="5.79014">
        <ele>557.22</ele>
        <time>2019-06-15T10:12:45Z</time>
      </trkpt>
      <trkpt lat="46.66064" lon="5.79006">
        <ele>557.7</ele>
        <time>2019-06-15T10:12:58Z</time>
      </trkpt>
      <trkpt lat="46.6606" lon="5.79001">
        <ele>558.18</ele>
        <time>2019-06-15T10:13:11Z</time>
      </trkpt>
      <trkpt lat="46.66047" lon="5.78999">
        <ele>557.22</ele>
        <time>2019-06-15T10:13:26Z</time>
      </trkpt>
      <trkpt lat="46.66041" lon="5.78993">
        <ele>557.22</ele>
        <time>2019-06-15T10:13:32Z</time>
      </trkpt>
      <trkpt lat="46.66032" lon="5.78972">
        <ele>556.74</ele>
        <time>2019-06-15T10:13:42Z</time>
      </trkpt>
      <trkpt lat="46.66021" lon="5.7895">
        <ele>555.3</ele>
        <time>2019-06-15T10:13:55Z</time>
      </trkpt>
      <trkpt lat="46.66012" lon="5.78937">
        <ele>553.86</ele>
        <time>2019-06-15T10:14:05Z</time>
      </trkpt>
      <trkpt lat="46.66012" lon="5.78931">
        <ele>553.38</ele>
        <time>2019-06-15T10:14:09Z</time>
      </trkpt>
      <trkpt lat="46.66007" lon="5.78928">
        <ele>551.93</ele>
        <time>2019-06-15T10:14:18Z</time>
      </trkpt>
      <trkpt lat="46.65991" lon="5.78904">
        <ele>550.49</ele>
        <time>2019-06-15T10:14:29Z</time>
      </trkpt>
      <trkpt lat="46.65983" lon="5.78888">
        <ele>549.53</ele>
        <time>2019-06-15T10:14:41Z</time>
      </trkpt>
      <trkpt lat="46.65983" lon="5.78889">
        <ele>549.05</ele>
        <time>2019-06-15T10:14:42Z</time>
      </trkpt>
      <trkpt lat="46.6597" lon="5.78874">
        <ele>549.05</ele>
        <time>2019-06-15T10:14:53Z</time>
      </trkpt>
      <trkpt lat="46.65962" lon="5.78866">
        <ele>549.05</ele>
        <time>2019-06-15T10:15:00Z</time>
      </trkpt>
      <trkpt lat="46.65956" lon="5.78852">
        <ele>548.57</ele>
        <time>2019-06-15T10:15:09Z</time>
      </trkpt>
      <trkpt lat="46.65953" lon="5.78837">
        <ele>548.57</ele>
        <time>2019-06-15T10:15:14Z</time>
      </trkpt>
      <trkpt lat="46.65952" lon="5.78834">
        <ele>549.05</ele>
        <time>2019-06-15T10:15:16Z</time>
      </trkpt>
      <trkpt lat="46.6595" lon="5.78829">
        <ele>548.57</ele>
        <time>2019-06-15T10:15:18Z</time>
      </trkpt>
      <trkpt lat="46.65946" lon="5.7882">
        <ele>548.57</ele>
        <time>2019-06-15T10:15:23Z</time>
      </trkpt>
      <trkpt lat="46.65943" lon="5.78795">
        <ele>548.57</ele>
        <time>2019-06-15T10:15:36Z</time>
      </trkpt>
      <trkpt lat="46.65943" lon="5.78774">
        <ele>548.57</ele>
        <time>2019-06-15T10:15:45Z</time>
      </trkpt>
      <trkpt lat="46.65939" lon="5.78756">
        <ele>548.57</ele>
        <time>2019-06-15T10:15:56Z</time>
      </trkpt>
      <trkpt lat="46.65938" lon="5.78742">
        <ele>548.57</ele>
        <time>2019-06-15T10:16:04Z</time>
      </trkpt>
      <trkpt lat="46.65938" lon="5.78732">
        <ele>548.57</ele>
        <time>2019-06-15T10:16:10Z</time>
      </trkpt>
      <trkpt lat="46.65938" lon="5.78709">
        <ele>548.57</ele>
        <time>2019-06-15T10:16:22Z</time>
      </trkpt>
      <trkpt lat="46.65941" lon="5.78687">
        <ele>549.05</ele>
        <time>2019-06-15T10:16:32Z</time>
      </trkpt>
      <trkpt lat="46.65932" lon="5.78672">
        <ele>549.53</ele>
        <time>2019-06-15T10:16:43Z</time>
      </trkpt>
      <trkpt lat="46.65934" lon="5.78657">
        <ele>549.05</ele>
        <time>2019-06-15T10:16:48Z</time>
      </trkpt>
      <trkpt lat="46.6593" lon="5.78645">
        <ele>549.53</ele>
        <time>2019-06-15T10:16:53Z</time>
      </trkpt>
      <trkpt lat="46.6593" lon="5.78634">
        <ele>550.49</ele>
        <time>2019-06-15T10:17:05Z</time>
      </trkpt>
      <trkpt lat="46.6593" lon="5.78633">
        <ele>550.49</ele>
        <time>2019-06-15T10:17:06Z</time>
      </trkpt>
      <trkpt lat="46.65925" lon="5.78635">
        <ele>550.97</ele>
        <time>2019-06-15T10:17:22Z</time>
      </trkpt>
      <trkpt lat="46.65918" lon="5.78629">
        <ele>550.49</ele>
        <time>2019-06-15T10:17:43Z</time>
      </trkpt>
      <trkpt lat="46.65904" lon="5.78631">
        <ele>550.49</ele>
        <time>2019-06-15T10:18:05Z</time>
      </trkpt>
      <trkpt lat="46.65885" lon="5.78632">
        <ele>550.97</ele>
        <time>2019-06-15T10:18:27Z</time>
      </trkpt>
      <trkpt lat="46.65885" lon="5.78629">
        <ele>550.49</ele>
        <time>2019-06-15T10:18:50Z</time>
      </trkpt>
      <trkpt lat="46.65884" lon="5.78626">
        <ele>550.49</ele>
        <time>2019-06-15T10:19:19Z</time>
      </trkpt>
      <trkpt lat="46.65882" lon="5.78625">
        <ele>550.97</ele>
        <time>2019-06-15T10:19:36Z</time>
      </trkpt>
      <trkpt lat="46.6587" lon="5.78639">
        <ele>551.93</ele>
        <time>2019-06-15T10:19:48Z</time>
      </trkpt>
      <trkpt lat="46.65871" lon="5.78651">
        <ele>552.9</ele>
        <time>2019-06-15T10:19:59Z</time>
      </trkpt>
      <trkpt lat="46.65869" lon="5.78661">
        <ele>554.34</ele>
        <time>2019-06-15T10:20:13Z</time>
      </trkpt>
      <trkpt lat="46.65868" lon="5.78684">
        <ele>555.3</ele>
        <time>2019-06-15T10:20:24Z</time>
      </trkpt>
      <trkpt lat="46.65869" lon="5.78702">
        <ele>556.26</ele>
        <time>2019-06-15T10:20:35Z</time>
      </trkpt>
      <trkpt lat="46.6587" lon="5.78718">
        <ele>557.22</ele>
        <time>2019-06-15T10:20:47Z</time>
      </trkpt>
      <trkpt lat="46.6587" lon="5.78724">
        <ele>557.7</ele>
        <time>2019-06-15T10:20:49Z</time>
      </trkpt>
      <trkpt lat="46.6587" lon="5.78743">
        <ele>558.66</ele>
        <time>2019-06-15T10:21:00Z</time>
      </trkpt>
      <trkpt lat="46.65872" lon="5.78758">
        <ele>560.59</ele>
        <time>2019-06-15T10:21:10Z</time>
      </trkpt>
      <trkpt lat="46.65871" lon="5.78763">
        <ele>560.59</ele>
        <time>2019-06-15T10:21:13Z</time>
      </trkpt>
      <trkpt lat="46.65868" lon="5.7879">
        <ele>562.51</ele>
        <time>2019-06-15T10:21:26Z</time>
      </trkpt>
      <trkpt lat="46.65867" lon="5.788">
        <ele>564.43</ele>
        <time>2019-06-15T10:21:36Z</time>
      </trkpt>
      <trkpt lat="46.6587" lon="5.78816">
        <ele>565.39</ele>
        <time>2019-06-15T10:21:45Z</time>
      </trkpt>
      <trkpt lat="46.65868" lon="5.78833">
        <ele>566.83</ele>
        <time>2019-06-15T10:21:59Z</time>
      </trkpt>
      <trkpt lat="46.65869" lon="5.78848">
        <ele>568.76</ele>
        <time>2019-06-15T10:22:10Z</time>
      </trkpt>
      <trkpt lat="46.65868" lon="5.78864">
        <ele>569.72</ele>
        <time>2019-06-15T10:22:20Z</time>
      </trkpt>
      <trkpt lat="46.65869" lon="5.7888">
        <ele>571.16</ele>
        <time>2019-06-15T10:22:32Z</time>
      </trkpt>
      <trkpt lat="46.65873" lon="5.78902">
        <ele>571.64</ele>
        <time>2019-06-15T10:22:43Z</time>
      </trkpt>
      <trkpt lat="46.65875" lon="5.78921">
        <ele>572.12</ele>
        <time>2019-06-15T10:22:54Z</time>
      </trkpt>
      <trkpt lat="46.65876" lon="5.78933">
        <ele>572.6</ele>
        <time>2019-06-15T10:23:02Z</time>
      </trkpt>
      <trkpt lat="46.65884" lon="5.78958">
        <ele>572.12</ele>
        <time>2019-06-15T10:23:15Z</time>
      </trkpt>
      <trkpt lat="46.65885" lon="5.78959">
        <ele>572.12</ele>
        <time>2019-06-15T10:23:18Z</time>
      </trkpt>
      <trkpt lat="46.65889" lon="5.78977">
        <ele>572.6</ele>
        <time>2019-06-15T10:23:29Z</time>
      </trkpt>
      <trkpt lat="46.65887" lon="5.78981">
        <ele>573.08</ele>
        <time>2019-06-15T10:23:33Z</time>
      </trkpt>
      <trkpt lat="46.65886" lon="5.79001">
        <ele>573.08</ele>
        <time>2019-06-15T10:23:42Z</time>
      </trkpt>
      <trkpt lat="46.65882" lon="5.79015">
        <ele>575.01</ele>
        <time>2019-06-15T10:23:52Z</time>
      </trkpt>
      <trkpt lat="46.65882" lon="5.79018">
        <ele>575.01</ele>
        <time>2019-06-15T10:23:55Z</time>
      </trkpt>
      <trkpt lat="46.65879" lon="5.79036">
        <ele>576.93</ele>
        <time>2019-06-15T10:24:06Z</time>
      </trkpt>
      <trkpt lat="46.65875" lon="5.79044">
        <ele>577.41</ele>
        <time>2019-06-15T10:24:16Z</time>
      </trkpt>
      <trkpt lat="46.65875" lon="5.79042">
        <ele>577.89</ele>
        <time>2019-06-15T10:24:38Z</time>
      </trkpt>
      <trkpt lat="46.6588" lon="5.79051">
        <ele>578.37</ele>
        <time>2019-06-15T10:24:50Z</time>
      </trkpt>
      <trkpt lat="46.65881" lon="5.79054">
        <ele>578.85</ele>
        <time>2019-06-15T10:24:53Z</time>
      </trkpt>
      <trkpt lat="46.65875" lon="5.79069">
        <ele>579.81</ele>
        <time>2019-06-15T10:25:06Z</time>
      </trkpt>
      <trkpt lat="46.65871" lon="5.79074">
        <ele>580.29</ele>
        <time>2019-06-15T10:25:10Z</time>
      </trkpt>
      <trkpt lat="46.65859" lon="5.79085">
        <ele>580.77</ele>
        <time>2019-06-15T10:25:20Z</time>
      </trkpt>
      <trkpt lat="46.65848" lon="5.79099">
        <ele>580.77</ele>
        <time>2019-06-15T10:25:31Z</time>
      </trkpt>
      <trkpt lat="46.6584" lon="5.79112">
        <ele>581.25</ele>
        <time>2019-06-15T10:25:44Z</time>
      </trkpt>
      <trkpt lat="46.65838" lon="5.79115">
        <ele>581.73</ele>
        <time>2019-06-15T10:25:45Z</time>
      </trkpt>
      <trkpt lat="46.65829" lon="5.79133">
        <ele>581.25</ele>
        <time>2019-06-15T10:25:57Z</time>
      </trkpt>
      <trkpt lat="46.65819" lon="5.79152">
        <ele>579.81</ele>
        <time>2019-06-15T10:26:09Z</time>
      </trkpt>
      <trkpt lat="46.6581" lon="5.79165">
        <ele>578.37</ele>
        <time>2019-06-15T10:26:20Z</time>
      </trkpt>
      <trkpt lat="46.658" lon="5.79184">
        <ele>576.45</ele>
        <time>2019-06-15T10:26:31Z</time>
      </trkpt>
      <trkpt lat="46.65787" lon="5.79199">
        <ele>575.49</ele>
        <time>2019-06-15T10:26:41Z</time>
      </trkpt>
      <trkpt lat="46.65774" lon="5.79217">
        <ele>574.04</ele>
        <time>2019-06-15T10:26:54Z</time>
      </trkpt>
      <trkpt lat="46.65769" lon="5.79225">
        <ele>574.04</ele>
        <time>2019-06-15T10:27:01Z</time>
      </trkpt>
      <trkpt lat="46.65768" lon="5.79227">
        <ele>574.04</ele>
        <time>2019-06-15T10:27:03Z</time>
      </trkpt>
      <trkpt lat="46.65763" lon="5.79237">
        <ele>573.56</ele>
        <time>2019-06-15T10:27:12Z</time>
      </trkpt>
      <trkpt lat="46.65762" lon="5.79238">
        <ele>573.08</ele>
        <time>2019-06-15T10:27:13Z</time>
      </trkpt>
      <trkpt lat="46.65757" lon="5.79244">
        <ele>573.08</ele>
        <time>2019-06-15T10:27:24Z</time>
      </trkpt>
      <trkpt lat="46.65753" lon="5.79254">
        <ele>572.6</ele>
        <time>2019-06-15T10:27:31Z</time>
      </trkpt>
      <trkpt lat="46.65743" lon="5.79269">
        <ele>572.12</ele>
        <time>2019-06-15T10:27:40Z</time>
      </trkpt>
      <trkpt lat="46.65734" lon="5.79283">
        <ele>572.6</ele>
        <time>2019-06-15T10:27:50Z</time>
      </trkpt>
      <trkpt lat="46.65733" lon="5.79286">
        <ele>572.12</ele>
        <time>2019-06-15T10:27:53Z</time>
      </trkpt>
      <trkpt lat="46.65727" lon="5.79298">
        <ele>572.6</ele>
        <time>2019-06-15T10:28:04Z</time>
      </trkpt>
      <trkpt lat="46.65722" lon="5.7931">
        <ele>573.56</ele>
        <time>2019-06-15T10:28:15Z</time>
      </trkpt>
      <trkpt lat="46.65711" lon="5.79328">
        <ele>573.08</ele>
        <time>2019-06-15T10:28:26Z</time>
      </trkpt>
      <trkpt lat="46.65708" lon="5.79338">
        <ele>572.12</ele>
        <time>2019-06-15T10:28:31Z</time>
      </trkpt>
      <trkpt lat="46.65704" lon="5.79353">
        <ele>572.6</ele>
        <time>2019-06-15T10:28:42Z</time>
      </trkpt>
      <trkpt lat="46.65699" lon="5.79365">
        <ele>572.12</ele>
        <time>2019-06-15T10:28:56Z</time>
      </trkpt>
      <trkpt lat="46.65694" lon="5.79376">
        <ele>572.12</ele>
        <time>2019-06-15T10:29:10Z</time>
      </trkpt>
      <trkpt lat="46.65693" lon="5.79377">
        <ele>572.12</ele>
        <time>2019-06-15T10:29:11Z</time>
      </trkpt>
      <trkpt lat="46.65677" lon="5.794">
        <ele>572.6</ele>
        <time>2019-06-15T10:29:22Z</time>
      </trkpt>
      <trkpt lat="46.65657" lon="5.7942">
        <ele>572.6</ele>
        <time>2019-06-15T10:29:32Z</time>
      </trkpt>
      <trkpt lat="46.65647" lon="5.79421">
        <ele>573.08</ele>
        <time>2019-06-15T10:29:43Z</time>
      </trkpt>
      <trkpt lat="46.65639" lon="5.79425">
        <ele>573.56</ele>
        <time>2019-06-15T10:29:54Z</time>
      </trkpt>
      <trkpt lat="46.65637" lon="5.79433">
        <ele>573.08</ele>
        <time>2019-06-15T10:30:08Z</time>
      </trkpt>
      <trkpt lat="46.65636" lon="5.79453">
        <ele>573.56</ele>
        <time>2019-06-15T10:30:20Z</time>
      </trkpt>
      <trkpt lat="46.65636" lon="5.79454">
        <ele>573.56</ele>
        <time>2019-06-15T10:30:21Z</time>
      </trkpt>
      <trkpt lat="46.65636" lon="5.79481">
        <ele>574.04</ele>
        <time>2019-06-15T10:30:35Z</time>
      </trkpt>
      <trkpt lat="46.65636" lon="5.79504">
        <ele>575.01</ele>
        <time>2019-06-15T10:30:48Z</time>
      </trkpt>
      <trkpt lat="46.65639" lon="5.79524">
        <ele>575.01</ele>
        <time>2019-06-15T10:30:59Z</time>
      </trkpt>
      <trkpt lat="46.65638" lon="5.79537">
        <ele>575.49</ele>
        <time>2019-06-15T10:31:06Z</time>
      </trkpt>
      <trkpt lat="46.65638" lon="5.79547">
        <ele>575.01</ele>
        <time>2019-06-15T10:31:12Z</time>
      </trkpt>
      <trkpt lat="46.65639" lon="5.79552">
        <ele>575.49</ele>
        <time>2019-06-15T10:31:15Z</time>
      </trkpt>
      <trkpt lat="46.65638" lon="5.79559">
        <ele>575.49</ele>
        <time>2019-06-15T10:31:19Z</time>
      </trkpt>
      <trkpt lat="46.65641" lon="5.79566">
        <ele>575.49</ele>
        <time>2019-06-15T10:31:23Z</time>
      </trkpt>
      <trkpt lat="46.65642" lon="5.79581">
        <ele>575.97</ele>
        <time>2019-06-15T10:31:31Z</time>
      </trkpt>
      <trkpt lat="46.65646" lon="5.79605">
        <ele>575.97</ele>
        <time>2019-06-15T10:31:43Z</time>
      </trkpt>
      <trkpt lat="46.65646" lon="5.79607">
        <ele>575.97</ele>
        <time>2019-06-15T10:31:44Z</time>
      </trkpt>
      <trkpt lat="46.65651" lon="5.7963">
        <ele>576.45</ele>
        <time>2019-06-15T10:31:55Z</time>
      </trkpt>
      <trkpt lat="46.65651" lon="5.79632">
        <ele>576.45</ele>
        <time>2019-06-15T10:31:56Z</time>
      </trkpt>
      <trkpt lat="46.65654" lon="5.79649">
        <ele>576.45</ele>
        <time>2019-06-15T10:32:07Z</time>
      </trkpt>
      <trkpt lat="46.65657" lon="5.79664">
        <ele>576.45</ele>
        <time>2019-06-15T10:32:15Z</time>
      </trkpt>
      <trkpt lat="46.6566" lon="5.79684">
        <ele>576.93</ele>
        <time>2019-06-15T10:32:26Z</time>
      </trkpt>
      <trkpt lat="46.65665" lon="5.79704">
        <ele>577.41</ele>
        <time>2019-06-15T10:32:37Z</time>
      </trkpt>
      <trkpt lat="46.65667" lon="5.79721">
        <ele>577.89</ele>
        <time>2019-06-15T10:32:45Z</time>
      </trkpt>
      <trkpt lat="46.6567" lon="5.79739">
        <ele>578.37</ele>
        <time>2019-06-15T10:32:53Z</time>
      </trkpt>
      <trkpt lat="46.65671" lon="5.7975">
        <ele>578.37</ele>
        <time>2019-06-15T10:33:00Z</time>
      </trkpt>
      <trkpt lat="46.65675" lon="5.79764">
        <ele>578.85</ele>
        <time>2019-06-15T10:33:10Z</time>
      </trkpt>
      <trkpt lat="46.65678" lon="5.79775">
        <ele>579.33</ele>
        <time>2019-06-15T10:33:18Z</time>
      </trkpt>
      <trkpt lat="46.6568" lon="5.79794">
        <ele>579.81</ele>
        <time>2019-06-15T10:33:27Z</time>
      </trkpt>
      <trkpt lat="46.65682" lon="5.79802">
        <ele>580.29</ele>
        <time>2019-06-15T10:33:32Z</time>
      </trkpt>
      <trkpt lat="46.65685" lon="5.79812">
        <ele>580.77</ele>
        <time>2019-06-15T10:33:41Z</time>
      </trkpt>
      <trkpt lat="46.65689" lon="5.79828">
        <ele>580.29</ele>
        <time>2019-06-15T10:33:50Z</time>
      </trkpt>
      <trkpt lat="46.65691" lon="5.7984">
        <ele>580.77</ele>
        <time>2019-06-15T10:33:55Z</time>
      </trkpt>
      <trkpt lat="46.65693" lon="5.7986">
        <ele>581.73</ele>
        <time>2019-06-15T10:34:06Z</time>
      </trkpt>
      <trkpt lat="46.65696" lon="5.79874">
        <ele>581.73</ele>
        <time>2019-06-15T10:34:13Z</time>
      </trkpt>
      <trkpt lat="46.65697" lon="5.79895">
        <ele>582.22</ele>
        <time>2019-06-15T10:34:22Z</time>
      </trkpt>
      <trkpt lat="46.65697" lon="5.79908">
        <ele>582.22</ele>
        <time>2019-06-15T10:34:28Z</time>
      </trkpt>
      <trkpt lat="46.65696" lon="5.79936">
        <ele>583.66</ele>
        <time>2019-06-15T10:34:41Z</time>
      </trkpt>
      <trkpt lat="46.65695" lon="5.79954">
        <ele>584.14</ele>
        <time>2019-06-15T10:34:50Z</time>
      </trkpt>
      <trkpt lat="46.65695" lon="5.79969">
        <ele>585.58</ele>
        <time>2019-06-15T10:34:58Z</time>
      </trkpt>
      <trkpt lat="46.65696" lon="5.7999">
        <ele>586.06</ele>
        <time>2019-06-15T10:35:09Z</time>
      </trkpt>
      <trkpt lat="46.65696" lon="5.80005">
        <ele>587.02</ele>
        <time>2019-06-15T10:35:18Z</time>
      </trkpt>
      <trkpt lat="46.65695" lon="5.80026">
        <ele>587.02</ele>
        <time>2019-06-15T10:35:30Z</time>
      </trkpt>
      <trkpt lat="46.65695" lon="5.8005">
        <ele>588.46</ele>
        <time>2019-06-15T10:35:43Z</time>
      </trkpt>
      <trkpt lat="46.65695" lon="5.80054">
        <ele>588.46</ele>
        <time>2019-06-15T10:35:45Z</time>
      </trkpt>
      <trkpt lat="46.65695" lon="5.80077">
        <ele>589.43</ele>
        <time>2019-06-15T10:35:58Z</time>
      </trkpt>
      <trkpt lat="46.65695" lon="5.80087">
        <ele>589.91</ele>
        <time>2019-06-15T10:36:04Z</time>
      </trkpt>
      <trkpt lat="46.65695" lon="5.80095">
        <ele>589.91</ele>
        <time>2019-06-15T10:36:09Z</time>
      </trkpt>
      <trkpt lat="46.65693" lon="5.80106">
        <ele>589.91</ele>
        <time>2019-06-15T10:36:18Z</time>
      </trkpt>
      <trkpt lat="46.65693" lon="5.80127">
        <ele>589.91</ele>
        <time>2019-06-15T10:36:29Z</time>
      </trkpt>
      <trkpt lat="46.65693" lon="5.80131">
        <ele>589.43</ele>
        <time>2019-06-15T10:36:31Z</time>
      </trkpt>
      <trkpt lat="46.65692" lon="5.80136">
        <ele>589.91</ele>
        <time>2019-06-15T10:36:34Z</time>
      </trkpt>
      <trkpt lat="46.65694" lon="5.80149">
        <ele>589.91</ele>
        <time>2019-06-15T10:36:41Z</time>
      </trkpt>
      <trkpt lat="46.65693" lon="5.80157">
        <ele>589.91</ele>
        <time>2019-06-15T10:36:45Z</time>
      </trkpt>
      <trkpt lat="46.65692" lon="5.80167">
        <ele>589.91</ele>
        <time>2019-06-15T10:36:50Z</time>
      </trkpt>
      <trkpt lat="46.65693" lon="5.80183">
        <ele>590.39</ele>
        <time>2019-06-15T10:36:59Z</time>
      </trkpt>
      <trkpt lat="46.65692" lon="5.80202">
        <ele>589.91</ele>
        <time>2019-06-15T10:37:09Z</time>
      </trkpt>
      <trkpt lat="46.65692" lon="5.80207">
        <ele>590.39</ele>
        <time>2019-06-15T10:37:12Z</time>
      </trkpt>
      <trkpt lat="46.65693" lon="5.80229">
        <ele>590.39</ele>
        <time>2019-06-15T10:37:25Z</time>
      </trkpt>
      <trkpt lat="46.65693" lon="5.80245">
        <ele>590.39</ele>
        <time>2019-06-15T10:37:34Z</time>
      </trkpt>
      <trkpt lat="46.65693" lon="5.80266">
        <ele>590.39</ele>
        <time>2019-06-15T10:37:44Z</time>
      </trkpt>
      <trkpt lat="46.65692" lon="5.80274">
        <ele>589.91</ele>
        <time>2019-06-15T10:37:48Z</time>
      </trkpt>
      <trkpt lat="46.65693" lon="5.80284">
        <ele>589.91</ele>
        <time>2019-06-15T10:37:53Z</time>
      </trkpt>
      <trkpt lat="46.65693" lon="5.8029">
        <ele>590.39</ele>
        <time>2019-06-15T10:37:56Z</time>
      </trkpt>
      <trkpt lat="46.65692" lon="5.80311">
        <ele>590.39</ele>
        <time>2019-06-15T10:38:06Z</time>
      </trkpt>
      <trkpt lat="46.65691" lon="5.80318">
        <ele>590.39</ele>
        <time>2019-06-15T10:38:10Z</time>
      </trkpt>
      <trkpt lat="46.6569" lon="5.80332">
        <ele>590.39</ele>
        <time>2019-06-15T10:38:17Z</time>
      </trkpt>
      <trkpt lat="46.65689" lon="5.80357">
        <ele>589.91</ele>
        <time>2019-06-15T10:38:29Z</time>
      </trkpt>
      <trkpt lat="46.65686" lon="5.80369">
        <ele>589.91</ele>
        <time>2019-06-15T10:38:35Z</time>
      </trkpt>
      <trkpt lat="46.65683" lon="5.80372">
        <ele>589.43</ele>
        <time>2019-06-15T10:38:38Z</time>
      </trkpt>
      <trkpt lat="46.65681" lon="5.80374">
        <ele>589.43</ele>
        <time>2019-06-15T10:38:41Z</time>
      </trkpt>
      <trkpt lat="46.65678" lon="5.80376">
        <ele>589.43</ele>
        <time>2019-06-15T10:38:43Z</time>
      </trkpt>
      <trkpt lat="46.65662" lon="5.80367">
        <ele>589.43</ele>
        <time>2019-06-15T10:38:57Z</time>
      </trkpt>
      <trkpt lat="46.65648" lon="5.80359">
        <ele>589.43</ele>
        <time>2019-06-15T10:39:09Z</time>
      </trkpt>
      <trkpt lat="46.65637" lon="5.80352">
        <ele>589.43</ele>
        <time>2019-06-15T10:39:17Z</time>
      </trkpt>
      <trkpt lat="46.65631" lon="5.80347">
        <ele>589.43</ele>
        <time>2019-06-15T10:39:23Z</time>
      </trkpt>
      <trkpt lat="46.65612" lon="5.80338">
        <ele>588.95</ele>
        <time>2019-06-15T10:39:38Z</time>
      </trkpt>
      <trkpt lat="46.65596" lon="5.80329">
        <ele>588.46</ele>
        <time>2019-06-15T10:39:52Z</time>
      </trkpt>
      <trkpt lat="46.65577" lon="5.80311">
        <ele>587.98</ele>
        <time>2019-06-15T10:40:08Z</time>
      </trkpt>
      <trkpt lat="46.65565" lon="5.80298">
        <ele>588.95</ele>
        <time>2019-06-15T10:40:20Z</time>
      </trkpt>
      <trkpt lat="46.65547" lon="5.80278">
        <ele>589.43</ele>
        <time>2019-06-15T10:40:36Z</time>
      </trkpt>
      <trkpt lat="46.65535" lon="5.80266">
        <ele>589.43</ele>
        <time>2019-06-15T10:40:47Z</time>
      </trkpt>
      <trkpt lat="46.65522" lon="5.80251">
        <ele>589.91</ele>
        <time>2019-06-15T10:40:59Z</time>
      </trkpt>
      <trkpt lat="46.65505" lon="5.80238">
        <ele>590.39</ele>
        <time>2019-06-15T10:41:13Z</time>
      </trkpt>
      <trkpt lat="46.65488" lon="5.80221">
        <ele>589.91</ele>
        <time>2019-06-15T10:41:29Z</time>
      </trkpt>
      <trkpt lat="46.6547" lon="5.80205">
        <ele>589.43</ele>
        <time>2019-06-15T10:41:44Z</time>
      </trkpt>
      <trkpt lat="46.65452" lon="5.80193">
        <ele>588.95</ele>
        <time>2019-06-15T10:41:58Z</time>
      </trkpt>
      <trkpt lat="46.65434" lon="5.80182">
        <ele>587.98</ele>
        <time>2019-06-15T10:42:13Z</time>
      </trkpt>
      <trkpt lat="46.65427" lon="5.80178">
        <ele>587.5</ele>
        <time>2019-06-15T10:42:18Z</time>
      </trkpt>
      <trkpt lat="46.65407" lon="5.80167">
        <ele>586.54</ele>
        <time>2019-06-15T10:42:33Z</time>
      </trkpt>
      <trkpt lat="46.65392" lon="5.80155">
        <ele>587.02</ele>
        <time>2019-06-15T10:42:45Z</time>
      </trkpt>
      <trkpt lat="46.65382" lon="5.80149">
        <ele>587.02</ele>
        <time>2019-06-15T10:42:55Z</time>
      </trkpt>
      <trkpt lat="46.65374" lon="5.80156">
        <ele>587.02</ele>
        <time>2019-06-15T10:43:02Z</time>
      </trkpt>
      <trkpt lat="46.65364" lon="5.80178">
        <ele>587.02</ele>
        <time>2019-06-15T10:43:15Z</time>
      </trkpt>
      <trkpt lat="46.65356" lon="5.80196">
        <ele>587.02</ele>
        <time>2019-06-15T10:43:25Z</time>
      </trkpt>
      <trkpt lat="46.6535" lon="5.80214">
        <ele>586.54</ele>
        <time>2019-06-15T10:43:36Z</time>
      </trkpt>
      <trkpt lat="46.65343" lon="5.80232">
        <ele>586.06</ele>
        <time>2019-06-15T10:43:47Z</time>
      </trkpt>
      <trkpt lat="46.65338" lon="5.80244">
        <ele>585.58</ele>
        <time>2019-06-15T10:43:54Z</time>
      </trkpt>
      <trkpt lat="46.65329" lon="5.80264">
        <ele>584.14</ele>
        <time>2019-06-15T10:44:07Z</time>
      </trkpt>
      <trkpt lat="46.65318" lon="5.80287">
        <ele>583.18</ele>
        <time>2019-06-15T10:44:19Z</time>
      </trkpt>
      <trkpt lat="46.65311" lon="5.80304">
        <ele>582.7</ele>
        <time>2019-06-15T10:44:28Z</time>
      </trkpt>
      <trkpt lat="46.65303" lon="5.80321">
        <ele>582.22</ele>
        <time>2019-06-15T10:44:39Z</time>
      </trkpt>
      <trkpt lat="46.65296" lon="5.80335">
        <ele>582.22</ele>
        <time>2019-06-15T10:44:48Z</time>
      </trkpt>
      <trkpt lat="46.65283" lon="5.80352">
        <ele>583.18</ele>
        <time>2019-06-15T10:45:00Z</time>
      </trkpt>
      <trkpt lat="46.6528" lon="5.80362">
        <ele>583.18</ele>
        <time>2019-06-15T10:45:06Z</time>
      </trkpt>
      <trkpt lat="46.65264" lon="5.80368">
        <ele>582.22</ele>
        <time>2019-06-15T10:45:20Z</time>
      </trkpt>
      <trkpt lat="46.6526" lon="5.80366">
        <ele>581.73</ele>
        <time>2019-06-15T10:45:23Z</time>
      </trkpt>
      <trkpt lat="46.65245" lon="5.80352">
        <ele>582.22</ele>
        <time>2019-06-15T10:45:37Z</time>
      </trkpt>
      <trkpt lat="46.65226" lon="5.80344">
        <ele>581.73</ele>
        <time>2019-06-15T10:45:50Z</time>
      </trkpt>
      <trkpt lat="46.65216" lon="5.80343">
        <ele>580.77</ele>
        <time>2019-06-15T10:46:02Z</time>
      </trkpt>
      <trkpt lat="46.65207" lon="5.80339">
        <ele>581.25</ele>
        <time>2019-06-15T10:46:15Z</time>
      </trkpt>
      <trkpt lat="46.65193" lon="5.80334">
        <ele>580.77</ele>
        <time>2019-06-15T10:46:26Z</time>
      </trkpt>
      <trkpt lat="46.65177" lon="5.80331">
        <ele>581.25</ele>
        <time>2019-06-15T10:46:39Z</time>
      </trkpt>
      <trkpt lat="46.65172" lon="5.80334">
        <ele>581.25</ele>
        <time>2019-06-15T10:46:43Z</time>
      </trkpt>
      <trkpt lat="46.65159" lon="5.80349">
        <ele>579.81</ele>
        <time>2019-06-15T10:46:56Z</time>
      </trkpt>
      <trkpt lat="46.65149" lon="5.80371">
        <ele>579.33</ele>
        <time>2019-06-15T10:47:10Z</time>
      </trkpt>
      <trkpt lat="46.65146" lon="5.80383">
        <ele>578.37</ele>
        <time>2019-06-15T10:47:17Z</time>
      </trkpt>
      <trkpt lat="46.65144" lon="5.80406">
        <ele>576.93</ele>
        <time>2019-06-15T10:47:30Z</time>
      </trkpt>
      <trkpt lat="46.65144" lon="5.80407">
        <ele>576.45</ele>
        <time>2019-06-15T10:47:41Z</time>
      </trkpt>
      <trkpt lat="46.65145" lon="5.80417">
        <ele>575.97</ele>
        <time>2019-06-15T10:47:52Z</time>
      </trkpt>
      <trkpt lat="46.65145" lon="5.80426">
        <ele>576.45</ele>
        <time>2019-06-15T10:48:02Z</time>
      </trkpt>
      <trkpt lat="46.65145" lon="5.80425">
        <ele>575.97</ele>
        <time>2019-06-15T10:48:16Z</time>
      </trkpt>
      <trkpt lat="46.65145" lon="5.80425">
        <ele>576.45</ele>
        <time>2019-06-15T10:48:31Z</time>
      </trkpt>
      <trkpt lat="46.65145" lon="5.80426">
        <ele>576.45</ele>
        <time>2019-06-15T10:48:47Z</time>
      </trkpt>
      <trkpt lat="46.65146" lon="5.80426">
        <ele>576.45</ele>
        <time>2019-06-15T10:49:01Z</time>
      </trkpt>
      <trkpt lat="46.65146" lon="5.80426">
        <ele>575.97</ele>
        <time>2019-06-15T10:49:22Z</time>
      </trkpt>
      <trkpt lat="46.65146" lon="5.80426">
        <ele>575.49</ele>
        <time>2019-06-15T10:49:47Z</time>
      </trkpt>
      <trkpt lat="46.65145" lon="5.80426">
        <ele>575.97</ele>
        <time>2019-06-15T10:50:06Z</time>
      </trkpt>
      <trkpt lat="46.65145" lon="5.80427">
        <ele>575.97</ele>
        <time>2019-06-15T10:50:31Z</time>
      </trkpt>
      <trkpt lat="46.65145" lon="5.80426">
        <ele>575.97</ele>
        <time>2019-06-15T10:50:52Z</time>
      </trkpt>
      <trkpt lat="46.65146" lon="5.80426">
        <ele>575.97</ele>
        <time>2019-06-15T10:51:20Z</time>
      </trkpt>
      <trkpt lat="46.65146" lon="5.80426">
        <ele>576.45</ele>
        <time>2019-06-15T10:51:45Z</time>
      </trkpt>
      <trkpt lat="46.65146" lon="5.80425">
        <ele>576.45</ele>
        <time>2019-06-15T10:52:09Z</time>
      </trkpt>
      <trkpt lat="46.65147" lon="5.80425">
        <ele>576.45</ele>
        <time>2019-06-15T10:52:34Z</time>
      </trkpt>
      <trkpt lat="46.65147" lon="5.80425">
        <ele>576.45</ele>
        <time>2019-06-15T10:53:04Z</time>
      </trkpt>
      <trkpt lat="46.65147" lon="5.80425">
        <ele>576.45</ele>
        <time>2019-06-15T10:53:37Z</time>
      </trkpt>
      <trkpt lat="46.65147" lon="5.80425">
        <ele>576.45</ele>
        <time>2019-06-15T10:54:02Z</time>
      </trkpt>
      <trkpt lat="46.65146" lon="5.80425">
        <ele>576.93</ele>
        <time>2019-06-15T10:54:28Z</time>
      </trkpt>
      <trkpt lat="46.65146" lon="5.80425">
        <ele>576.93</ele>
        <time>2019-06-15T10:54:55Z</time>
      </trkpt>
      <trkpt lat="46.65146" lon="5.80425">
        <ele>577.41</ele>
        <time>2019-06-15T10:55:23Z</time>
      </trkpt>
      <trkpt lat="46.65146" lon="5.80426">
        <ele>577.41</ele>
        <time>2019-06-15T10:55:50Z</time>
      </trkpt>
      <trkpt lat="46.65147" lon="5.80426">
        <ele>577.41</ele>
        <time>2019-06-15T10:56:17Z</time>
      </trkpt>
      <trkpt lat="46.65147" lon="5.80426">
        <ele>576.93</ele>
        <time>2019-06-15T10:56:45Z</time>
      </trkpt>
      <trkpt lat="46.65147" lon="5.80426">
        <ele>577.41</ele>
        <time>2019-06-15T10:57:12Z</time>
      </trkpt>
      <trkpt lat="46.65147" lon="5.80426">
        <ele>577.41</ele>
        <time>2019-06-15T10:57:36Z</time>
      </trkpt>
      <trkpt lat="46.65147" lon="5.80426">
        <ele>577.89</ele>
        <time>2019-06-15T10:57:56Z</time>
      </trkpt>
      <trkpt lat="46.65146" lon="5.80425">
        <ele>577.41</ele>
        <time>2019-06-15T10:58:29Z</time>
      </trkpt>
      <trkpt lat="46.65146" lon="5.80425">
        <ele>577.89</ele>
        <time>2019-06-15T10:58:54Z</time>
      </trkpt>
      <trkpt lat="46.65147" lon="5.80425">
        <ele>578.37</ele>
        <time>2019-06-15T10:59:21Z</time>
      </trkpt>
      <trkpt lat="46.65147" lon="5.80425">
        <ele>578.37</ele>
        <time>2019-06-15T10:59:47Z</time>
      </trkpt>
      <trkpt lat="46.65146" lon="5.80425">
        <ele>578.37</ele>
        <time>2019-06-15T11:00:15Z</time>
      </trkpt>
      <trkpt lat="46.65146" lon="5.80426">
        <ele>578.37</ele>
        <time>2019-06-15T11:00:44Z</time>
      </trkpt>
      <trkpt lat="46.65146" lon="5.80425">
        <ele>578.37</ele>
        <time>2019-06-15T11:01:14Z</time>
      </trkpt>
      <trkpt lat="46.65146" lon="5.80425">
        <ele>578.85</ele>
        <time>2019-06-15T11:01:40Z</time>
      </trkpt>
      <trkpt lat="46.65146" lon="5.80425">
        <ele>578.37</ele>
        <time>2019-06-15T11:02:07Z</time>
      </trkpt>
      <trkpt lat="46.65146" lon="5.80426">
        <ele>578.85</ele>
        <time>2019-06-15T11:02:36Z</time>
      </trkpt>
      <trkpt lat="46.65146" lon="5.80426">
        <ele>578.85</ele>
        <time>2019-06-15T11:03:09Z</time>
      </trkpt>
      <trkpt lat="46.65146" lon="5.80426">
        <ele>579.33</ele>
        <time>2019-06-15T11:03:35Z</time>
      </trkpt>
      <trkpt lat="46.65147" lon="5.80426">
        <ele>578.85</ele>
        <time>2019-06-15T11:04:06Z</time>
      </trkpt>
      <trkpt lat="46.65146" lon="5.80425">
        <ele>579.81</ele>
        <time>2019-06-15T11:04:29Z</time>
      </trkpt>
      <trkpt lat="46.65146" lon="5.80426">
        <ele>579.33</ele>
        <time>2019-06-15T11:04:53Z</time>
      </trkpt>
      <trkpt lat="46.65146" lon="5.80426">
        <ele>583.66</ele>
        <time>2019-06-15T11:04:57Z</time>
      </trkpt>
      <trkpt lat="46.65146" lon="5.80426">
        <ele>579.81</ele>
        <time>2019-06-15T11:04:58Z</time>
      </trkpt>
      <trkpt lat="46.65146" lon="5.80426">
        <ele>573.56</ele>
        <time>2019-06-15T11:04:59Z</time>
      </trkpt>
      <trkpt lat="46.65146" lon="5.80426">
        <ele>581.25</ele>
        <time>2019-06-15T11:05:00Z</time>
      </trkpt>
      <trkpt lat="46.65146" lon="5.80426">
        <ele>577.89</ele>
        <time>2019-06-15T11:05:07Z</time>
      </trkpt>
      <trkpt lat="46.65146" lon="5.80426">
        <ele>580.29</ele>
        <time>2019-06-15T11:05:10Z</time>
      </trkpt>
      <trkpt lat="46.65146" lon="5.80425">
        <ele>579.81</ele>
        <time>2019-06-15T11:05:36Z</time>
      </trkpt>
      <trkpt lat="46.65146" lon="5.80425">
        <ele>582.7</ele>
        <time>2019-06-15T11:05:43Z</time>
      </trkpt>
      <trkpt lat="46.65147" lon="5.80426">
        <ele>579.81</ele>
        <time>2019-06-15T11:06:04Z</time>
      </trkpt>
      <trkpt lat="46.65147" lon="5.80427">
        <ele>579.81</ele>
        <time>2019-06-15T11:06:26Z</time>
      </trkpt>
      <trkpt lat="46.65146" lon="5.80426">
        <ele>580.29</ele>
        <time>2019-06-15T11:06:51Z</time>
      </trkpt>
      <trkpt lat="46.65146" lon="5.80428">
        <ele>579.81</ele>
        <time>2019-06-15T11:07:13Z</time>
      </trkpt>
      <trkpt lat="46.65146" lon="5.80427">
        <ele>579.81</ele>
        <time>2019-06-15T11:07:37Z</time>
      </trkpt>
      <trkpt lat="46.65146" lon="5.80427">
        <ele>580.29</ele>
        <time>2019-06-15T11:08:00Z</time>
      </trkpt>
      <trkpt lat="46.65146" lon="5.80426">
        <ele>580.29</ele>
        <time>2019-06-15T11:08:25Z</time>
      </trkpt>
      <trkpt lat="46.65147" lon="5.80426">
        <ele>580.29</ele>
        <time>2019-06-15T11:08:45Z</time>
      </trkpt>
      <trkpt lat="46.65147" lon="5.80426">
        <ele>580.29</ele>
        <time>2019-06-15T11:09:07Z</time>
      </trkpt>
      <trkpt lat="46.65145" lon="5.80428">
        <ele>580.29</ele>
        <time>2019-06-15T11:09:15Z</time>
      </trkpt>
      <trkpt lat="46.65145" lon="5.80427">
        <ele>580.77</ele>
        <time>2019-06-15T11:09:27Z</time>
      </trkpt>
      <trkpt lat="46.65145" lon="5.80427">
        <ele>580.29</ele>
        <time>2019-06-15T11:09:47Z</time>
      </trkpt>
      <trkpt lat="46.65145" lon="5.80427">
        <ele>580.29</ele>
        <time>2019-06-15T11:10:07Z</time>
      </trkpt>
      <trkpt lat="46.65146" lon="5.80425">
        <ele>580.29</ele>
        <time>2019-06-15T11:10:20Z</time>
      </trkpt>
      <trkpt lat="46.65146" lon="5.80425">
        <ele>580.29</ele>
        <time>2019-06-15T11:10:45Z</time>
      </trkpt>
      <trkpt lat="46.65146" lon="5.80427">
        <ele>580.29</ele>
        <time>2019-06-15T11:11:15Z</time>
      </trkpt>
      <trkpt lat="46.65146" lon="5.80427">
        <ele>580.29</ele>
        <time>2019-06-15T11:11:44Z</time>
      </trkpt>
      <trkpt lat="46.65146" lon="5.80426">
        <ele>580.29</ele>
        <time>2019-06-15T11:12:06Z</time>
      </trkpt>
      <trkpt lat="46.65146" lon="5.80426">
        <ele>580.77</ele>
        <time>2019-06-15T11:12:30Z</time>
      </trkpt>
      <trkpt lat="46.65146" lon="5.80426">
        <ele>580.77</ele>
        <time>2019-06-15T11:13:00Z</time>
      </trkpt>
      <trkpt lat="46.65146" lon="5.80426">
        <ele>581.25</ele>
        <time>2019-06-15T11:13:29Z</time>
      </trkpt>
      <trkpt lat="46.65146" lon="5.80426">
        <ele>581.73</ele>
        <time>2019-06-15T11:13:58Z</time>
      </trkpt>
      <trkpt lat="46.65147" lon="5.80426">
        <ele>581.25</ele>
        <time>2019-06-15T11:14:29Z</time>
      </trkpt>
      <trkpt lat="46.65147" lon="5.80426">
        <ele>581.25</ele>
        <time>2019-06-15T11:14:56Z</time>
      </trkpt>
      <trkpt lat="46.65147" lon="5.80426">
        <ele>581.73</ele>
        <time>2019-06-15T11:15:24Z</time>
      </trkpt>
      <trkpt lat="46.65147" lon="5.80425">
        <ele>581.73</ele>
        <time>2019-06-15T11:15:53Z</time>
      </trkpt>
      <trkpt lat="46.65146" lon="5.80425">
        <ele>581.73</ele>
        <time>2019-06-15T11:16:18Z</time>
      </trkpt>
      <trkpt lat="46.65147" lon="5.80424">
        <ele>581.73</ele>
        <time>2019-06-15T11:16:42Z</time>
      </trkpt>
      <trkpt lat="46.65147" lon="5.80426">
        <ele>581.73</ele>
        <time>2019-06-15T11:17:00Z</time>
      </trkpt>
      <trkpt lat="46.65147" lon="5.80424">
        <ele>581.73</ele>
        <time>2019-06-15T11:17:13Z</time>
      </trkpt>
      <trkpt lat="46.65147" lon="5.80424">
        <ele>581.73</ele>
        <time>2019-06-15T11:17:34Z</time>
      </trkpt>
      <trkpt lat="46.65147" lon="5.80424">
        <ele>581.73</ele>
        <time>2019-06-15T11:18:04Z</time>
      </trkpt>
      <trkpt lat="46.65146" lon="5.80425">
        <ele>581.73</ele>
        <time>2019-06-15T11:18:36Z</time>
      </trkpt>
      <trkpt lat="46.65146" lon="5.80424">
        <ele>581.73</ele>
        <time>2019-06-15T11:19:05Z</time>
      </trkpt>
      <trkpt lat="46.65146" lon="5.80425">
        <ele>581.73</ele>
        <time>2019-06-15T11:19:30Z</time>
      </trkpt>
      <trkpt lat="46.65146" lon="5.80426">
        <ele>582.22</ele>
        <time>2019-06-15T11:19:58Z</time>
      </trkpt>
      <trkpt lat="46.65146" lon="5.80426">
        <ele>582.22</ele>
        <time>2019-06-15T11:20:24Z</time>
      </trkpt>
      <trkpt lat="46.65146" lon="5.80424">
        <ele>582.22</ele>
        <time>2019-06-15T11:20:51Z</time>
      </trkpt>
      <trkpt lat="46.65146" lon="5.80426">
        <ele>582.22</ele>
        <time>2019-06-15T11:21:20Z</time>
      </trkpt>
      <trkpt lat="46.65146" lon="5.80425">
        <ele>582.22</ele>
        <time>2019-06-15T11:21:47Z</time>
      </trkpt>
      <trkpt lat="46.65146" lon="5.80426">
        <ele>582.22</ele>
        <time>2019-06-15T11:22:13Z</time>
      </trkpt>
      <trkpt lat="46.65146" lon="5.80427">
        <ele>582.22</ele>
        <time>2019-06-15T11:22:43Z</time>
      </trkpt>
      <trkpt lat="46.65145" lon="5.80426">
        <ele>582.22</ele>
        <time>2019-06-15T11:23:08Z</time>
      </trkpt>
      <trkpt lat="46.65146" lon="5.80425">
        <ele>582.7</ele>
        <time>2019-06-15T11:23:26Z</time>
      </trkpt>
      <trkpt lat="46.65146" lon="5.80424">
        <ele>582.22</ele>
        <time>2019-06-15T11:23:47Z</time>
      </trkpt>
      <trkpt lat="46.65146" lon="5.80424">
        <ele>582.22</ele>
        <time>2019-06-15T11:24:19Z</time>
      </trkpt>
      <trkpt lat="46.65146" lon="5.80424">
        <ele>582.7</ele>
        <time>2019-06-15T11:24:55Z</time>
      </trkpt>
      <trkpt lat="46.65147" lon="5.80424">
        <ele>582.22</ele>
        <time>2019-06-15T11:25:26Z</time>
      </trkpt>
      <trkpt lat="46.65146" lon="5.80423">
        <ele>583.18</ele>
        <time>2019-06-15T11:25:58Z</time>
      </trkpt>
      <trkpt lat="46.65146" lon="5.80422">
        <ele>583.18</ele>
        <time>2019-06-15T11:26:28Z</time>
      </trkpt>
      <trkpt lat="46.65146" lon="5.80422">
        <ele>582.7</ele>
        <time>2019-06-15T11:26:58Z</time>
      </trkpt>
      <trkpt lat="46.65146" lon="5.80422">
        <ele>583.18</ele>
        <time>2019-06-15T11:27:32Z</time>
      </trkpt>
      <trkpt lat="46.65146" lon="5.80423">
        <ele>583.66</ele>
        <time>2019-06-15T11:27:45Z</time>
      </trkpt>
      <trkpt lat="46.65146" lon="5.80423">
        <ele>583.66</ele>
        <time>2019-06-15T11:28:01Z</time>
      </trkpt>
      <trkpt lat="46.65146" lon="5.80424">
        <ele>583.18</ele>
        <time>2019-06-15T11:28:17Z</time>
      </trkpt>
      <trkpt lat="46.65147" lon="5.80424">
        <ele>584.14</ele>
        <time>2019-06-15T11:28:37Z</time>
      </trkpt>
      <trkpt lat="46.65147" lon="5.80425">
        <ele>584.14</ele>
        <time>2019-06-15T11:28:54Z</time>
      </trkpt>
      <trkpt lat="46.65147" lon="5.80425">
        <ele>583.66</ele>
        <time>2019-06-15T11:29:15Z</time>
      </trkpt>
      <trkpt lat="46.65147" lon="5.80427">
        <ele>583.66</ele>
        <time>2019-06-15T11:29:27Z</time>
      </trkpt>
      <trkpt lat="46.65147" lon="5.80427">
        <ele>583.66</ele>
        <time>2019-06-15T11:29:51Z</time>
      </trkpt>
      <trkpt lat="46.65147" lon="5.80427">
        <ele>584.14</ele>
        <time>2019-06-15T11:30:17Z</time>
      </trkpt>
      <trkpt lat="46.65146" lon="5.80426">
        <ele>583.66</ele>
        <time>2019-06-15T11:30:35Z</time>
      </trkpt>
      <trkpt lat="46.6514" lon="5.80425">
        <ele>583.18</ele>
        <time>2019-06-15T11:30:49Z</time>
      </trkpt>
      <trkpt lat="46.6514" lon="5.80425">
        <ele>583.18</ele>
        <time>2019-06-15T11:30:51Z</time>
      </trkpt>
      <trkpt lat="46.65136" lon="5.8043">
        <ele>581.73</ele>
        <time>2019-06-15T11:31:02Z</time>
      </trkpt>
      <trkpt lat="46.65132" lon="5.80438">
        <ele>580.29</ele>
        <time>2019-06-15T11:31:11Z</time>
      </trkpt>
      <trkpt lat="46.65129" lon="5.80449">
        <ele>579.33</ele>
        <time>2019-06-15T11:31:20Z</time>
      </trkpt>
      <trkpt lat="46.6512" lon="5.80466">
        <ele>576.93</ele>
        <time>2019-06-15T11:31:35Z</time>
      </trkpt>
      <trkpt lat="46.65112" lon="5.8048">
        <ele>575.01</ele>
        <time>2019-06-15T11:31:49Z</time>
      </trkpt>
      <trkpt lat="46.65111" lon="5.80482">
        <ele>574.53</ele>
        <time>2019-06-15T11:31:51Z</time>
      </trkpt>
      <trkpt lat="46.65104" lon="5.805">
        <ele>573.08</ele>
        <time>2019-06-15T11:32:05Z</time>
      </trkpt>
      <trkpt lat="46.65099" lon="5.80516">
        <ele>572.12</ele>
        <time>2019-06-15T11:32:17Z</time>
      </trkpt>
      <trkpt lat="46.65092" lon="5.80532">
        <ele>571.64</ele>
        <time>2019-06-15T11:32:29Z</time>
      </trkpt>
      <trkpt lat="46.65083" lon="5.80543">
        <ele>571.64</ele>
        <time>2019-06-15T11:32:40Z</time>
      </trkpt>
      <trkpt lat="46.65078" lon="5.8055">
        <ele>572.12</ele>
        <time>2019-06-15T11:32:52Z</time>
      </trkpt>
      <trkpt lat="46.65076" lon="5.80552">
        <ele>571.64</ele>
        <time>2019-06-15T11:33:10Z</time>
      </trkpt>
      <trkpt lat="46.65071" lon="5.80556">
        <ele>572.12</ele>
        <time>2019-06-15T11:33:22Z</time>
      </trkpt>
      <trkpt lat="46.65071" lon="5.80557">
        <ele>572.12</ele>
        <time>2019-06-15T11:33:40Z</time>
      </trkpt>
      <trkpt lat="46.65067" lon="5.80562">
        <ele>572.6</ele>
        <time>2019-06-15T11:33:56Z</time>
      </trkpt>
      <trkpt lat="46.65065" lon="5.80564">
        <ele>572.12</ele>
        <time>2019-06-15T11:34:07Z</time>
      </trkpt>
      <trkpt lat="46.65057" lon="5.80573">
        <ele>573.56</ele>
        <time>2019-06-15T11:34:19Z</time>
      </trkpt>
      <trkpt lat="46.65047" lon="5.80585">
        <ele>574.04</ele>
        <time>2019-06-15T11:34:32Z</time>
      </trkpt>
      <trkpt lat="46.65043" lon="5.80591">
        <ele>574.53</ele>
        <time>2019-06-15T11:34:42Z</time>
      </trkpt>
      <trkpt lat="46.65043" lon="5.80591">
        <ele>574.53</ele>
        <time>2019-06-15T11:34:43Z</time>
      </trkpt>
      <trkpt lat="46.6503" lon="5.80609">
        <ele>575.97</ele>
        <time>2019-06-15T11:34:59Z</time>
      </trkpt>
      <trkpt lat="46.65021" lon="5.80623">
        <ele>576.45</ele>
        <time>2019-06-15T11:35:11Z</time>
      </trkpt>
      <trkpt lat="46.6501" lon="5.80639">
        <ele>576.93</ele>
        <time>2019-06-15T11:35:25Z</time>
      </trkpt>
      <trkpt lat="46.65003" lon="5.80657">
        <ele>577.41</ele>
        <time>2019-06-15T11:35:38Z</time>
      </trkpt>
      <trkpt lat="46.64994" lon="5.80672">
        <ele>577.41</ele>
        <time>2019-06-15T11:35:51Z</time>
      </trkpt>
      <trkpt lat="46.64985" lon="5.80689">
        <ele>578.85</ele>
        <time>2019-06-15T11:36:05Z</time>
      </trkpt>
      <trkpt lat="46.64979" lon="5.80704">
        <ele>577.89</ele>
        <time>2019-06-15T11:36:17Z</time>
      </trkpt>
      <trkpt lat="46.64972" lon="5.80724">
        <ele>577.89</ele>
        <time>2019-06-15T11:36:31Z</time>
      </trkpt>
      <trkpt lat="46.64966" lon="5.8074">
        <ele>577.89</ele>
        <time>2019-06-15T11:36:42Z</time>
      </trkpt>
      <trkpt lat="46.64965" lon="5.80745">
        <ele>577.89</ele>
        <time>2019-06-15T11:36:45Z</time>
      </trkpt>
      <trkpt lat="46.64962" lon="5.8075">
        <ele>577.41</ele>
        <time>2019-06-15T11:36:49Z</time>
      </trkpt>
      <trkpt lat="46.64957" lon="5.80769">
        <ele>577.41</ele>
        <time>2019-06-15T11:37:01Z</time>
      </trkpt>
      <trkpt lat="46.64954" lon="5.8079">
        <ele>577.89</ele>
        <time>2019-06-15T11:37:15Z</time>
      </trkpt>
      <trkpt lat="46.64951" lon="5.80811">
        <ele>576.93</ele>
        <time>2019-06-15T11:37:28Z</time>
      </trkpt>
      <trkpt lat="46.64948" lon="5.80836">
        <ele>575.97</ele>
        <time>2019-06-15T11:37:42Z</time>
      </trkpt>
      <trkpt lat="46.64947" lon="5.80848">
        <ele>575.49</ele>
        <time>2019-06-15T11:37:54Z</time>
      </trkpt>
      <trkpt lat="46.64949" lon="5.8086">
        <ele>575.97</ele>
        <time>2019-06-15T11:38:04Z</time>
      </trkpt>
      <trkpt lat="46.6495" lon="5.80886">
        <ele>575.49</ele>
        <time>2019-06-15T11:38:19Z</time>
      </trkpt>
      <trkpt lat="46.64951" lon="5.80908">
        <ele>574.53</ele>
        <time>2019-06-15T11:38:32Z</time>
      </trkpt>
      <trkpt lat="46.64949" lon="5.80926">
        <ele>575.01</ele>
        <time>2019-06-15T11:38:44Z</time>
      </trkpt>
      <trkpt lat="46.64946" lon="5.8095">
        <ele>574.53</ele>
        <time>2019-06-15T11:38:57Z</time>
      </trkpt>
      <trkpt lat="46.64946" lon="5.80952">
        <ele>574.04</ele>
        <time>2019-06-15T11:38:58Z</time>
      </trkpt>
      <trkpt lat="46.64943" lon="5.80963">
        <ele>573.56</ele>
        <time>2019-06-15T11:39:05Z</time>
      </trkpt>
      <trkpt lat="46.64938" lon="5.80985">
        <ele>573.08</ele>
        <time>2019-06-15T11:39:18Z</time>
      </trkpt>
      <trkpt lat="46.64933" lon="5.8101">
        <ele>573.08</ele>
        <time>2019-06-15T11:39:34Z</time>
      </trkpt>
      <trkpt lat="46.64927" lon="5.81031">
        <ele>572.6</ele>
        <time>2019-06-15T11:39:46Z</time>
      </trkpt>
      <trkpt lat="46.64918" lon="5.81054">
        <ele>572.6</ele>
        <time>2019-06-15T11:40:00Z</time>
      </trkpt>
      <trkpt lat="46.64917" lon="5.81055">
        <ele>572.6</ele>
        <time>2019-06-15T11:40:01Z</time>
      </trkpt>
      <trkpt lat="46.64915" lon="5.81059">
        <ele>572.6</ele>
        <time>2019-06-15T11:40:04Z</time>
      </trkpt>
      <trkpt lat="46.64912" lon="5.81061">
        <ele>573.08</ele>
        <time>2019-06-15T11:40:07Z</time>
      </trkpt>
      <trkpt lat="46.64904" lon="5.81075">
        <ele>573.08</ele>
        <time>2019-06-15T11:40:19Z</time>
      </trkpt>
      <trkpt lat="46.649" lon="5.81084">
        <ele>573.08</ele>
        <time>2019-06-15T11:40:25Z</time>
      </trkpt>
      <trkpt lat="46.64894" lon="5.81111">
        <ele>573.08</ele>
        <time>2019-06-15T11:40:40Z</time>
      </trkpt>
      <trkpt lat="46.64897" lon="5.81134">
        <ele>573.56</ele>
        <time>2019-06-15T11:40:53Z</time>
      </trkpt>
      <trkpt lat="46.64898" lon="5.81141">
        <ele>573.56</ele>
        <time>2019-06-15T11:40:57Z</time>
      </trkpt>
      <trkpt lat="46.64901" lon="5.81152">
        <ele>573.56</ele>
        <time>2019-06-15T11:41:03Z</time>
      </trkpt>
      <trkpt lat="46.64906" lon="5.81173">
        <ele>574.04</ele>
        <time>2019-06-15T11:41:16Z</time>
      </trkpt>
      <trkpt lat="46.64907" lon="5.81179">
        <ele>574.04</ele>
        <time>2019-06-15T11:41:19Z</time>
      </trkpt>
      <trkpt lat="46.64911" lon="5.81195">
        <ele>574.53</ele>
        <time>2019-06-15T11:41:29Z</time>
      </trkpt>
      <trkpt lat="46.64913" lon="5.81205">
        <ele>575.01</ele>
        <time>2019-06-15T11:41:35Z</time>
      </trkpt>
      <trkpt lat="46.64914" lon="5.81222">
        <ele>575.49</ele>
        <time>2019-06-15T11:41:46Z</time>
      </trkpt>
      <trkpt lat="46.64915" lon="5.81228">
        <ele>575.49</ele>
        <time>2019-06-15T11:41:50Z</time>
      </trkpt>
      <trkpt lat="46.64917" lon="5.8124">
        <ele>575.49</ele>
        <time>2019-06-15T11:41:58Z</time>
      </trkpt>
      <trkpt lat="46.64917" lon="5.81246">
        <ele>575.49</ele>
        <time>2019-06-15T11:42:01Z</time>
      </trkpt>
      <trkpt lat="46.6492" lon="5.81272">
        <ele>575.97</ele>
        <time>2019-06-15T11:42:16Z</time>
      </trkpt>
      <trkpt lat="46.6492" lon="5.8129">
        <ele>575.97</ele>
        <time>2019-06-15T11:42:26Z</time>
      </trkpt>
      <trkpt lat="46.64918" lon="5.81305">
        <ele>576.45</ele>
        <time>2019-06-15T11:42:34Z</time>
      </trkpt>
      <trkpt lat="46.64913" lon="5.81326">
        <ele>576.93</ele>
        <time>2019-06-15T11:42:47Z</time>
      </trkpt>
      <trkpt lat="46.64912" lon="5.81335">
        <ele>576.93</ele>
        <time>2019-06-15T11:42:52Z</time>
      </trkpt>
      <trkpt lat="46.6491" lon="5.81344">
        <ele>577.41</ele>
        <time>2019-06-15T11:42:57Z</time>
      </trkpt>
      <trkpt lat="46.64909" lon="5.81351">
        <ele>577.41</ele>
        <time>2019-06-15T11:43:01Z</time>
      </trkpt>
      <trkpt lat="46.64906" lon="5.81376">
        <ele>578.37</ele>
        <time>2019-06-15T11:43:15Z</time>
      </trkpt>
      <trkpt lat="46.64906" lon="5.81393">
        <ele>578.85</ele>
        <time>2019-06-15T11:43:24Z</time>
      </trkpt>
      <trkpt lat="46.64908" lon="5.81412">
        <ele>579.33</ele>
        <time>2019-06-15T11:43:35Z</time>
      </trkpt>
      <trkpt lat="46.64911" lon="5.81441">
        <ele>579.33</ele>
        <time>2019-06-15T11:43:50Z</time>
      </trkpt>
      <trkpt lat="46.64911" lon="5.81468">
        <ele>580.29</ele>
        <time>2019-06-15T11:44:05Z</time>
      </trkpt>
      <trkpt lat="46.64909" lon="5.81485">
        <ele>581.25</ele>
        <time>2019-06-15T11:44:15Z</time>
      </trkpt>
      <trkpt lat="46.64905" lon="5.81511">
        <ele>582.7</ele>
        <time>2019-06-15T11:44:30Z</time>
      </trkpt>
      <trkpt lat="46.64905" lon="5.81515">
        <ele>582.7</ele>
        <time>2019-06-15T11:44:32Z</time>
      </trkpt>
      <trkpt lat="46.64901" lon="5.81539">
        <ele>582.7</ele>
        <time>2019-06-15T11:44:44Z</time>
      </trkpt>
      <trkpt lat="46.64901" lon="5.8154">
        <ele>583.18</ele>
        <time>2019-06-15T11:44:45Z</time>
      </trkpt>
      <trkpt lat="46.649" lon="5.81544">
        <ele>583.18</ele>
        <time>2019-06-15T11:44:47Z</time>
      </trkpt>
      <trkpt lat="46.64899" lon="5.8157">
        <ele>584.62</ele>
        <time>2019-06-15T11:45:01Z</time>
      </trkpt>
      <trkpt lat="46.64897" lon="5.81593">
        <ele>585.1</ele>
        <time>2019-06-15T11:45:14Z</time>
      </trkpt>
      <trkpt lat="46.64893" lon="5.81615">
        <ele>585.1</ele>
        <time>2019-06-15T11:45:24Z</time>
      </trkpt>
      <trkpt lat="46.64885" lon="5.81641">
        <ele>585.58</ele>
        <time>2019-06-15T11:45:38Z</time>
      </trkpt>
      <trkpt lat="46.64883" lon="5.81647">
        <ele>585.58</ele>
        <time>2019-06-15T11:45:42Z</time>
      </trkpt>
      <trkpt lat="46.6488" lon="5.81654">
        <ele>585.1</ele>
        <time>2019-06-15T11:45:46Z</time>
      </trkpt>
      <trkpt lat="46.64873" lon="5.81676">
        <ele>585.58</ele>
        <time>2019-06-15T11:46:00Z</time>
      </trkpt>
      <trkpt lat="46.64866" lon="5.81697">
        <ele>586.06</ele>
        <time>2019-06-15T11:46:12Z</time>
      </trkpt>
      <trkpt lat="46.64866" lon="5.81699">
        <ele>586.54</ele>
        <time>2019-06-15T11:46:13Z</time>
      </trkpt>
      <trkpt lat="46.64858" lon="5.81726">
        <ele>587.02</ele>
        <time>2019-06-15T11:46:27Z</time>
      </trkpt>
      <trkpt lat="46.64857" lon="5.81728">
        <ele>587.02</ele>
        <time>2019-06-15T11:46:28Z</time>
      </trkpt>
      <trkpt lat="46.64857" lon="5.81733">
        <ele>587.02</ele>
        <time>2019-06-15T11:46:31Z</time>
      </trkpt>
      <trkpt lat="46.64851" lon="5.81757">
        <ele>587.5</ele>
        <time>2019-06-15T11:46:43Z</time>
      </trkpt>
      <trkpt lat="46.64843" lon="5.81783">
        <ele>587.98</ele>
        <time>2019-06-15T11:46:58Z</time>
      </trkpt>
      <trkpt lat="46.64841" lon="5.81789">
        <ele>588.95</ele>
        <time>2019-06-15T11:47:01Z</time>
      </trkpt>
      <trkpt lat="46.64839" lon="5.81791">
        <ele>589.43</ele>
        <time>2019-06-15T11:47:03Z</time>
      </trkpt>
      <trkpt lat="46.6483" lon="5.81812">
        <ele>590.87</ele>
        <time>2019-06-15T11:47:16Z</time>
      </trkpt>
      <trkpt lat="46.64825" lon="5.81824">
        <ele>590.87</ele>
        <time>2019-06-15T11:47:23Z</time>
      </trkpt>
      <trkpt lat="46.64824" lon="5.81828">
        <ele>590.87</ele>
        <time>2019-06-15T11:47:25Z</time>
      </trkpt>
      <trkpt lat="46.64815" lon="5.81851">
        <ele>591.83</ele>
        <time>2019-06-15T11:47:39Z</time>
      </trkpt>
      <trkpt lat="46.64809" lon="5.81874">
        <ele>592.31</ele>
        <time>2019-06-15T11:47:51Z</time>
      </trkpt>
      <trkpt lat="46.64803" lon="5.81892">
        <ele>593.27</ele>
        <time>2019-06-15T11:48:03Z</time>
      </trkpt>
      <trkpt lat="46.64802" lon="5.81906">
        <ele>593.27</ele>
        <time>2019-06-15T11:48:17Z</time>
      </trkpt>
      <trkpt lat="46.64803" lon="5.81907">
        <ele>593.27</ele>
        <time>2019-06-15T11:48:35Z</time>
      </trkpt>
      <trkpt lat="46.64804" lon="5.81908">
        <ele>593.27</ele>
        <time>2019-06-15T11:48:55Z</time>
      </trkpt>
      <trkpt lat="46.64804" lon="5.81908">
        <ele>592.79</ele>
        <time>2019-06-15T11:49:21Z</time>
      </trkpt>
      <trkpt lat="46.64802" lon="5.81907">
        <ele>593.27</ele>
        <time>2019-06-15T11:49:32Z</time>
      </trkpt>
      <trkpt lat="46.64799" lon="5.81906">
        <ele>592.79</ele>
        <time>2019-06-15T11:49:35Z</time>
      </trkpt>
      <trkpt lat="46.6479" lon="5.81906">
        <ele>592.79</ele>
        <time>2019-06-15T11:49:42Z</time>
      </trkpt>
      <trkpt lat="46.64784" lon="5.81906">
        <ele>592.79</ele>
        <time>2019-06-15T11:49:47Z</time>
      </trkpt>
      <trkpt lat="46.64773" lon="5.8191">
        <ele>592.79</ele>
        <time>2019-06-15T11:49:57Z</time>
      </trkpt>
      <trkpt lat="46.6477" lon="5.81911">
        <ele>592.31</ele>
        <time>2019-06-15T11:49:59Z</time>
      </trkpt>
      <trkpt lat="46.64757" lon="5.8191">
        <ele>591.83</ele>
        <time>2019-06-15T11:50:10Z</time>
      </trkpt>
      <trkpt lat="46.64745" lon="5.81907">
        <ele>593.27</ele>
        <time>2019-06-15T11:50:19Z</time>
      </trkpt>
      <trkpt lat="46.64735" lon="5.8191">
        <ele>594.23</ele>
        <time>2019-06-15T11:50:27Z</time>
      </trkpt>
      <trkpt lat="46.64718" lon="5.81922">
        <ele>594.71</ele>
        <time>2019-06-15T11:50:41Z</time>
      </trkpt>
      <trkpt lat="46.64703" lon="5.81934">
        <ele>595.67</ele>
        <time>2019-06-15T11:50:53Z</time>
      </trkpt>
      <trkpt lat="46.64694" lon="5.81937">
        <ele>595.19</ele>
        <time>2019-06-15T11:51:00Z</time>
      </trkpt>
      <trkpt lat="46.64677" lon="5.81936">
        <ele>595.67</ele>
        <time>2019-06-15T11:51:14Z</time>
      </trkpt>
      <trkpt lat="46.6466" lon="5.8194">
        <ele>596.15</ele>
        <time>2019-06-15T11:51:27Z</time>
      </trkpt>
      <trkpt lat="46.64645" lon="5.81947">
        <ele>596.64</ele>
        <time>2019-06-15T11:51:40Z</time>
      </trkpt>
      <trkpt lat="46.64633" lon="5.81957">
        <ele>597.12</ele>
        <time>2019-06-15T11:51:51Z</time>
      </trkpt>
      <trkpt lat="46.64617" lon="5.81967">
        <ele>598.08</ele>
        <time>2019-06-15T11:52:03Z</time>
      </trkpt>
      <trkpt lat="46.64606" lon="5.81975">
        <ele>598.08</ele>
        <time>2019-06-15T11:52:13Z</time>
      </trkpt>
      <trkpt lat="46.64596" lon="5.81983">
        <ele>598.56</ele>
        <time>2019-06-15T11:52:22Z</time>
      </trkpt>
      <trkpt lat="46.64592" lon="5.81987">
        <ele>598.56</ele>
        <time>2019-06-15T11:52:26Z</time>
      </trkpt>
      <trkpt lat="46.64584" lon="5.81992">
        <ele>598.56</ele>
        <time>2019-06-15T11:52:34Z</time>
      </trkpt>
      <trkpt lat="46.64578" lon="5.81993">
        <ele>598.08</ele>
        <time>2019-06-15T11:52:39Z</time>
      </trkpt>
      <trkpt lat="46.64566" lon="5.82004">
        <ele>597.12</ele>
        <time>2019-06-15T11:52:53Z</time>
      </trkpt>
      <trkpt lat="46.64562" lon="5.82007">
        <ele>596.64</ele>
        <time>2019-06-15T11:52:58Z</time>
      </trkpt>
      <trkpt lat="46.64547" lon="5.82009">
        <ele>596.15</ele>
        <time>2019-06-15T11:53:08Z</time>
      </trkpt>
      <trkpt lat="46.6452" lon="5.82007">
        <ele>596.64</ele>
        <time>2019-06-15T11:53:24Z</time>
      </trkpt>
      <trkpt lat="46.64504" lon="5.82001">
        <ele>596.64</ele>
        <time>2019-06-15T11:53:36Z</time>
      </trkpt>
      <trkpt lat="46.64491" lon="5.81998">
        <ele>597.12</ele>
        <time>2019-06-15T11:53:45Z</time>
      </trkpt>
      <trkpt lat="46.64484" lon="5.81997">
        <ele>597.6</ele>
        <time>2019-06-15T11:53:50Z</time>
      </trkpt>
      <trkpt lat="46.6447" lon="5.82006">
        <ele>597.6</ele>
        <time>2019-06-15T11:54:02Z</time>
      </trkpt>
      <trkpt lat="46.64465" lon="5.82007">
        <ele>598.08</ele>
        <time>2019-06-15T11:54:06Z</time>
      </trkpt>
      <trkpt lat="46.64452" lon="5.82015">
        <ele>598.08</ele>
        <time>2019-06-15T11:54:15Z</time>
      </trkpt>
      <trkpt lat="46.64438" lon="5.82026">
        <ele>599.04</ele>
        <time>2019-06-15T11:54:28Z</time>
      </trkpt>
      <trkpt lat="46.6442" lon="5.82037">
        <ele>600.48</ele>
        <time>2019-06-15T11:54:43Z</time>
      </trkpt>
      <trkpt lat="46.64412" lon="5.82042">
        <ele>600.48</ele>
        <time>2019-06-15T11:54:49Z</time>
      </trkpt>
      <trkpt lat="46.64398" lon="5.82055">
        <ele>601.92</ele>
        <time>2019-06-15T11:55:01Z</time>
      </trkpt>
      <trkpt lat="46.64391" lon="5.82057">
        <ele>601.44</ele>
        <time>2019-06-15T11:55:06Z</time>
      </trkpt>
      <trkpt lat="46.64386" lon="5.82059">
        <ele>601.92</ele>
        <time>2019-06-15T11:55:11Z</time>
      </trkpt>
      <trkpt lat="46.64379" lon="5.82061">
        <ele>602.4</ele>
        <time>2019-06-15T11:55:17Z</time>
      </trkpt>
      <trkpt lat="46.64362" lon="5.82065">
        <ele>603.36</ele>
        <time>2019-06-15T11:55:32Z</time>
      </trkpt>
      <trkpt lat="46.64345" lon="5.82065">
        <ele>604.33</ele>
        <time>2019-06-15T11:55:46Z</time>
      </trkpt>
      <trkpt lat="46.64331" lon="5.82064">
        <ele>604.81</ele>
        <time>2019-06-15T11:55:57Z</time>
      </trkpt>
      <trkpt lat="46.64312" lon="5.82063">
        <ele>605.29</ele>
        <time>2019-06-15T11:56:11Z</time>
      </trkpt>
      <trkpt lat="46.64295" lon="5.82059">
        <ele>606.73</ele>
        <time>2019-06-15T11:56:23Z</time>
      </trkpt>
      <trkpt lat="46.64287" lon="5.82059">
        <ele>607.21</ele>
        <time>2019-06-15T11:56:29Z</time>
      </trkpt>
      <trkpt lat="46.64282" lon="5.82057">
        <ele>607.69</ele>
        <time>2019-06-15T11:56:34Z</time>
      </trkpt>
      <trkpt lat="46.64274" lon="5.82051">
        <ele>608.17</ele>
        <time>2019-06-15T11:56:41Z</time>
      </trkpt>
      <trkpt lat="46.64265" lon="5.82051">
        <ele>609.13</ele>
        <time>2019-06-15T11:56:46Z</time>
      </trkpt>
      <trkpt lat="46.64262" lon="5.8205">
        <ele>609.61</ele>
        <time>2019-06-15T11:56:48Z</time>
      </trkpt>
      <trkpt lat="46.6425" lon="5.82053">
        <ele>610.57</ele>
        <time>2019-06-15T11:57:01Z</time>
      </trkpt>
      <trkpt lat="46.64237" lon="5.82052">
        <ele>612.98</ele>
        <time>2019-06-15T11:57:14Z</time>
      </trkpt>
      <trkpt lat="46.6422" lon="5.82052">
        <ele>615.38</ele>
        <time>2019-06-15T11:57:27Z</time>
      </trkpt>
      <trkpt lat="46.64201" lon="5.82049">
        <ele>617.78</ele>
        <time>2019-06-15T11:57:42Z</time>
      </trkpt>
      <trkpt lat="46.64189" lon="5.82045">
        <ele>620.19</ele>
        <time>2019-06-15T11:57:54Z</time>
      </trkpt>
      <trkpt lat="46.64183" lon="5.82043">
        <ele>621.15</ele>
        <time>2019-06-15T11:57:58Z</time>
      </trkpt>
      <trkpt lat="46.64169" lon="5.82036">
        <ele>623.07</ele>
        <time>2019-06-15T11:58:10Z</time>
      </trkpt>
      <trkpt lat="46.64163" lon="5.82028">
        <ele>623.07</ele>
        <time>2019-06-15T11:58:21Z</time>
      </trkpt>
      <trkpt lat="46.64162" lon="5.82028">
        <ele>623.55</ele>
        <time>2019-06-15T11:58:45Z</time>
      </trkpt>
      <trkpt lat="46.64162" lon="5.82027">
        <ele>624.03</ele>
        <time>2019-06-15T11:59:13Z</time>
      </trkpt>
      <trkpt lat="46.64161" lon="5.82017">
        <ele>624.03</ele>
        <time>2019-06-15T11:59:31Z</time>
      </trkpt>
      <trkpt lat="46.64159" lon="5.81992">
        <ele>624.03</ele>
        <time>2019-06-15T11:59:45Z</time>
      </trkpt>
      <trkpt lat="46.64158" lon="5.81979">
        <ele>624.03</ele>
        <time>2019-06-15T11:59:57Z</time>
      </trkpt>
      <trkpt lat="46.64158" lon="5.81961">
        <ele>623.07</ele>
        <time>2019-06-15T12:00:08Z</time>
      </trkpt>
      <trkpt lat="46.64154" lon="5.81933">
        <ele>622.59</ele>
        <time>2019-06-15T12:00:19Z</time>
      </trkpt>
      <trkpt lat="46.64151" lon="5.81912">
        <ele>620.67</ele>
        <time>2019-06-15T12:00:32Z</time>
      </trkpt>
      <trkpt lat="46.64151" lon="5.81878">
        <ele>619.71</ele>
        <time>2019-06-15T12:00:44Z</time>
      </trkpt>
      <trkpt lat="46.64158" lon="5.81866">
        <ele>617.78</ele>
        <time>2019-06-15T12:00:55Z</time>
      </trkpt>
      <trkpt lat="46.64167" lon="5.81856">
        <ele>616.34</ele>
        <time>2019-06-15T12:01:07Z</time>
      </trkpt>
      <trkpt lat="46.64167" lon="5.81833">
        <ele>614.9</ele>
        <time>2019-06-15T12:01:18Z</time>
      </trkpt>
      <trkpt lat="46.64165" lon="5.81813">
        <ele>611.54</ele>
        <time>2019-06-15T12:01:32Z</time>
      </trkpt>
      <trkpt lat="46.64159" lon="5.81798">
        <ele>609.61</ele>
        <time>2019-06-15T12:01:46Z</time>
      </trkpt>
      <trkpt lat="46.64152" lon="5.81782">
        <ele>608.17</ele>
        <time>2019-06-15T12:01:57Z</time>
      </trkpt>
      <trkpt lat="46.64151" lon="5.8178">
        <ele>608.17</ele>
        <time>2019-06-15T12:01:58Z</time>
      </trkpt>
      <trkpt lat="46.64144" lon="5.81768">
        <ele>607.21</ele>
        <time>2019-06-15T12:02:03Z</time>
      </trkpt>
      <trkpt lat="46.64134" lon="5.8175">
        <ele>605.77</ele>
        <time>2019-06-15T12:02:13Z</time>
      </trkpt>
      <trkpt lat="46.64133" lon="5.8175">
        <ele>605.77</ele>
        <time>2019-06-15T12:02:14Z</time>
      </trkpt>
      <trkpt lat="46.64126" lon="5.81737">
        <ele>605.77</ele>
        <time>2019-06-15T12:02:21Z</time>
      </trkpt>
      <trkpt lat="46.64115" lon="5.8171">
        <ele>603.85</ele>
        <time>2019-06-15T12:02:31Z</time>
      </trkpt>
      <trkpt lat="46.64106" lon="5.8169">
        <ele>601.92</ele>
        <time>2019-06-15T12:02:42Z</time>
      </trkpt>
      <trkpt lat="46.64095" lon="5.81676">
        <ele>598.56</ele>
        <time>2019-06-15T12:02:52Z</time>
      </trkpt>
      <trkpt lat="46.64091" lon="5.81666">
        <ele>595.67</ele>
        <time>2019-06-15T12:03:03Z</time>
      </trkpt>
      <trkpt lat="46.64087" lon="5.81653">
        <ele>592.79</ele>
        <time>2019-06-15T12:03:16Z</time>
      </trkpt>
      <trkpt lat="46.64084" lon="5.81632">
        <ele>591.83</ele>
        <time>2019-06-15T12:03:27Z</time>
      </trkpt>
      <trkpt lat="46.64081" lon="5.81614">
        <ele>591.83</ele>
        <time>2019-06-15T12:03:38Z</time>
      </trkpt>
      <trkpt lat="46.6408" lon="5.81593">
        <ele>590.87</ele>
        <time>2019-06-15T12:03:51Z</time>
      </trkpt>
      <trkpt lat="46.64072" lon="5.81567">
        <ele>590.39</ele>
        <time>2019-06-15T12:04:03Z</time>
      </trkpt>
      <trkpt lat="46.64066" lon="5.81555">
        <ele>590.39</ele>
        <time>2019-06-15T12:04:11Z</time>
      </trkpt>
      <trkpt lat="46.64054" lon="5.8154">
        <ele>590.39</ele>
        <time>2019-06-15T12:04:23Z</time>
      </trkpt>
      <trkpt lat="46.64053" lon="5.81539">
        <ele>590.39</ele>
        <time>2019-06-15T12:04:24Z</time>
      </trkpt>
      <trkpt lat="46.64038" lon="5.81529">
        <ele>589.91</ele>
        <time>2019-06-15T12:04:38Z</time>
      </trkpt>
      <trkpt lat="46.64028" lon="5.81513">
        <ele>590.39</ele>
        <time>2019-06-15T12:04:51Z</time>
      </trkpt>
      <trkpt lat="46.64026" lon="5.81502">
        <ele>591.35</ele>
        <time>2019-06-15T12:05:02Z</time>
      </trkpt>
      <trkpt lat="46.64019" lon="5.81485">
        <ele>592.31</ele>
        <time>2019-06-15T12:05:11Z</time>
      </trkpt>
      <trkpt lat="46.64017" lon="5.81484">
        <ele>592.31</ele>
        <time>2019-06-15T12:05:17Z</time>
      </trkpt>
      <trkpt lat="46.64014" lon="5.81469">
        <ele>591.83</ele>
        <time>2019-06-15T12:05:23Z</time>
      </trkpt>
      <trkpt lat="46.64012" lon="5.8146">
        <ele>591.35</ele>
        <time>2019-06-15T12:05:26Z</time>
      </trkpt>
      <trkpt lat="46.64004" lon="5.8144">
        <ele>590.87</ele>
        <time>2019-06-15T12:05:38Z</time>
      </trkpt>
      <trkpt lat="46.64004" lon="5.8142">
        <ele>590.39</ele>
        <time>2019-06-15T12:05:50Z</time>
      </trkpt>
      <trkpt lat="46.64003" lon="5.81403">
        <ele>591.35</ele>
        <time>2019-06-15T12:06:02Z</time>
      </trkpt>
      <trkpt lat="46.63998" lon="5.8137">
        <ele>590.87</ele>
        <time>2019-06-15T12:06:15Z</time>
      </trkpt>
      <trkpt lat="46.63996" lon="5.81345">
        <ele>589.43</ele>
        <time>2019-06-15T12:06:28Z</time>
      </trkpt>
      <trkpt lat="46.63997" lon="5.8132">
        <ele>588.46</ele>
        <time>2019-06-15T12:06:40Z</time>
      </trkpt>
      <trkpt lat="46.6399" lon="5.81302">
        <ele>587.5</ele>
        <time>2019-06-15T12:06:50Z</time>
      </trkpt>
      <trkpt lat="46.63984" lon="5.81289">
        <ele>587.02</ele>
        <time>2019-06-15T12:06:55Z</time>
      </trkpt>
      <trkpt lat="46.63977" lon="5.81279">
        <ele>585.58</ele>
        <time>2019-06-15T12:07:01Z</time>
      </trkpt>
      <trkpt lat="46.63966" lon="5.81281">
        <ele>582.7</ele>
        <time>2019-06-15T12:07:12Z</time>
      </trkpt>
      <trkpt lat="46.63963" lon="5.81281">
        <ele>582.22</ele>
        <time>2019-06-15T12:07:15Z</time>
      </trkpt>
      <trkpt lat="46.63943" lon="5.8126">
        <ele>582.22</ele>
        <time>2019-06-15T12:07:30Z</time>
      </trkpt>
      <trkpt lat="46.63928" lon="5.8124">
        <ele>579.81</ele>
        <time>2019-06-15T12:07:42Z</time>
      </trkpt>
      <trkpt lat="46.63921" lon="5.8123">
        <ele>579.81</ele>
        <time>2019-06-15T12:07:47Z</time>
      </trkpt>
      <trkpt lat="46.63909" lon="5.81222">
        <ele>579.33</ele>
        <time>2019-06-15T12:07:59Z</time>
      </trkpt>
      <trkpt lat="46.63904" lon="5.81227">
        <ele>578.85</ele>
        <time>2019-06-15T12:08:11Z</time>
      </trkpt>
      <trkpt lat="46.63898" lon="5.81226">
        <ele>576.93</ele>
        <time>2019-06-15T12:08:21Z</time>
      </trkpt>
      <trkpt lat="46.63889" lon="5.81228">
        <ele>573.56</ele>
        <time>2019-06-15T12:08:31Z</time>
      </trkpt>
      <trkpt lat="46.63894" lon="5.81218">
        <ele>570.2</ele>
        <time>2019-06-15T12:08:42Z</time>
      </trkpt>
      <trkpt lat="46.63899" lon="5.81206">
        <ele>567.8</ele>
        <time>2019-06-15T12:08:51Z</time>
      </trkpt>
      <trkpt lat="46.63896" lon="5.81195">
        <ele>564.91</ele>
        <time>2019-06-15T12:09:02Z</time>
      </trkpt>
      <trkpt lat="46.6389" lon="5.81203">
        <ele>561.55</ele>
        <time>2019-06-15T12:09:11Z</time>
      </trkpt>
      <trkpt lat="46.63872" lon="5.81203">
        <ele>558.18</ele>
        <time>2019-06-15T12:09:24Z</time>
      </trkpt>
      <trkpt lat="46.63867" lon="5.81209">
        <ele>555.3</ele>
        <time>2019-06-15T12:09:34Z</time>
      </trkpt>
      <trkpt lat="46.63854" lon="5.81225">
        <ele>552.9</ele>
        <time>2019-06-15T12:09:46Z</time>
      </trkpt>
      <trkpt lat="46.63839" lon="5.81236">
        <ele>550.97</ele>
        <time>2019-06-15T12:09:59Z</time>
      </trkpt>
      <trkpt lat="46.63825" lon="5.81251">
        <ele>548.57</ele>
        <time>2019-06-15T12:10:13Z</time>
      </trkpt>
      <trkpt lat="46.6382" lon="5.81263">
        <ele>546.65</ele>
        <time>2019-06-15T12:10:26Z</time>
      </trkpt>
      <trkpt lat="46.63809" lon="5.81275">
        <ele>544.72</ele>
        <time>2019-06-15T12:10:38Z</time>
      </trkpt>
      <trkpt lat="46.638" lon="5.8129">
        <ele>541.84</ele>
        <time>2019-06-15T12:10:50Z</time>
      </trkpt>
      <trkpt lat="46.63796" lon="5.81295">
        <ele>538.48</ele>
        <time>2019-06-15T12:11:02Z</time>
      </trkpt>
      <trkpt lat="46.63771" lon="5.81307">
        <ele>535.11</ele>
        <time>2019-06-15T12:11:12Z</time>
      </trkpt>
      <trkpt lat="46.6376" lon="5.81315">
        <ele>532.23</ele>
        <time>2019-06-15T12:11:22Z</time>
      </trkpt>
      <trkpt lat="46.63748" lon="5.8132">
        <ele>529.34</ele>
        <time>2019-06-15T12:11:32Z</time>
      </trkpt>
      <trkpt lat="46.63737" lon="5.81327">
        <ele>525.98</ele>
        <time>2019-06-15T12:11:44Z</time>
      </trkpt>
      <trkpt lat="46.63735" lon="5.81331">
        <ele>525.5</ele>
        <time>2019-06-15T12:11:48Z</time>
      </trkpt>
      <trkpt lat="46.63721" lon="5.81341">
        <ele>522.61</ele>
        <time>2019-06-15T12:11:58Z</time>
      </trkpt>
      <trkpt lat="46.63718" lon="5.81346">
        <ele>522.13</ele>
        <time>2019-06-15T12:12:00Z</time>
      </trkpt>
      <trkpt lat="46.63704" lon="5.81366">
        <ele>519.25</ele>
        <time>2019-06-15T12:12:13Z</time>
      </trkpt>
      <trkpt lat="46.63694" lon="5.81377">
        <ele>517.33</ele>
        <time>2019-06-15T12:12:24Z</time>
      </trkpt>
      <trkpt lat="46.63689" lon="5.81379">
        <ele>515.4</ele>
        <time>2019-06-15T12:12:30Z</time>
      </trkpt>
      <trkpt lat="46.63678" lon="5.81397">
        <ele>513</ele>
        <time>2019-06-15T12:12:43Z</time>
      </trkpt>
      <trkpt lat="46.6367" lon="5.8141">
        <ele>511.56</ele>
        <time>2019-06-15T12:12:54Z</time>
      </trkpt>
      <trkpt lat="46.6366" lon="5.81423">
        <ele>510.12</ele>
        <time>2019-06-15T12:13:08Z</time>
      </trkpt>
      <trkpt lat="46.6365" lon="5.81431">
        <ele>509.64</ele>
        <time>2019-06-15T12:13:19Z</time>
      </trkpt>
      <trkpt lat="46.63641" lon="5.81432">
        <ele>509.64</ele>
        <time>2019-06-15T12:13:23Z</time>
      </trkpt>
      <trkpt lat="46.63604" lon="5.81425">
        <ele>509.16</ele>
        <time>2019-06-15T12:13:37Z</time>
      </trkpt>
      <trkpt lat="46.63595" lon="5.81416">
        <ele>508.67</ele>
        <time>2019-06-15T12:13:44Z</time>
      </trkpt>
      <trkpt lat="46.63591" lon="5.81413">
        <ele>508.67</ele>
        <time>2019-06-15T12:13:48Z</time>
      </trkpt>
      <trkpt lat="46.63579" lon="5.81396">
        <ele>508.67</ele>
        <time>2019-06-15T12:14:03Z</time>
      </trkpt>
      <trkpt lat="46.63559" lon="5.81376">
        <ele>508.19</ele>
        <time>2019-06-15T12:14:20Z</time>
      </trkpt>
      <trkpt lat="46.6354" lon="5.81357">
        <ele>507.71</ele>
        <time>2019-06-15T12:14:34Z</time>
      </trkpt>
      <trkpt lat="46.63518" lon="5.81343">
        <ele>506.75</ele>
        <time>2019-06-15T12:14:51Z</time>
      </trkpt>
      <trkpt lat="46.63499" lon="5.81332">
        <ele>506.75</ele>
        <time>2019-06-15T12:15:05Z</time>
      </trkpt>
      <trkpt lat="46.63478" lon="5.81318">
        <ele>506.27</ele>
        <time>2019-06-15T12:15:22Z</time>
      </trkpt>
      <trkpt lat="46.63458" lon="5.81306">
        <ele>505.79</ele>
        <time>2019-06-15T12:15:38Z</time>
      </trkpt>
      <trkpt lat="46.63449" lon="5.813">
        <ele>505.31</ele>
        <time>2019-06-15T12:15:45Z</time>
      </trkpt>
      <trkpt lat="46.63438" lon="5.81294">
        <ele>504.83</ele>
        <time>2019-06-15T12:15:53Z</time>
      </trkpt>
      <trkpt lat="46.63435" lon="5.81292">
        <ele>504.83</ele>
        <time>2019-06-15T12:15:56Z</time>
      </trkpt>
      <trkpt lat="46.63427" lon="5.81287">
        <ele>503.87</ele>
        <time>2019-06-15T12:16:04Z</time>
      </trkpt>
      <trkpt lat="46.63411" lon="5.81277">
        <ele>503.39</ele>
        <time>2019-06-15T12:16:16Z</time>
      </trkpt>
      <trkpt lat="46.63405" lon="5.81273">
        <ele>503.39</ele>
        <time>2019-06-15T12:16:21Z</time>
      </trkpt>
      <trkpt lat="46.63401" lon="5.81277">
        <ele>503.39</ele>
        <time>2019-06-15T12:16:32Z</time>
      </trkpt>
      <trkpt lat="46.63401" lon="5.81278">
        <ele>503.39</ele>
        <time>2019-06-15T12:16:52Z</time>
      </trkpt>
      <trkpt lat="46.63401" lon="5.81279">
        <ele>503.87</ele>
        <time>2019-06-15T12:17:09Z</time>
      </trkpt>
      <trkpt lat="46.63401" lon="5.8127">
        <ele>503.39</ele>
        <time>2019-06-15T12:17:24Z</time>
      </trkpt>
      <trkpt lat="46.634" lon="5.81268">
        <ele>503.39</ele>
        <time>2019-06-15T12:17:47Z</time>
      </trkpt>
      <trkpt lat="46.63402" lon="5.81255">
        <ele>502.91</ele>
        <time>2019-06-15T12:17:59Z</time>
      </trkpt>
      <trkpt lat="46.63403" lon="5.8124">
        <ele>502.91</ele>
        <time>2019-06-15T12:18:09Z</time>
      </trkpt>
      <trkpt lat="46.63397" lon="5.8122">
        <ele>502.91</ele>
        <time>2019-06-15T12:18:21Z</time>
      </trkpt>
      <trkpt lat="46.63395" lon="5.81214">
        <ele>503.39</ele>
        <time>2019-06-15T12:18:37Z</time>
      </trkpt>
      <trkpt lat="46.63395" lon="5.81214">
        <ele>503.39</ele>
        <time>2019-06-15T12:19:00Z</time>
      </trkpt>
      <trkpt lat="46.63395" lon="5.81212">
        <ele>502.91</ele>
        <time>2019-06-15T12:19:18Z</time>
      </trkpt>
      <trkpt lat="46.63393" lon="5.81209">
        <ele>503.87</ele>
        <time>2019-06-15T12:19:29Z</time>
      </trkpt>
      <trkpt lat="46.63393" lon="5.81208">
        <ele>503.39</ele>
        <time>2019-06-15T12:19:47Z</time>
      </trkpt>
      <trkpt lat="46.63393" lon="5.81207">
        <ele>503.87</ele>
        <time>2019-06-15T12:20:04Z</time>
      </trkpt>
      <trkpt lat="46.63392" lon="5.81206">
        <ele>503.39</ele>
        <time>2019-06-15T12:20:20Z</time>
      </trkpt>
      <trkpt lat="46.6339" lon="5.81203">
        <ele>503.39</ele>
        <time>2019-06-15T12:20:38Z</time>
      </trkpt>
      <trkpt lat="46.63389" lon="5.81199">
        <ele>503.39</ele>
        <time>2019-06-15T12:20:59Z</time>
      </trkpt>
      <trkpt lat="46.63388" lon="5.81197">
        <ele>502.91</ele>
        <time>2019-06-15T12:21:17Z</time>
      </trkpt>
      <trkpt lat="46.63388" lon="5.81195">
        <ele>502.91</ele>
        <time>2019-06-15T12:21:34Z</time>
      </trkpt>
      <trkpt lat="46.63387" lon="5.81186">
        <ele>503.39</ele>
        <time>2019-06-15T12:21:40Z</time>
      </trkpt>
      <trkpt lat="46.63387" lon="5.81178">
        <ele>502.91</ele>
        <time>2019-06-15T12:21:44Z</time>
      </trkpt>
      <trkpt lat="46.63387" lon="5.81173">
        <ele>502.91</ele>
        <time>2019-06-15T12:21:47Z</time>
      </trkpt>
      <trkpt lat="46.63383" lon="5.81166">
        <ele>503.39</ele>
        <time>2019-06-15T12:21:51Z</time>
      </trkpt>
      <trkpt lat="46.6338" lon="5.81156">
        <ele>502.91</ele>
        <time>2019-06-15T12:21:58Z</time>
      </trkpt>
      <trkpt lat="46.63377" lon="5.81142">
        <ele>502.91</ele>
        <time>2019-06-15T12:22:14Z</time>
      </trkpt>
      <trkpt lat="46.63378" lon="5.81126">
        <ele>502.43</ele>
        <time>2019-06-15T12:22:25Z</time>
      </trkpt>
      <trkpt lat="46.63371" lon="5.81113">
        <ele>502.91</ele>
        <time>2019-06-15T12:22:28Z</time>
      </trkpt>
      <trkpt lat="46.63373" lon="5.81091">
        <ele>502.43</ele>
        <time>2019-06-15T12:22:36Z</time>
      </trkpt>
      <trkpt lat="46.63381" lon="5.81082">
        <ele>502.91</ele>
        <time>2019-06-15T12:22:44Z</time>
      </trkpt>
      <trkpt lat="46.6339" lon="5.81078">
        <ele>502.91</ele>
        <time>2019-06-15T12:22:51Z</time>
      </trkpt>
      <trkpt lat="46.63391" lon="5.81075">
        <ele>502.91</ele>
        <time>2019-06-15T12:22:53Z</time>
      </trkpt>
      <trkpt lat="46.63394" lon="5.8107">
        <ele>502.43</ele>
        <time>2019-06-15T12:22:57Z</time>
      </trkpt>
      <trkpt lat="46.63395" lon="5.81068">
        <ele>502.43</ele>
        <time>2019-06-15T12:23:00Z</time>
      </trkpt>
      <trkpt lat="46.63406" lon="5.81064">
        <ele>501.95</ele>
        <time>2019-06-15T12:23:13Z</time>
      </trkpt>
      <trkpt lat="46.63409" lon="5.81062">
        <ele>501.95</ele>
        <time>2019-06-15T12:23:16Z</time>
      </trkpt>
      <trkpt lat="46.63412" lon="5.81042">
        <ele>501.46</ele>
        <time>2019-06-15T12:23:25Z</time>
      </trkpt>
      <trkpt lat="46.63414" lon="5.81021">
        <ele>502.43</ele>
        <time>2019-06-15T12:23:35Z</time>
      </trkpt>
      <trkpt lat="46.63417" lon="5.8102">
        <ele>501.95</ele>
        <time>2019-06-15T12:23:37Z</time>
      </trkpt>
      <trkpt lat="46.63416" lon="5.81005">
        <ele>501.46</ele>
        <time>2019-06-15T12:23:41Z</time>
      </trkpt>
      <trkpt lat="46.63423" lon="5.80987">
        <ele>501.46</ele>
        <time>2019-06-15T12:23:54Z</time>
      </trkpt>
      <trkpt lat="46.63428" lon="5.80969">
        <ele>501.95</ele>
        <time>2019-06-15T12:24:04Z</time>
      </trkpt>
      <trkpt lat="46.63433" lon="5.80961">
        <ele>502.43</ele>
        <time>2019-06-15T12:24:09Z</time>
      </trkpt>
      <trkpt lat="46.63439" lon="5.80956">
        <ele>502.43</ele>
        <time>2019-06-15T12:24:13Z</time>
      </trkpt>
      <trkpt lat="46.63435" lon="5.80924">
        <ele>503.39</ele>
        <time>2019-06-15T12:24:23Z</time>
      </trkpt>
      <trkpt lat="46.63439" lon="5.80914">
        <ele>503.87</ele>
        <time>2019-06-15T12:24:29Z</time>
      </trkpt>
      <trkpt lat="46.6345" lon="5.80903">
        <ele>504.83</ele>
        <time>2019-06-15T12:24:40Z</time>
      </trkpt>
      <trkpt lat="46.63456" lon="5.80891">
        <ele>505.79</ele>
        <time>2019-06-15T12:24:49Z</time>
      </trkpt>
      <trkpt lat="46.63455" lon="5.80852">
        <ele>506.75</ele>
        <time>2019-06-15T12:24:59Z</time>
      </trkpt>
      <trkpt lat="46.63458" lon="5.80847">
        <ele>506.27</ele>
        <time>2019-06-15T12:25:02Z</time>
      </trkpt>
      <trkpt lat="46.63469" lon="5.80832">
        <ele>505.79</ele>
        <time>2019-06-15T12:25:13Z</time>
      </trkpt>
      <trkpt lat="46.63476" lon="5.8082">
        <ele>505.31</ele>
        <time>2019-06-15T12:25:25Z</time>
      </trkpt>
      <trkpt lat="46.6348" lon="5.80795">
        <ele>505.79</ele>
        <time>2019-06-15T12:25:35Z</time>
      </trkpt>
      <trkpt lat="46.6348" lon="5.80792">
        <ele>505.79</ele>
        <time>2019-06-15T12:25:37Z</time>
      </trkpt>
      <trkpt lat="46.6349" lon="5.80769">
        <ele>506.75</ele>
        <time>2019-06-15T12:25:50Z</time>
      </trkpt>
      <trkpt lat="46.63488" lon="5.8074">
        <ele>508.67</ele>
        <time>2019-06-15T12:26:04Z</time>
      </trkpt>
      <trkpt lat="46.63492" lon="5.80727">
        <ele>511.08</ele>
        <time>2019-06-15T12:26:17Z</time>
      </trkpt>
      <trkpt lat="46.63498" lon="5.80718">
        <ele>513</ele>
        <time>2019-06-15T12:26:28Z</time>
      </trkpt>
      <trkpt lat="46.63495" lon="5.80685">
        <ele>513.96</ele>
        <time>2019-06-15T12:26:41Z</time>
      </trkpt>
      <trkpt lat="46.63497" lon="5.80682">
        <ele>513.96</ele>
        <time>2019-06-15T12:26:43Z</time>
      </trkpt>
      <trkpt lat="46.63504" lon="5.80666">
        <ele>513.48</ele>
        <time>2019-06-15T12:26:56Z</time>
      </trkpt>
      <trkpt lat="46.63515" lon="5.80649">
        <ele>512.04</ele>
        <time>2019-06-15T12:27:09Z</time>
      </trkpt>
      <trkpt lat="46.63532" lon="5.80634">
        <ele>511.56</ele>
        <time>2019-06-15T12:27:22Z</time>
      </trkpt>
      <trkpt lat="46.63539" lon="5.80611">
        <ele>510.12</ele>
        <time>2019-06-15T12:27:35Z</time>
      </trkpt>
      <trkpt lat="46.6354" lon="5.80608">
        <ele>510.12</ele>
        <time>2019-06-15T12:27:38Z</time>
      </trkpt>
      <trkpt lat="46.63552" lon="5.80582">
        <ele>509.64</ele>
        <time>2019-06-15T12:27:50Z</time>
      </trkpt>
      <trkpt lat="46.63563" lon="5.80567">
        <ele>509.16</ele>
        <time>2019-06-15T12:28:01Z</time>
      </trkpt>
      <trkpt lat="46.6357" lon="5.80557">
        <ele>508.19</ele>
        <time>2019-06-15T12:28:11Z</time>
      </trkpt>
      <trkpt lat="46.63581" lon="5.80546">
        <ele>507.71</ele>
        <time>2019-06-15T12:28:19Z</time>
      </trkpt>
      <trkpt lat="46.63595" lon="5.8053">
        <ele>506.75</ele>
        <time>2019-06-15T12:28:33Z</time>
      </trkpt>
      <trkpt lat="46.63609" lon="5.80518">
        <ele>505.31</ele>
        <time>2019-06-15T12:28:46Z</time>
      </trkpt>
      <trkpt lat="46.63638" lon="5.80492">
        <ele>504.35</ele>
        <time>2019-06-15T12:29:00Z</time>
      </trkpt>
      <trkpt lat="46.63655" lon="5.80484">
        <ele>503.39</ele>
        <time>2019-06-15T12:29:12Z</time>
      </trkpt>
      <trkpt lat="46.6366" lon="5.80479">
        <ele>502.43</ele>
        <time>2019-06-15T12:29:22Z</time>
      </trkpt>
      <trkpt lat="46.63676" lon="5.8046">
        <ele>501.46</ele>
        <time>2019-06-15T12:29:36Z</time>
      </trkpt>
      <trkpt lat="46.63679" lon="5.80457">
        <ele>501.95</ele>
        <time>2019-06-15T12:29:40Z</time>
      </trkpt>
      <trkpt lat="46.63689" lon="5.80442">
        <ele>502.43</ele>
        <time>2019-06-15T12:29:52Z</time>
      </trkpt>
      <trkpt lat="46.63709" lon="5.80425">
        <ele>503.39</ele>
        <time>2019-06-15T12:30:05Z</time>
      </trkpt>
      <trkpt lat="46.63713" lon="5.8042">
        <ele>503.39</ele>
        <time>2019-06-15T12:30:08Z</time>
      </trkpt>
      <trkpt lat="46.63732" lon="5.80405">
        <ele>503.87</ele>
        <time>2019-06-15T12:30:22Z</time>
      </trkpt>
      <trkpt lat="46.63748" lon="5.80399">
        <ele>503.87</ele>
        <time>2019-06-15T12:30:36Z</time>
      </trkpt>
      <trkpt lat="46.63763" lon="5.80394">
        <ele>504.35</ele>
        <time>2019-06-15T12:30:49Z</time>
      </trkpt>
      <trkpt lat="46.63774" lon="5.80389">
        <ele>503.87</ele>
        <time>2019-06-15T12:31:00Z</time>
      </trkpt>
      <trkpt lat="46.63792" lon="5.80384">
        <ele>502.91</ele>
        <time>2019-06-15T12:31:15Z</time>
      </trkpt>
      <trkpt lat="46.63813" lon="5.80372">
        <ele>502.91</ele>
        <time>2019-06-15T12:31:28Z</time>
      </trkpt>
      <trkpt lat="46.63825" lon="5.80367">
        <ele>502.43</ele>
        <time>2019-06-15T12:31:41Z</time>
      </trkpt>
      <trkpt lat="46.63844" lon="5.80356">
        <ele>501.95</ele>
        <time>2019-06-15T12:31:53Z</time>
      </trkpt>
      <trkpt lat="46.63861" lon="5.80345">
        <ele>502.91</ele>
        <time>2019-06-15T12:32:07Z</time>
      </trkpt>
      <trkpt lat="46.63878" lon="5.80344">
        <ele>502.43</ele>
        <time>2019-06-15T12:32:20Z</time>
      </trkpt>
      <trkpt lat="46.63898" lon="5.80335">
        <ele>501.95</ele>
        <time>2019-06-15T12:32:33Z</time>
      </trkpt>
      <trkpt lat="46.63912" lon="5.80324">
        <ele>501.46</ele>
        <time>2019-06-15T12:32:47Z</time>
      </trkpt>
      <trkpt lat="46.63919" lon="5.80313">
        <ele>501.95</ele>
        <time>2019-06-15T12:32:59Z</time>
      </trkpt>
      <trkpt lat="46.63934" lon="5.80298">
        <ele>502.43</ele>
        <time>2019-06-15T12:33:13Z</time>
      </trkpt>
      <trkpt lat="46.63952" lon="5.80291">
        <ele>501.46</ele>
        <time>2019-06-15T12:33:28Z</time>
      </trkpt>
      <trkpt lat="46.63967" lon="5.80281">
        <ele>500.98</ele>
        <time>2019-06-15T12:33:40Z</time>
      </trkpt>
      <trkpt lat="46.63985" lon="5.80267">
        <ele>501.46</ele>
        <time>2019-06-15T12:33:53Z</time>
      </trkpt>
      <trkpt lat="46.63994" lon="5.80257">
        <ele>501.46</ele>
        <time>2019-06-15T12:34:07Z</time>
      </trkpt>
      <trkpt lat="46.64016" lon="5.80247">
        <ele>501.46</ele>
        <time>2019-06-15T12:34:20Z</time>
      </trkpt>
      <trkpt lat="46.6403" lon="5.80236">
        <ele>501.46</ele>
        <time>2019-06-15T12:34:38Z</time>
      </trkpt>
      <trkpt lat="46.64035" lon="5.80239">
        <ele>501.46</ele>
        <time>2019-06-15T12:35:02Z</time>
      </trkpt>
      <trkpt lat="46.64037" lon="5.80236">
        <ele>501.46</ele>
        <time>2019-06-15T12:35:32Z</time>
      </trkpt>
      <trkpt lat="46.64041" lon="5.8023">
        <ele>502.91</ele>
        <time>2019-06-15T12:35:46Z</time>
      </trkpt>
      <trkpt lat="46.64058" lon="5.80237">
        <ele>501.95</ele>
        <time>2019-06-15T12:36:01Z</time>
      </trkpt>
      <trkpt lat="46.6407" lon="5.80242">
        <ele>501.46</ele>
        <time>2019-06-15T12:36:15Z</time>
      </trkpt>
      <trkpt lat="46.64075" lon="5.8024">
        <ele>501.95</ele>
        <time>2019-06-15T12:36:31Z</time>
      </trkpt>
      <trkpt lat="46.64079" lon="5.80235">
        <ele>501.46</ele>
        <time>2019-06-15T12:36:48Z</time>
      </trkpt>
      <trkpt lat="46.64088" lon="5.80225">
        <ele>501.46</ele>
        <time>2019-06-15T12:37:02Z</time>
      </trkpt>
      <trkpt lat="46.64092" lon="5.80219">
        <ele>501.46</ele>
        <time>2019-06-15T12:37:15Z</time>
      </trkpt>
      <trkpt lat="46.64098" lon="5.80212">
        <ele>503.39</ele>
        <time>2019-06-15T12:37:31Z</time>
      </trkpt>
      <trkpt lat="46.64103" lon="5.80205">
        <ele>504.83</ele>
        <time>2019-06-15T12:37:45Z</time>
      </trkpt>
      <trkpt lat="46.64105" lon="5.80199">
        <ele>506.27</ele>
        <time>2019-06-15T12:37:59Z</time>
      </trkpt>
      <trkpt lat="46.64115" lon="5.80185">
        <ele>508.67</ele>
        <time>2019-06-15T12:38:12Z</time>
      </trkpt>
      <trkpt lat="46.64121" lon="5.80176">
        <ele>510.6</ele>
        <time>2019-06-15T12:38:24Z</time>
      </trkpt>
      <trkpt lat="46.64128" lon="5.80162">
        <ele>513</ele>
        <time>2019-06-15T12:38:39Z</time>
      </trkpt>
      <trkpt lat="46.64144" lon="5.80137">
        <ele>515.88</ele>
        <time>2019-06-15T12:38:55Z</time>
      </trkpt>
      <trkpt lat="46.6415" lon="5.80131">
        <ele>517.33</ele>
        <time>2019-06-15T12:39:06Z</time>
      </trkpt>
      <trkpt lat="46.64155" lon="5.80123">
        <ele>520.21</ele>
        <time>2019-06-15T12:39:21Z</time>
      </trkpt>
      <trkpt lat="46.64159" lon="5.80113">
        <ele>522.61</ele>
        <time>2019-06-15T12:39:36Z</time>
      </trkpt>
      <trkpt lat="46.64171" lon="5.80109">
        <ele>523.09</ele>
        <time>2019-06-15T12:39:49Z</time>
      </trkpt>
      <trkpt lat="46.64187" lon="5.801">
        <ele>523.09</ele>
        <time>2019-06-15T12:40:04Z</time>
      </trkpt>
      <trkpt lat="46.64207" lon="5.80088">
        <ele>523.09</ele>
        <time>2019-06-15T12:40:17Z</time>
      </trkpt>
      <trkpt lat="46.64216" lon="5.80079">
        <ele>523.09</ele>
        <time>2019-06-15T12:40:30Z</time>
      </trkpt>
      <trkpt lat="46.64236" lon="5.8007">
        <ele>523.09</ele>
        <time>2019-06-15T12:40:42Z</time>
      </trkpt>
      <trkpt lat="46.64253" lon="5.80059">
        <ele>523.58</ele>
        <time>2019-06-15T12:40:52Z</time>
      </trkpt>
      <trkpt lat="46.64275" lon="5.80047">
        <ele>523.09</ele>
        <time>2019-06-15T12:41:04Z</time>
      </trkpt>
      <trkpt lat="46.64286" lon="5.80037">
        <ele>523.58</ele>
        <time>2019-06-15T12:41:16Z</time>
      </trkpt>
      <trkpt lat="46.64293" lon="5.80026">
        <ele>523.58</ele>
        <time>2019-06-15T12:41:31Z</time>
      </trkpt>
      <trkpt lat="46.643" lon="5.80015">
        <ele>524.06</ele>
        <time>2019-06-15T12:41:44Z</time>
      </trkpt>
      <trkpt lat="46.64309" lon="5.80005">
        <ele>523.58</ele>
        <time>2019-06-15T12:41:58Z</time>
      </trkpt>
      <trkpt lat="46.64322" lon="5.79989">
        <ele>523.58</ele>
        <time>2019-06-15T12:42:11Z</time>
      </trkpt>
      <trkpt lat="46.64335" lon="5.79977">
        <ele>524.06</ele>
        <time>2019-06-15T12:42:23Z</time>
      </trkpt>
      <trkpt lat="46.64353" lon="5.79962">
        <ele>524.54</ele>
        <time>2019-06-15T12:42:38Z</time>
      </trkpt>
      <trkpt lat="46.64362" lon="5.79952">
        <ele>524.54</ele>
        <time>2019-06-15T12:42:49Z</time>
      </trkpt>
      <trkpt lat="46.64371" lon="5.79941">
        <ele>524.54</ele>
        <time>2019-06-15T12:43:00Z</time>
      </trkpt>
      <trkpt lat="46.6439" lon="5.79928">
        <ele>524.54</ele>
        <time>2019-06-15T12:43:11Z</time>
      </trkpt>
      <trkpt lat="46.64412" lon="5.79907">
        <ele>524.54</ele>
        <time>2019-06-15T12:43:25Z</time>
      </trkpt>
      <trkpt lat="46.6443" lon="5.79891">
        <ele>525.02</ele>
        <time>2019-06-15T12:43:35Z</time>
      </trkpt>
      <trkpt lat="46.64441" lon="5.79885">
        <ele>525.02</ele>
        <time>2019-06-15T12:43:46Z</time>
      </trkpt>
      <trkpt lat="46.64443" lon="5.79862">
        <ele>525.5</ele>
        <time>2019-06-15T12:43:58Z</time>
      </trkpt>
      <trkpt lat="46.64453" lon="5.79829">
        <ele>525.02</ele>
        <time>2019-06-15T12:44:10Z</time>
      </trkpt>
      <trkpt lat="46.64467" lon="5.79817">
        <ele>525.98</ele>
        <time>2019-06-15T12:44:21Z</time>
      </trkpt>
      <trkpt lat="46.64469" lon="5.79813">
        <ele>525.98</ele>
        <time>2019-06-15T12:44:27Z</time>
      </trkpt>
      <trkpt lat="46.64472" lon="5.79794">
        <ele>526.46</ele>
        <time>2019-06-15T12:44:37Z</time>
      </trkpt>
      <trkpt lat="46.64475" lon="5.79787">
        <ele>526.46</ele>
        <time>2019-06-15T12:44:50Z</time>
      </trkpt>
      <trkpt lat="46.6448" lon="5.79779">
        <ele>526.46</ele>
        <time>2019-06-15T12:45:00Z</time>
      </trkpt>
      <trkpt lat="46.64492" lon="5.79772">
        <ele>526.46</ele>
        <time>2019-06-15T12:45:11Z</time>
      </trkpt>
      <trkpt lat="46.6449" lon="5.79761">
        <ele>526.46</ele>
        <time>2019-06-15T12:45:14Z</time>
      </trkpt>
      <trkpt lat="46.64492" lon="5.79752">
        <ele>527.42</ele>
        <time>2019-06-15T12:45:18Z</time>
      </trkpt>
      <trkpt lat="46.64499" lon="5.79734">
        <ele>527.9</ele>
        <time>2019-06-15T12:45:29Z</time>
      </trkpt>
      <trkpt lat="46.64501" lon="5.79719">
        <ele>527.42</ele>
        <time>2019-06-15T12:45:39Z</time>
      </trkpt>
      <trkpt lat="46.64501" lon="5.79718">
        <ele>527.9</ele>
        <time>2019-06-15T12:45:41Z</time>
      </trkpt>
      <trkpt lat="46.64507" lon="5.79709">
        <ele>527.9</ele>
        <time>2019-06-15T12:45:54Z</time>
      </trkpt>
      <trkpt lat="46.64512" lon="5.79699">
        <ele>527.9</ele>
        <time>2019-06-15T12:46:00Z</time>
      </trkpt>
      <trkpt lat="46.64517" lon="5.79688">
        <ele>528.86</ele>
        <time>2019-06-15T12:46:07Z</time>
      </trkpt>
      <trkpt lat="46.64515" lon="5.79677">
        <ele>529.82</ele>
        <time>2019-06-15T12:46:14Z</time>
      </trkpt>
      <trkpt lat="46.64518" lon="5.7967">
        <ele>530.3</ele>
        <time>2019-06-15T12:46:21Z</time>
      </trkpt>
      <trkpt lat="46.6453" lon="5.79659">
        <ele>529.82</ele>
        <time>2019-06-15T12:46:34Z</time>
      </trkpt>
      <trkpt lat="46.64531" lon="5.79655">
        <ele>529.82</ele>
        <time>2019-06-15T12:46:37Z</time>
      </trkpt>
      <trkpt lat="46.6454" lon="5.79635">
        <ele>529.34</ele>
        <time>2019-06-15T12:46:48Z</time>
      </trkpt>
      <trkpt lat="46.6454" lon="5.79634">
        <ele>529.34</ele>
        <time>2019-06-15T12:46:49Z</time>
      </trkpt>
      <trkpt lat="46.64543" lon="5.79624">
        <ele>528.86</ele>
        <time>2019-06-15T12:46:56Z</time>
      </trkpt>
      <trkpt lat="46.64555" lon="5.79611">
        <ele>528.86</ele>
        <time>2019-06-15T12:47:06Z</time>
      </trkpt>
      <trkpt lat="46.64563" lon="5.79602">
        <ele>528.86</ele>
        <time>2019-06-15T12:47:14Z</time>
      </trkpt>
      <trkpt lat="46.6457" lon="5.79592">
        <ele>529.34</ele>
        <time>2019-06-15T12:47:19Z</time>
      </trkpt>
      <trkpt lat="46.6458" lon="5.79581">
        <ele>529.34</ele>
        <time>2019-06-15T12:47:30Z</time>
      </trkpt>
      <trkpt lat="46.64585" lon="5.79572">
        <ele>529.82</ele>
        <time>2019-06-15T12:47:37Z</time>
      </trkpt>
      <trkpt lat="46.64594" lon="5.79555">
        <ele>529.82</ele>
        <time>2019-06-15T12:47:50Z</time>
      </trkpt>
      <trkpt lat="46.64595" lon="5.79551">
        <ele>529.82</ele>
        <time>2019-06-15T12:47:52Z</time>
      </trkpt>
      <trkpt lat="46.64599" lon="5.7953">
        <ele>529.34</ele>
        <time>2019-06-15T12:48:03Z</time>
      </trkpt>
      <trkpt lat="46.646" lon="5.79523">
        <ele>529.34</ele>
        <time>2019-06-15T12:48:08Z</time>
      </trkpt>
      <trkpt lat="46.64602" lon="5.79524">
        <ele>529.34</ele>
        <time>2019-06-15T12:48:09Z</time>
      </trkpt>
      <trkpt lat="46.64612" lon="5.79507">
        <ele>529.82</ele>
        <time>2019-06-15T12:48:22Z</time>
      </trkpt>
      <trkpt lat="46.64608" lon="5.79483">
        <ele>530.79</ele>
        <time>2019-06-15T12:48:35Z</time>
      </trkpt>
      <trkpt lat="46.64612" lon="5.79473">
        <ele>530.79</ele>
        <time>2019-06-15T12:48:47Z</time>
      </trkpt>
      <trkpt lat="46.64617" lon="5.79467">
        <ele>531.27</ele>
        <time>2019-06-15T12:49:03Z</time>
      </trkpt>
      <trkpt lat="46.64617" lon="5.79463">
        <ele>530.3</ele>
        <time>2019-06-15T12:49:20Z</time>
      </trkpt>
      <trkpt lat="46.64619" lon="5.79452">
        <ele>530.79</ele>
        <time>2019-06-15T12:49:29Z</time>
      </trkpt>
      <trkpt lat="46.64625" lon="5.7943">
        <ele>531.27</ele>
        <time>2019-06-15T12:49:40Z</time>
      </trkpt>
      <trkpt lat="46.64634" lon="5.79421">
        <ele>531.75</ele>
        <time>2019-06-15T12:49:50Z</time>
      </trkpt>
      <trkpt lat="46.64645" lon="5.79404">
        <ele>531.27</ele>
        <time>2019-06-15T12:50:03Z</time>
      </trkpt>
      <trkpt lat="46.64645" lon="5.79396">
        <ele>532.71</ele>
        <time>2019-06-15T12:50:14Z</time>
      </trkpt>
      <trkpt lat="46.6464" lon="5.7938">
        <ele>533.19</ele>
        <time>2019-06-15T12:50:28Z</time>
      </trkpt>
      <trkpt lat="46.64644" lon="5.7938">
        <ele>532.71</ele>
        <time>2019-06-15T12:50:31Z</time>
      </trkpt>
      <trkpt lat="46.64647" lon="5.79377">
        <ele>532.23</ele>
        <time>2019-06-15T12:50:35Z</time>
      </trkpt>
      <trkpt lat="46.64648" lon="5.79366">
        <ele>532.71</ele>
        <time>2019-06-15T12:50:48Z</time>
      </trkpt>
      <trkpt lat="46.6465" lon="5.79352">
        <ele>532.71</ele>
        <time>2019-06-15T12:50:59Z</time>
      </trkpt>
      <trkpt lat="46.64654" lon="5.79339">
        <ele>532.71</ele>
        <time>2019-06-15T12:51:14Z</time>
      </trkpt>
      <trkpt lat="46.64658" lon="5.79332">
        <ele>532.71</ele>
        <time>2019-06-15T12:51:27Z</time>
      </trkpt>
      <trkpt lat="46.64659" lon="5.7933">
        <ele>532.23</ele>
        <time>2019-06-15T12:51:42Z</time>
      </trkpt>
      <trkpt lat="46.64664" lon="5.79327">
        <ele>532.23</ele>
        <time>2019-06-15T12:51:48Z</time>
      </trkpt>
      <trkpt lat="46.6467" lon="5.79315">
        <ele>531.75</ele>
        <time>2019-06-15T12:52:02Z</time>
      </trkpt>
      <trkpt lat="46.64678" lon="5.793">
        <ele>532.71</ele>
        <time>2019-06-15T12:52:12Z</time>
      </trkpt>
      <trkpt lat="46.64686" lon="5.79283">
        <ele>532.23</ele>
        <time>2019-06-15T12:52:22Z</time>
      </trkpt>
      <trkpt lat="46.64689" lon="5.7927">
        <ele>533.19</ele>
        <time>2019-06-15T12:52:33Z</time>
      </trkpt>
      <trkpt lat="46.64693" lon="5.79251">
        <ele>533.19</ele>
        <time>2019-06-15T12:52:44Z</time>
      </trkpt>
      <trkpt lat="46.64694" lon="5.79227">
        <ele>533.19</ele>
        <time>2019-06-15T12:52:58Z</time>
      </trkpt>
      <trkpt lat="46.64704" lon="5.79218">
        <ele>533.19</ele>
        <time>2019-06-15T12:53:14Z</time>
      </trkpt>
      <trkpt lat="46.64717" lon="5.79201">
        <ele>533.67</ele>
        <time>2019-06-15T12:53:24Z</time>
      </trkpt>
      <trkpt lat="46.64718" lon="5.79187">
        <ele>534.15</ele>
        <time>2019-06-15T12:53:32Z</time>
      </trkpt>
      <trkpt lat="46.64722" lon="5.79182">
        <ele>534.15</ele>
        <time>2019-06-15T12:53:37Z</time>
      </trkpt>
      <trkpt lat="46.64724" lon="5.79166">
        <ele>534.15</ele>
        <time>2019-06-15T12:53:44Z</time>
      </trkpt>
      <trkpt lat="46.64724" lon="5.79158">
        <ele>534.15</ele>
        <time>2019-06-15T12:53:48Z</time>
      </trkpt>
      <trkpt lat="46.64729" lon="5.79136">
        <ele>534.63</ele>
        <time>2019-06-15T12:54:00Z</time>
      </trkpt>
      <trkpt lat="46.64731" lon="5.79125">
        <ele>535.59</ele>
        <time>2019-06-15T12:54:13Z</time>
      </trkpt>
      <trkpt lat="46.64738" lon="5.79107">
        <ele>535.59</ele>
        <time>2019-06-15T12:54:24Z</time>
      </trkpt>
      <trkpt lat="46.64742" lon="5.79098">
        <ele>535.59</ele>
        <time>2019-06-15T12:54:34Z</time>
      </trkpt>
      <trkpt lat="46.64745" lon="5.79091">
        <ele>535.59</ele>
        <time>2019-06-15T12:54:38Z</time>
      </trkpt>
      <trkpt lat="46.6475" lon="5.79077">
        <ele>536.55</ele>
        <time>2019-06-15T12:54:49Z</time>
      </trkpt>
      <trkpt lat="46.64753" lon="5.79069">
        <ele>536.55</ele>
        <time>2019-06-15T12:54:53Z</time>
      </trkpt>
      <trkpt lat="46.64756" lon="5.79043">
        <ele>537.51</ele>
        <time>2019-06-15T12:55:06Z</time>
      </trkpt>
      <trkpt lat="46.64762" lon="5.79034">
        <ele>539.44</ele>
        <time>2019-06-15T12:55:15Z</time>
      </trkpt>
      <trkpt lat="46.64755" lon="5.79018">
        <ele>541.36</ele>
        <time>2019-06-15T12:55:23Z</time>
      </trkpt>
      <trkpt lat="46.64757" lon="5.79004">
        <ele>540.88</ele>
        <time>2019-06-15T12:55:32Z</time>
      </trkpt>
      <trkpt lat="46.64757" lon="5.79003">
        <ele>540.88</ele>
        <time>2019-06-15T12:55:33Z</time>
      </trkpt>
      <trkpt lat="46.64756" lon="5.78999">
        <ele>540.88</ele>
        <time>2019-06-15T12:55:35Z</time>
      </trkpt>
      <trkpt lat="46.64753" lon="5.78983">
        <ele>539.44</ele>
        <time>2019-06-15T12:55:45Z</time>
      </trkpt>
      <trkpt lat="46.64752" lon="5.78977">
        <ele>538.48</ele>
        <time>2019-06-15T12:55:52Z</time>
      </trkpt>
      <trkpt lat="46.64747" lon="5.78964">
        <ele>537.51</ele>
        <time>2019-06-15T12:55:59Z</time>
      </trkpt>
      <trkpt lat="46.64746" lon="5.78954">
        <ele>536.07</ele>
        <time>2019-06-15T12:56:05Z</time>
      </trkpt>
      <trkpt lat="46.64749" lon="5.78945">
        <ele>535.59</ele>
        <time>2019-06-15T12:56:09Z</time>
      </trkpt>
      <trkpt lat="46.64748" lon="5.78939">
        <ele>534.63</ele>
        <time>2019-06-15T12:56:12Z</time>
      </trkpt>
      <trkpt lat="46.64744" lon="5.78912">
        <ele>531.75</ele>
        <time>2019-06-15T12:56:23Z</time>
      </trkpt>
      <trkpt lat="46.64744" lon="5.78909">
        <ele>531.27</ele>
        <time>2019-06-15T12:56:25Z</time>
      </trkpt>
      <trkpt lat="46.64742" lon="5.78902">
        <ele>530.79</ele>
        <time>2019-06-15T12:56:27Z</time>
      </trkpt>
      <trkpt lat="46.64742" lon="5.78892">
        <ele>529.82</ele>
        <time>2019-06-15T12:56:32Z</time>
      </trkpt>
      <trkpt lat="46.64742" lon="5.7889">
        <ele>529.34</ele>
        <time>2019-06-15T12:56:34Z</time>
      </trkpt>
      <trkpt lat="46.64742" lon="5.78874">
        <ele>526.46</ele>
        <time>2019-06-15T12:56:45Z</time>
      </trkpt>
      <trkpt lat="46.64735" lon="5.78853">
        <ele>523.58</ele>
        <time>2019-06-15T12:56:56Z</time>
      </trkpt>
      <trkpt lat="46.64742" lon="5.78838">
        <ele>521.17</ele>
        <time>2019-06-15T12:57:04Z</time>
      </trkpt>
      <trkpt lat="46.64753" lon="5.78825">
        <ele>519.25</ele>
        <time>2019-06-15T12:57:10Z</time>
      </trkpt>
      <trkpt lat="46.64759" lon="5.7882">
        <ele>518.29</ele>
        <time>2019-06-15T12:57:13Z</time>
      </trkpt>
      <trkpt lat="46.64763" lon="5.78809">
        <ele>517.33</ele>
        <time>2019-06-15T12:57:17Z</time>
      </trkpt>
      <trkpt lat="46.64769" lon="5.78799">
        <ele>516.37</ele>
        <time>2019-06-15T12:57:22Z</time>
      </trkpt>
      <trkpt lat="46.64777" lon="5.78785">
        <ele>515.88</ele>
        <time>2019-06-15T12:57:29Z</time>
      </trkpt>
      <trkpt lat="46.64778" lon="5.7878">
        <ele>516.37</ele>
        <time>2019-06-15T12:57:32Z</time>
      </trkpt>
      <trkpt lat="46.64781" lon="5.78762">
        <ele>515.88</ele>
        <time>2019-06-15T12:57:43Z</time>
      </trkpt>
      <trkpt lat="46.64781" lon="5.78756">
        <ele>515.4</ele>
        <time>2019-06-15T12:57:46Z</time>
      </trkpt>
      <trkpt lat="46.64784" lon="5.78731">
        <ele>515.4</ele>
        <time>2019-06-15T12:57:58Z</time>
      </trkpt>
      <trkpt lat="46.64784" lon="5.78706">
        <ele>515.4</ele>
        <time>2019-06-15T12:58:10Z</time>
      </trkpt>
      <trkpt lat="46.6478" lon="5.78681">
        <ele>514.92</ele>
        <time>2019-06-15T12:58:22Z</time>
      </trkpt>
      <trkpt lat="46.64777" lon="5.78673">
        <ele>515.4</ele>
        <time>2019-06-15T12:58:26Z</time>
      </trkpt>
      <trkpt lat="46.64777" lon="5.78652">
        <ele>514.44</ele>
        <time>2019-06-15T12:58:37Z</time>
      </trkpt>
      <trkpt lat="46.64775" lon="5.78637">
        <ele>514.44</ele>
        <time>2019-06-15T12:58:44Z</time>
      </trkpt>
      <trkpt lat="46.64777" lon="5.78624">
        <ele>514.92</ele>
        <time>2019-06-15T12:58:52Z</time>
      </trkpt>
      <trkpt lat="46.64776" lon="5.78616">
        <ele>514.92</ele>
        <time>2019-06-15T12:58:57Z</time>
      </trkpt>
      <trkpt lat="46.64777" lon="5.78607">
        <ele>514.92</ele>
        <time>2019-06-15T12:59:05Z</time>
      </trkpt>
      <trkpt lat="46.64778" lon="5.78595">
        <ele>515.4</ele>
        <time>2019-06-15T12:59:11Z</time>
      </trkpt>
      <trkpt lat="46.64774" lon="5.78567">
        <ele>514.92</ele>
        <time>2019-06-15T12:59:23Z</time>
      </trkpt>
      <trkpt lat="46.64774" lon="5.78565">
        <ele>514.92</ele>
        <time>2019-06-15T12:59:24Z</time>
      </trkpt>
      <trkpt lat="46.6477" lon="5.78551">
        <ele>515.4</ele>
        <time>2019-06-15T12:59:31Z</time>
      </trkpt>
      <trkpt lat="46.64769" lon="5.78534">
        <ele>515.4</ele>
        <time>2019-06-15T12:59:40Z</time>
      </trkpt>
      <trkpt lat="46.64769" lon="5.78527">
        <ele>514.92</ele>
        <time>2019-06-15T12:59:45Z</time>
      </trkpt>
      <trkpt lat="46.64762" lon="5.78507">
        <ele>515.88</ele>
        <time>2019-06-15T12:59:54Z</time>
      </trkpt>
      <trkpt lat="46.64767" lon="5.78496">
        <ele>515.88</ele>
        <time>2019-06-15T13:00:00Z</time>
      </trkpt>
      <trkpt lat="46.64766" lon="5.7848">
        <ele>515.88</ele>
        <time>2019-06-15T13:00:06Z</time>
      </trkpt>
      <trkpt lat="46.64768" lon="5.78471">
        <ele>515.4</ele>
        <time>2019-06-15T13:00:12Z</time>
      </trkpt>
      <trkpt lat="46.6477" lon="5.78466">
        <ele>515.4</ele>
        <time>2019-06-15T13:00:16Z</time>
      </trkpt>
      <trkpt lat="46.64773" lon="5.78453">
        <ele>514.92</ele>
        <time>2019-06-15T13:00:20Z</time>
      </trkpt>
      <trkpt lat="46.64775" lon="5.7843">
        <ele>514.92</ele>
        <time>2019-06-15T13:00:29Z</time>
      </trkpt>
      <trkpt lat="46.64776" lon="5.78429">
        <ele>514.92</ele>
        <time>2019-06-15T13:00:30Z</time>
      </trkpt>
      <trkpt lat="46.64775" lon="5.78423">
        <ele>515.4</ele>
        <time>2019-06-15T13:00:32Z</time>
      </trkpt>
      <trkpt lat="46.64777" lon="5.78407">
        <ele>514.44</ele>
        <time>2019-06-15T13:00:39Z</time>
      </trkpt>
      <trkpt lat="46.64778" lon="5.78381">
        <ele>513.48</ele>
        <time>2019-06-15T13:00:50Z</time>
      </trkpt>
      <trkpt lat="46.64779" lon="5.78374">
        <ele>513</ele>
        <time>2019-06-15T13:00:54Z</time>
      </trkpt>
      <trkpt lat="46.6478" lon="5.78363">
        <ele>513.48</ele>
        <time>2019-06-15T13:01:00Z</time>
      </trkpt>
      <trkpt lat="46.64784" lon="5.78337">
        <ele>513.48</ele>
        <time>2019-06-15T13:01:13Z</time>
      </trkpt>
      <trkpt lat="46.64785" lon="5.78336">
        <ele>513.48</ele>
        <time>2019-06-15T13:01:14Z</time>
      </trkpt>
      <trkpt lat="46.64786" lon="5.7833">
        <ele>513.48</ele>
        <time>2019-06-15T13:01:17Z</time>
      </trkpt>
      <trkpt lat="46.64787" lon="5.78329">
        <ele>513.48</ele>
        <time>2019-06-15T13:01:21Z</time>
      </trkpt>
      <trkpt lat="46.64787" lon="5.78316">
        <ele>513</ele>
        <time>2019-06-15T13:01:28Z</time>
      </trkpt>
      <trkpt lat="46.64794" lon="5.78312">
        <ele>513</ele>
        <time>2019-06-15T13:01:33Z</time>
      </trkpt>
      <trkpt lat="46.64799" lon="5.78306">
        <ele>513</ele>
        <time>2019-06-15T13:01:37Z</time>
      </trkpt>
      <trkpt lat="46.648" lon="5.78298">
        <ele>513</ele>
        <time>2019-06-15T13:01:40Z</time>
      </trkpt>
      <trkpt lat="46.64808" lon="5.78267">
        <ele>513</ele>
        <time>2019-06-15T13:01:54Z</time>
      </trkpt>
      <trkpt lat="46.64811" lon="5.78258">
        <ele>513</ele>
        <time>2019-06-15T13:01:59Z</time>
      </trkpt>
      <trkpt lat="46.64811" lon="5.78237">
        <ele>513.48</ele>
        <time>2019-06-15T13:02:11Z</time>
      </trkpt>
      <trkpt lat="46.64813" lon="5.78225">
        <ele>513.48</ele>
        <time>2019-06-15T13:02:18Z</time>
      </trkpt>
      <trkpt lat="46.64817" lon="5.78198">
        <ele>513.96</ele>
        <time>2019-06-15T13:02:30Z</time>
      </trkpt>
      <trkpt lat="46.64817" lon="5.78197">
        <ele>513.48</ele>
        <time>2019-06-15T13:02:31Z</time>
      </trkpt>
      <trkpt lat="46.64818" lon="5.78193">
        <ele>513.96</ele>
        <time>2019-06-15T13:02:33Z</time>
      </trkpt>
      <trkpt lat="46.6482" lon="5.78169">
        <ele>514.44</ele>
        <time>2019-06-15T13:02:45Z</time>
      </trkpt>
      <trkpt lat="46.6483" lon="5.78152">
        <ele>514.92</ele>
        <time>2019-06-15T13:02:57Z</time>
      </trkpt>
      <trkpt lat="46.64847" lon="5.78136">
        <ele>514.92</ele>
        <time>2019-06-15T13:03:09Z</time>
      </trkpt>
      <trkpt lat="46.64857" lon="5.78121">
        <ele>514.92</ele>
        <time>2019-06-15T13:03:23Z</time>
      </trkpt>
      <trkpt lat="46.64868" lon="5.78094">
        <ele>514.44</ele>
        <time>2019-06-15T13:03:35Z</time>
      </trkpt>
      <trkpt lat="46.64868" lon="5.78092">
        <ele>514.92</ele>
        <time>2019-06-15T13:03:36Z</time>
      </trkpt>
      <trkpt lat="46.64876" lon="5.7807">
        <ele>514.92</ele>
        <time>2019-06-15T13:03:49Z</time>
      </trkpt>
      <trkpt lat="46.64879" lon="5.78061">
        <ele>514.44</ele>
        <time>2019-06-15T13:03:54Z</time>
      </trkpt>
      <trkpt lat="46.64889" lon="5.78031">
        <ele>514.44</ele>
        <time>2019-06-15T13:04:06Z</time>
      </trkpt>
      <trkpt lat="46.64892" lon="5.78019">
        <ele>513.96</ele>
        <time>2019-06-15T13:04:12Z</time>
      </trkpt>
      <trkpt lat="46.64891" lon="5.7801">
        <ele>513.48</ele>
        <time>2019-06-15T13:04:17Z</time>
      </trkpt>
      <trkpt lat="46.64891" lon="5.77983">
        <ele>512.52</ele>
        <time>2019-06-15T13:04:28Z</time>
      </trkpt>
      <trkpt lat="46.6489" lon="5.7796">
        <ele>510.12</ele>
        <time>2019-06-15T13:04:36Z</time>
      </trkpt>
      <trkpt lat="46.64888" lon="5.77949">
        <ele>508.67</ele>
        <time>2019-06-15T13:04:41Z</time>
      </trkpt>
      <trkpt lat="46.64888" lon="5.7794">
        <ele>507.23</ele>
        <time>2019-06-15T13:04:48Z</time>
      </trkpt>
      <trkpt lat="46.64902" lon="5.77932">
        <ele>506.27</ele>
        <time>2019-06-15T13:04:57Z</time>
      </trkpt>
      <trkpt lat="46.64907" lon="5.77926">
        <ele>505.79</ele>
        <time>2019-06-15T13:05:00Z</time>
      </trkpt>
      <trkpt lat="46.64911" lon="5.77914">
        <ele>504.83</ele>
        <time>2019-06-15T13:05:07Z</time>
      </trkpt>
      <trkpt lat="46.6491" lon="5.77895">
        <ele>503.39</ele>
        <time>2019-06-15T13:05:19Z</time>
      </trkpt>
      <trkpt lat="46.64908" lon="5.77887">
        <ele>503.39</ele>
        <time>2019-06-15T13:05:23Z</time>
      </trkpt>
      <trkpt lat="46.64907" lon="5.77875">
        <ele>501.95</ele>
        <time>2019-06-15T13:05:29Z</time>
      </trkpt>
      <trkpt lat="46.64906" lon="5.77867">
        <ele>501.95</ele>
        <time>2019-06-15T13:05:33Z</time>
      </trkpt>
      <trkpt lat="46.64904" lon="5.77853">
        <ele>501.46</ele>
        <time>2019-06-15T13:05:38Z</time>
      </trkpt>
      <trkpt lat="46.64901" lon="5.77839">
        <ele>500.5</ele>
        <time>2019-06-15T13:05:46Z</time>
      </trkpt>
      <trkpt lat="46.6489" lon="5.77818">
        <ele>499.54</ele>
        <time>2019-06-15T13:05:59Z</time>
      </trkpt>
      <trkpt lat="46.64884" lon="5.77817">
        <ele>499.54</ele>
        <time>2019-06-15T13:06:11Z</time>
      </trkpt>
      <trkpt lat="46.64885" lon="5.77812">
        <ele>500.02</ele>
        <time>2019-06-15T13:06:23Z</time>
      </trkpt>
      <trkpt lat="46.64887" lon="5.77812">
        <ele>500.5</ele>
        <time>2019-06-15T13:06:48Z</time>
      </trkpt>
      <trkpt lat="46.64895" lon="5.77811">
        <ele>500.5</ele>
        <time>2019-06-15T13:07:02Z</time>
      </trkpt>
      <trkpt lat="46.64903" lon="5.77809">
        <ele>500.5</ele>
        <time>2019-06-15T13:07:09Z</time>
      </trkpt>
      <trkpt lat="46.64914" lon="5.77822">
        <ele>500.5</ele>
        <time>2019-06-15T13:07:21Z</time>
      </trkpt>
      <trkpt lat="46.64912" lon="5.77825">
        <ele>500.98</ele>
        <time>2019-06-15T13:07:37Z</time>
      </trkpt>
      <trkpt lat="46.64912" lon="5.77825">
        <ele>500.98</ele>
        <time>2019-06-15T13:08:03Z</time>
      </trkpt>
      <trkpt lat="46.64912" lon="5.77825">
        <ele>501.46</ele>
        <time>2019-06-15T13:08:27Z</time>
      </trkpt>
      <trkpt lat="46.64913" lon="5.77826">
        <ele>501.46</ele>
        <time>2019-06-15T13:08:49Z</time>
      </trkpt>
      <trkpt lat="46.64913" lon="5.77823">
        <ele>501.46</ele>
        <time>2019-06-15T13:09:03Z</time>
      </trkpt>
      <trkpt lat="46.64913" lon="5.77814">
        <ele>501.46</ele>
        <time>2019-06-15T13:09:29Z</time>
      </trkpt>
      <trkpt lat="46.64909" lon="5.77813">
        <ele>501.95</ele>
        <time>2019-06-15T13:09:51Z</time>
      </trkpt>
      <trkpt lat="46.64908" lon="5.77813">
        <ele>501.46</ele>
        <time>2019-06-15T13:10:09Z</time>
      </trkpt>
      <trkpt lat="46.64906" lon="5.77812">
        <ele>501.95</ele>
        <time>2019-06-15T13:10:24Z</time>
      </trkpt>
      <trkpt lat="46.64905" lon="5.77807">
        <ele>501.95</ele>
        <time>2019-06-15T13:10:30Z</time>
      </trkpt>
      <trkpt lat="46.64922" lon="5.77803">
        <ele>501.46</ele>
        <time>2019-06-15T13:10:44Z</time>
      </trkpt>
      <trkpt lat="46.64939" lon="5.77811">
        <ele>501.95</ele>
        <time>2019-06-15T13:10:55Z</time>
      </trkpt>
      <trkpt lat="46.64948" lon="5.7782">
        <ele>502.43</ele>
        <time>2019-06-15T13:11:06Z</time>
      </trkpt>
      <trkpt lat="46.64952" lon="5.7782">
        <ele>503.39</ele>
        <time>2019-06-15T13:11:23Z</time>
      </trkpt>
      <trkpt lat="46.64962" lon="5.77812">
        <ele>505.31</ele>
        <time>2019-06-15T13:11:37Z</time>
      </trkpt>
      <trkpt lat="46.64967" lon="5.77806">
        <ele>507.71</ele>
        <time>2019-06-15T13:11:49Z</time>
      </trkpt>
      <trkpt lat="46.64973" lon="5.77801">
        <ele>509.64</ele>
        <time>2019-06-15T13:12:02Z</time>
      </trkpt>
      <trkpt lat="46.64974" lon="5.77801">
        <ele>509.64</ele>
        <time>2019-06-15T13:12:03Z</time>
      </trkpt>
      <trkpt lat="46.64992" lon="5.77798">
        <ele>512.52</ele>
        <time>2019-06-15T13:12:17Z</time>
      </trkpt>
      <trkpt lat="46.65004" lon="5.77798">
        <ele>514.92</ele>
        <time>2019-06-15T13:12:31Z</time>
      </trkpt>
      <trkpt lat="46.65011" lon="5.77797">
        <ele>515.4</ele>
        <time>2019-06-15T13:12:38Z</time>
      </trkpt>
      <trkpt lat="46.65023" lon="5.77796">
        <ele>516.37</ele>
        <time>2019-06-15T13:12:50Z</time>
      </trkpt>
      <trkpt lat="46.65034" lon="5.77795">
        <ele>517.33</ele>
        <time>2019-06-15T13:13:01Z</time>
      </trkpt>
      <trkpt lat="46.65051" lon="5.77798">
        <ele>518.29</ele>
        <time>2019-06-15T13:13:12Z</time>
      </trkpt>
      <trkpt lat="46.65067" lon="5.77805">
        <ele>518.77</ele>
        <time>2019-06-15T13:13:23Z</time>
      </trkpt>
      <trkpt lat="46.6507" lon="5.77806">
        <ele>518.77</ele>
        <time>2019-06-15T13:13:26Z</time>
      </trkpt>
      <trkpt lat="46.65087" lon="5.77812">
        <ele>517.81</ele>
        <time>2019-06-15T13:13:40Z</time>
      </trkpt>
      <trkpt lat="46.651" lon="5.77821">
        <ele>517.33</ele>
        <time>2019-06-15T13:13:51Z</time>
      </trkpt>
      <trkpt lat="46.6511" lon="5.77818">
        <ele>517.33</ele>
        <time>2019-06-15T13:14:03Z</time>
      </trkpt>
      <trkpt lat="46.65112" lon="5.77818">
        <ele>517.81</ele>
        <time>2019-06-15T13:14:04Z</time>
      </trkpt>
      <trkpt lat="46.65117" lon="5.77814">
        <ele>517.81</ele>
        <time>2019-06-15T13:14:08Z</time>
      </trkpt>
      <trkpt lat="46.65129" lon="5.77804">
        <ele>518.29</ele>
        <time>2019-06-15T13:14:19Z</time>
      </trkpt>
      <trkpt lat="46.65145" lon="5.77799">
        <ele>519.25</ele>
        <time>2019-06-15T13:14:33Z</time>
      </trkpt>
      <trkpt lat="46.65156" lon="5.77797">
        <ele>520.21</ele>
        <time>2019-06-15T13:14:43Z</time>
      </trkpt>
      <trkpt lat="46.65171" lon="5.77798">
        <ele>521.65</ele>
        <time>2019-06-15T13:14:55Z</time>
      </trkpt>
      <trkpt lat="46.65188" lon="5.7781">
        <ele>521.65</ele>
        <time>2019-06-15T13:15:09Z</time>
      </trkpt>
      <trkpt lat="46.65195" lon="5.77818">
        <ele>522.13</ele>
        <time>2019-06-15T13:15:15Z</time>
      </trkpt>
      <trkpt lat="46.65203" lon="5.77825">
        <ele>522.13</ele>
        <time>2019-06-15T13:15:23Z</time>
      </trkpt>
      <trkpt lat="46.6521" lon="5.77834">
        <ele>522.61</ele>
        <time>2019-06-15T13:15:30Z</time>
      </trkpt>
      <trkpt lat="46.65224" lon="5.77852">
        <ele>523.09</ele>
        <time>2019-06-15T13:15:43Z</time>
      </trkpt>
      <trkpt lat="46.65226" lon="5.77857">
        <ele>523.58</ele>
        <time>2019-06-15T13:15:46Z</time>
      </trkpt>
      <trkpt lat="46.65234" lon="5.77869">
        <ele>523.58</ele>
        <time>2019-06-15T13:15:54Z</time>
      </trkpt>
      <trkpt lat="46.65238" lon="5.77878">
        <ele>523.58</ele>
        <time>2019-06-15T13:16:00Z</time>
      </trkpt>
      <trkpt lat="46.65249" lon="5.77903">
        <ele>523.58</ele>
        <time>2019-06-15T13:16:15Z</time>
      </trkpt>
      <trkpt lat="46.65253" lon="5.77912">
        <ele>523.09</ele>
        <time>2019-06-15T13:16:21Z</time>
      </trkpt>
      <trkpt lat="46.65259" lon="5.77926">
        <ele>523.09</ele>
        <time>2019-06-15T13:16:31Z</time>
      </trkpt>
      <trkpt lat="46.65261" lon="5.77929">
        <ele>522.61</ele>
        <time>2019-06-15T13:16:33Z</time>
      </trkpt>
      <trkpt lat="46.65277" lon="5.77942">
        <ele>522.61</ele>
        <time>2019-06-15T13:16:48Z</time>
      </trkpt>
      <trkpt lat="46.65278" lon="5.77942">
        <ele>522.61</ele>
        <time>2019-06-15T13:16:49Z</time>
      </trkpt>
      <trkpt lat="46.65299" lon="5.7795">
        <ele>523.09</ele>
        <time>2019-06-15T13:17:04Z</time>
      </trkpt>
      <trkpt lat="46.65313" lon="5.7796">
        <ele>523.09</ele>
        <time>2019-06-15T13:17:16Z</time>
      </trkpt>
      <trkpt lat="46.65314" lon="5.77961">
        <ele>523.58</ele>
        <time>2019-06-15T13:17:17Z</time>
      </trkpt>
      <trkpt lat="46.65324" lon="5.77965">
        <ele>523.09</ele>
        <time>2019-06-15T13:17:30Z</time>
      </trkpt>
      <trkpt lat="46.65329" lon="5.77966">
        <ele>523.58</ele>
        <time>2019-06-15T13:17:35Z</time>
      </trkpt>
      <trkpt lat="46.65335" lon="5.77964">
        <ele>523.09</ele>
        <time>2019-06-15T13:17:40Z</time>
      </trkpt>
      <trkpt lat="46.65344" lon="5.77954">
        <ele>522.13</ele>
        <time>2019-06-15T13:17:50Z</time>
      </trkpt>
      <trkpt lat="46.65348" lon="5.77946">
        <ele>522.13</ele>
        <time>2019-06-15T13:18:06Z</time>
      </trkpt>
      <trkpt lat="46.65343" lon="5.77935">
        <ele>521.65</ele>
        <time>2019-06-15T13:18:17Z</time>
      </trkpt>
      <trkpt lat="46.65338" lon="5.77919">
        <ele>523.09</ele>
        <time>2019-06-15T13:18:29Z</time>
      </trkpt>
      <trkpt lat="46.65336" lon="5.77905">
        <ele>524.06</ele>
        <time>2019-06-15T13:18:42Z</time>
      </trkpt>
      <trkpt lat="46.65334" lon="5.77891">
        <ele>525.02</ele>
        <time>2019-06-15T13:18:51Z</time>
      </trkpt>
      <trkpt lat="46.6532" lon="5.77853">
        <ele>525.98</ele>
        <time>2019-06-15T13:19:06Z</time>
      </trkpt>
      <trkpt lat="46.65318" lon="5.77843">
        <ele>525.98</ele>
        <time>2019-06-15T13:19:12Z</time>
      </trkpt>
      <trkpt lat="46.65319" lon="5.7783">
        <ele>526.46</ele>
        <time>2019-06-15T13:19:18Z</time>
      </trkpt>
      <trkpt lat="46.65321" lon="5.77807">
        <ele>527.42</ele>
        <time>2019-06-15T13:19:30Z</time>
      </trkpt>
      <trkpt lat="46.65322" lon="5.77798">
        <ele>527.42</ele>
        <time>2019-06-15T13:19:36Z</time>
      </trkpt>
      <trkpt lat="46.65334" lon="5.77799">
        <ele>528.86</ele>
        <time>2019-06-15T13:19:49Z</time>
      </trkpt>
      <trkpt lat="46.65335" lon="5.77803">
        <ele>528.38</ele>
        <time>2019-06-15T13:20:03Z</time>
      </trkpt>
      <trkpt lat="46.65329" lon="5.77802">
        <ele>528.38</ele>
        <time>2019-06-15T13:20:20Z</time>
      </trkpt>
      <trkpt lat="46.65327" lon="5.778">
        <ele>527.9</ele>
        <time>2019-06-15T13:20:47Z</time>
      </trkpt>
      <trkpt lat="46.65328" lon="5.77799">
        <ele>528.86</ele>
        <time>2019-06-15T13:21:05Z</time>
      </trkpt>
      <trkpt lat="46.65329" lon="5.778">
        <ele>528.38</ele>
        <time>2019-06-15T13:21:24Z</time>
      </trkpt>
      <trkpt lat="46.6533" lon="5.77802">
        <ele>528.38</ele>
        <time>2019-06-15T13:21:44Z</time>
      </trkpt>
      <trkpt lat="46.65329" lon="5.77802">
        <ele>528.38</ele>
        <time>2019-06-15T13:21:57Z</time>
      </trkpt>
      <trkpt lat="46.65331" lon="5.77801">
        <ele>528.38</ele>
        <time>2019-06-15T13:22:14Z</time>
      </trkpt>
      <trkpt lat="46.65332" lon="5.77803">
        <ele>527.9</ele>
        <time>2019-06-15T13:22:40Z</time>
      </trkpt>
      <trkpt lat="46.65338" lon="5.77803">
        <ele>527.9</ele>
        <time>2019-06-15T13:22:49Z</time>
      </trkpt>
      <trkpt lat="46.65343" lon="5.77814">
        <ele>526.46</ele>
        <time>2019-06-15T13:23:01Z</time>
      </trkpt>
      <trkpt lat="46.65348" lon="5.77824">
        <ele>523.58</ele>
        <time>2019-06-15T13:23:16Z</time>
      </trkpt>
      <trkpt lat="46.65363" lon="5.77845">
        <ele>521.17</ele>
        <time>2019-06-15T13:23:30Z</time>
      </trkpt>
      <trkpt lat="46.6539" lon="5.77872">
        <ele>518.29</ele>
        <time>2019-06-15T13:23:46Z</time>
      </trkpt>
      <trkpt lat="46.65394" lon="5.77883">
        <ele>517.81</ele>
        <time>2019-06-15T13:23:58Z</time>
      </trkpt>
      <trkpt lat="46.65404" lon="5.77892">
        <ele>516.85</ele>
        <time>2019-06-15T13:24:14Z</time>
      </trkpt>
      <trkpt lat="46.65417" lon="5.77894">
        <ele>516.85</ele>
        <time>2019-06-15T13:24:23Z</time>
      </trkpt>
      <trkpt lat="46.65434" lon="5.77885">
        <ele>517.81</ele>
        <time>2019-06-15T13:24:37Z</time>
      </trkpt>
      <trkpt lat="46.65439" lon="5.7789">
        <ele>517.33</ele>
        <time>2019-06-15T13:24:48Z</time>
      </trkpt>
      <trkpt lat="46.6544" lon="5.7789">
        <ele>517.81</ele>
        <time>2019-06-15T13:24:49Z</time>
      </trkpt>
      <trkpt lat="46.65447" lon="5.77891">
        <ele>517.81</ele>
        <time>2019-06-15T13:24:59Z</time>
      </trkpt>
      <trkpt lat="46.65455" lon="5.77888">
        <ele>518.29</ele>
        <time>2019-06-15T13:25:06Z</time>
      </trkpt>
      <trkpt lat="46.65457" lon="5.77889">
        <ele>517.81</ele>
        <time>2019-06-15T13:25:09Z</time>
      </trkpt>
      <trkpt lat="46.6547" lon="5.7787">
        <ele>518.29</ele>
        <time>2019-06-15T13:25:22Z</time>
      </trkpt>
      <trkpt lat="46.65473" lon="5.77866">
        <ele>517.81</ele>
        <time>2019-06-15T13:25:33Z</time>
      </trkpt>
      <trkpt lat="46.65474" lon="5.77866">
        <ele>517.81</ele>
        <time>2019-06-15T13:25:54Z</time>
      </trkpt>
      <trkpt lat="46.65475" lon="5.77866">
        <ele>505.79</ele>
        <time>2019-06-15T13:26:12Z</time>
      </trkpt>
      <trkpt lat="46.65475" lon="5.77866">
        <ele>520.69</ele>
        <time>2019-06-15T13:26:13Z</time>
      </trkpt>
      <trkpt lat="46.65475" lon="5.77866">
        <ele>517.33</ele>
        <time>2019-06-15T13:26:14Z</time>
      </trkpt>
      <trkpt lat="46.65475" lon="5.77865">
        <ele>516.37</ele>
        <time>2019-06-15T13:26:21Z</time>
      </trkpt>
      <trkpt lat="46.65476" lon="5.77865">
        <ele>521.65</ele>
        <time>2019-06-15T13:26:30Z</time>
      </trkpt>
      <trkpt lat="46.65476" lon="5.77865">
        <ele>518.29</ele>
        <time>2019-06-15T13:26:31Z</time>
      </trkpt>
      <trkpt lat="46.65476" lon="5.77865">
        <ele>518.77</ele>
        <time>2019-06-15T13:26:35Z</time>
      </trkpt>
      <trkpt lat="46.65476" lon="5.77865">
        <ele>517.81</ele>
        <time>2019-06-15T13:26:51Z</time>
      </trkpt>
    </trkseg>
  </trk>
</gpx>